<?xml version="1.0" encoding="UTF-8" standalone="no" ?>
<gpx xmlns="http://www.topografix.com/GPX/1/1" xmlns:xsi="http://www.w3.org/2001/XMLSchema-instance" xsi:schemaLocation="http://www.topografix.com/GPX/1/1 http://www.topografix.com/GPX/1/1/gpx.xsd" version="1.1" creator="VisuGPX - https://www.visugpx.com">
  <metadata>
    <name>Le GARLABAN</name>
    <desc><![CDATA[Difficulté moyenne.
Curiosités "vallon de Précatori" et "Baume de Passe Temps" 
   
]]></desc>
  </metadata>
  <trk>
    <name><![CDATA[Le GARLABAN_1]]></name>
    <trkseg>
      <trkpt lat="43.30907" lon="5.54504">
        <ele>243</ele>
        <time>2020-02-19T08:43:35Z</time>
      </trkpt>
      <trkpt lat="43.30904" lon="5.5451">
        <ele>251</ele>
        <time>2020-02-19T08:44:39Z</time>
      </trkpt>
      <trkpt lat="43.309" lon="5.54513">
        <ele>255</ele>
        <time>2020-02-19T08:44:45Z</time>
      </trkpt>
      <trkpt lat="43.30894" lon="5.54519">
        <ele>258</ele>
        <time>2020-02-19T08:44:51Z</time>
      </trkpt>
      <trkpt lat="43.30892" lon="5.54526">
        <ele>261</ele>
        <time>2020-02-19T08:44:55Z</time>
      </trkpt>
      <trkpt lat="43.3089" lon="5.54532">
        <ele>263</ele>
        <time>2020-02-19T08:44:59Z</time>
      </trkpt>
      <trkpt lat="43.30889" lon="5.54539">
        <ele>266</ele>
        <time>2020-02-19T08:45:05Z</time>
      </trkpt>
      <trkpt lat="43.30888" lon="5.54546">
        <ele>263</ele>
        <time>2020-02-19T08:45:13Z</time>
      </trkpt>
      <trkpt lat="43.30888" lon="5.54552">
        <ele>262</ele>
        <time>2020-02-19T08:45:19Z</time>
      </trkpt>
      <trkpt lat="43.30889" lon="5.54559">
        <ele>259</ele>
        <time>2020-02-19T08:45:23Z</time>
      </trkpt>
      <trkpt lat="43.30886" lon="5.54567">
        <ele>262</ele>
        <time>2020-02-19T08:45:29Z</time>
      </trkpt>
      <trkpt lat="43.30888" lon="5.54574">
        <ele>263</ele>
        <time>2020-02-19T08:45:35Z</time>
      </trkpt>
      <trkpt lat="43.30889" lon="5.54581">
        <ele>265</ele>
        <time>2020-02-19T08:45:41Z</time>
      </trkpt>
      <trkpt lat="43.30889" lon="5.54587">
        <ele>269</ele>
        <time>2020-02-19T08:45:45Z</time>
      </trkpt>
      <trkpt lat="43.3089" lon="5.54594">
        <ele>272</ele>
        <time>2020-02-19T08:45:49Z</time>
      </trkpt>
      <trkpt lat="43.30888" lon="5.546">
        <ele>272</ele>
        <time>2020-02-19T08:45:55Z</time>
      </trkpt>
      <trkpt lat="43.30889" lon="5.54607">
        <ele>271</ele>
        <time>2020-02-19T08:46:05Z</time>
      </trkpt>
      <trkpt lat="43.30889" lon="5.54615">
        <ele>273</ele>
        <time>2020-02-19T08:46:11Z</time>
      </trkpt>
      <trkpt lat="43.30891" lon="5.54624">
        <ele>272</ele>
        <time>2020-02-19T08:46:17Z</time>
      </trkpt>
      <trkpt lat="43.30896" lon="5.54627">
        <ele>268</ele>
        <time>2020-02-19T08:46:25Z</time>
      </trkpt>
      <trkpt lat="43.30901" lon="5.54627">
        <ele>265</ele>
        <time>2020-02-19T08:46:31Z</time>
      </trkpt>
      <trkpt lat="43.30905" lon="5.5463">
        <ele>265</ele>
        <time>2020-02-19T08:46:43Z</time>
      </trkpt>
      <trkpt lat="43.30911" lon="5.54635">
        <ele>271</ele>
        <time>2020-02-19T08:46:51Z</time>
      </trkpt>
      <trkpt lat="43.30919" lon="5.54637">
        <ele>271</ele>
        <time>2020-02-19T08:46:55Z</time>
      </trkpt>
      <trkpt lat="43.30925" lon="5.54639">
        <ele>269</ele>
        <time>2020-02-19T08:46:59Z</time>
      </trkpt>
      <trkpt lat="43.3093" lon="5.54642">
        <ele>269</ele>
        <time>2020-02-19T08:47:03Z</time>
      </trkpt>
      <trkpt lat="43.30934" lon="5.54649">
        <ele>270</ele>
        <time>2020-02-19T08:47:09Z</time>
      </trkpt>
      <trkpt lat="43.30937" lon="5.54658">
        <ele>268</ele>
        <time>2020-02-19T08:47:15Z</time>
      </trkpt>
      <trkpt lat="43.30938" lon="5.54664">
        <ele>271</ele>
        <time>2020-02-19T08:47:21Z</time>
      </trkpt>
      <trkpt lat="43.30937" lon="5.54673">
        <ele>273</ele>
        <time>2020-02-19T08:47:27Z</time>
      </trkpt>
      <trkpt lat="43.30937" lon="5.5468">
        <ele>274</ele>
        <time>2020-02-19T08:47:33Z</time>
      </trkpt>
      <trkpt lat="43.30943" lon="5.54685">
        <ele>271</ele>
        <time>2020-02-19T08:47:39Z</time>
      </trkpt>
      <trkpt lat="43.30946" lon="5.54691">
        <ele>271</ele>
        <time>2020-02-19T08:47:45Z</time>
      </trkpt>
      <trkpt lat="43.30948" lon="5.54698">
        <ele>273</ele>
        <time>2020-02-19T08:47:49Z</time>
      </trkpt>
      <trkpt lat="43.30949" lon="5.54706">
        <ele>273</ele>
        <time>2020-02-19T08:47:55Z</time>
      </trkpt>
      <trkpt lat="43.30953" lon="5.54711">
        <ele>275</ele>
        <time>2020-02-19T08:47:59Z</time>
      </trkpt>
      <trkpt lat="43.30957" lon="5.54717">
        <ele>275</ele>
        <time>2020-02-19T08:48:03Z</time>
      </trkpt>
      <trkpt lat="43.30961" lon="5.54722">
        <ele>273</ele>
        <time>2020-02-19T08:48:07Z</time>
      </trkpt>
      <trkpt lat="43.30963" lon="5.54729">
        <ele>275</ele>
        <time>2020-02-19T08:48:13Z</time>
      </trkpt>
      <trkpt lat="43.30969" lon="5.54732">
        <ele>271</ele>
        <time>2020-02-19T08:48:23Z</time>
      </trkpt>
      <trkpt lat="43.30976" lon="5.54732">
        <ele>269</ele>
        <time>2020-02-19T08:48:27Z</time>
      </trkpt>
      <trkpt lat="43.30981" lon="5.54734">
        <ele>271</ele>
        <time>2020-02-19T08:48:31Z</time>
      </trkpt>
      <trkpt lat="43.30986" lon="5.54734">
        <ele>268</ele>
        <time>2020-02-19T08:48:35Z</time>
      </trkpt>
      <trkpt lat="43.30991" lon="5.54733">
        <ele>265</ele>
        <time>2020-02-19T08:48:41Z</time>
      </trkpt>
      <trkpt lat="43.30998" lon="5.54731">
        <ele>266</ele>
        <time>2020-02-19T08:48:47Z</time>
      </trkpt>
      <trkpt lat="43.31004" lon="5.5473">
        <ele>269</ele>
        <time>2020-02-19T08:48:51Z</time>
      </trkpt>
      <trkpt lat="43.31009" lon="5.54729">
        <ele>270</ele>
        <time>2020-02-19T08:48:55Z</time>
      </trkpt>
      <trkpt lat="43.31014" lon="5.54728">
        <ele>268</ele>
        <time>2020-02-19T08:49:01Z</time>
      </trkpt>
      <trkpt lat="43.31019" lon="5.54729">
        <ele>262</ele>
        <time>2020-02-19T08:49:07Z</time>
      </trkpt>
      <trkpt lat="43.31024" lon="5.54732">
        <ele>263</ele>
        <time>2020-02-19T08:49:13Z</time>
      </trkpt>
      <trkpt lat="43.31028" lon="5.54737">
        <ele>263</ele>
        <time>2020-02-19T08:49:19Z</time>
      </trkpt>
      <trkpt lat="43.31033" lon="5.54739">
        <ele>261</ele>
        <time>2020-02-19T08:49:25Z</time>
      </trkpt>
      <trkpt lat="43.31037" lon="5.54742">
        <ele>262</ele>
        <time>2020-02-19T08:49:31Z</time>
      </trkpt>
      <trkpt lat="43.31042" lon="5.54747">
        <ele>261</ele>
        <time>2020-02-19T08:49:39Z</time>
      </trkpt>
      <trkpt lat="43.31048" lon="5.54751">
        <ele>261</ele>
        <time>2020-02-19T08:49:43Z</time>
      </trkpt>
      <trkpt lat="43.31052" lon="5.54754">
        <ele>261</ele>
        <time>2020-02-19T08:49:47Z</time>
      </trkpt>
      <trkpt lat="43.31057" lon="5.54757">
        <ele>260</ele>
        <time>2020-02-19T08:49:51Z</time>
      </trkpt>
      <trkpt lat="43.31062" lon="5.54763">
        <ele>265</ele>
        <time>2020-02-19T08:49:55Z</time>
      </trkpt>
      <trkpt lat="43.31068" lon="5.54767">
        <ele>262</ele>
        <time>2020-02-19T08:49:59Z</time>
      </trkpt>
      <trkpt lat="43.31072" lon="5.54772">
        <ele>261</ele>
        <time>2020-02-19T08:50:07Z</time>
      </trkpt>
      <trkpt lat="43.31077" lon="5.54771">
        <ele>259</ele>
        <time>2020-02-19T08:50:15Z</time>
      </trkpt>
      <trkpt lat="43.31084" lon="5.54773">
        <ele>259</ele>
        <time>2020-02-19T08:50:21Z</time>
      </trkpt>
      <trkpt lat="43.31089" lon="5.54773">
        <ele>260</ele>
        <time>2020-02-19T08:50:25Z</time>
      </trkpt>
      <trkpt lat="43.31093" lon="5.54771">
        <ele>259</ele>
        <time>2020-02-19T08:50:29Z</time>
      </trkpt>
      <trkpt lat="43.31098" lon="5.54769">
        <ele>258</ele>
        <time>2020-02-19T08:50:35Z</time>
      </trkpt>
      <trkpt lat="43.31104" lon="5.54767">
        <ele>259</ele>
        <time>2020-02-19T08:50:41Z</time>
      </trkpt>
      <trkpt lat="43.3111" lon="5.54766">
        <ele>261</ele>
        <time>2020-02-19T08:50:45Z</time>
      </trkpt>
      <trkpt lat="43.31114" lon="5.54764">
        <ele>260</ele>
        <time>2020-02-19T08:50:49Z</time>
      </trkpt>
      <trkpt lat="43.31119" lon="5.5476">
        <ele>259</ele>
        <time>2020-02-19T08:50:55Z</time>
      </trkpt>
      <trkpt lat="43.31124" lon="5.54758">
        <ele>259</ele>
        <time>2020-02-19T08:50:59Z</time>
      </trkpt>
      <trkpt lat="43.3113" lon="5.54756">
        <ele>259</ele>
        <time>2020-02-19T08:51:03Z</time>
      </trkpt>
      <trkpt lat="43.31136" lon="5.54755">
        <ele>260</ele>
        <time>2020-02-19T08:51:07Z</time>
      </trkpt>
      <trkpt lat="43.31141" lon="5.54754">
        <ele>256</ele>
        <time>2020-02-19T08:51:11Z</time>
      </trkpt>
      <trkpt lat="43.31147" lon="5.5475">
        <ele>253</ele>
        <time>2020-02-19T08:51:17Z</time>
      </trkpt>
      <trkpt lat="43.31148" lon="5.54744">
        <ele>256</ele>
        <time>2020-02-19T08:51:23Z</time>
      </trkpt>
      <trkpt lat="43.31151" lon="5.54738">
        <ele>253</ele>
        <time>2020-02-19T08:51:27Z</time>
      </trkpt>
      <trkpt lat="43.31157" lon="5.54732">
        <ele>252</ele>
        <time>2020-02-19T08:51:31Z</time>
      </trkpt>
      <trkpt lat="43.31165" lon="5.54726">
        <ele>250</ele>
        <time>2020-02-19T08:51:35Z</time>
      </trkpt>
      <trkpt lat="43.31169" lon="5.54722">
        <ele>249</ele>
        <time>2020-02-19T08:51:39Z</time>
      </trkpt>
      <trkpt lat="43.30961" lon="5.54583">
        <ele>248</ele>
        <time>2020-02-19T08:51:47Z</time>
      </trkpt>
      <trkpt lat="43.31191" lon="5.54714">
        <ele>246</ele>
        <time>2020-02-19T08:51:59Z</time>
      </trkpt>
      <trkpt lat="43.31196" lon="5.54711">
        <ele>245</ele>
        <time>2020-02-19T08:52:05Z</time>
      </trkpt>
      <trkpt lat="43.312" lon="5.54709">
        <ele>245</ele>
        <time>2020-02-19T08:52:09Z</time>
      </trkpt>
      <trkpt lat="43.31205" lon="5.54706">
        <ele>246</ele>
        <time>2020-02-19T08:52:14Z</time>
      </trkpt>
      <trkpt lat="43.3121" lon="5.54703">
        <ele>249</ele>
        <time>2020-02-19T08:52:19Z</time>
      </trkpt>
      <trkpt lat="43.31214" lon="5.547">
        <ele>249</ele>
        <time>2020-02-19T08:52:23Z</time>
      </trkpt>
      <trkpt lat="43.31219" lon="5.54698">
        <ele>248</ele>
        <time>2020-02-19T08:52:27Z</time>
      </trkpt>
      <trkpt lat="43.31224" lon="5.54695">
        <ele>250</ele>
        <time>2020-02-19T08:52:31Z</time>
      </trkpt>
      <trkpt lat="43.31227" lon="5.54688">
        <ele>249</ele>
        <time>2020-02-19T08:52:37Z</time>
      </trkpt>
      <trkpt lat="43.31231" lon="5.54684">
        <ele>251</ele>
        <time>2020-02-19T08:52:43Z</time>
      </trkpt>
      <trkpt lat="43.31233" lon="5.54678">
        <ele>245</ele>
        <time>2020-02-19T08:52:53Z</time>
      </trkpt>
      <trkpt lat="43.31232" lon="5.54672">
        <ele>236</ele>
        <time>2020-02-19T08:53:01Z</time>
      </trkpt>
      <trkpt lat="43.31232" lon="5.54665">
        <ele>235</ele>
        <time>2020-02-19T08:53:07Z</time>
      </trkpt>
      <trkpt lat="43.31233" lon="5.54656">
        <ele>234</ele>
        <time>2020-02-19T08:53:13Z</time>
      </trkpt>
      <trkpt lat="43.31233" lon="5.54647">
        <ele>234</ele>
        <time>2020-02-19T08:53:17Z</time>
      </trkpt>
      <trkpt lat="43.31226" lon="5.5463">
        <ele>234</ele>
        <time>2020-02-19T08:53:25Z</time>
      </trkpt>
      <trkpt lat="43.31224" lon="5.54624">
        <ele>233</ele>
        <time>2020-02-19T08:53:29Z</time>
      </trkpt>
      <trkpt lat="43.31221" lon="5.54619">
        <ele>236</ele>
        <time>2020-02-19T08:53:33Z</time>
      </trkpt>
      <trkpt lat="43.31217" lon="5.54612">
        <ele>238</ele>
        <time>2020-02-19T08:53:37Z</time>
      </trkpt>
      <trkpt lat="43.31216" lon="5.54604">
        <ele>235</ele>
        <time>2020-02-19T08:53:43Z</time>
      </trkpt>
      <trkpt lat="43.31216" lon="5.54598">
        <ele>232</ele>
        <time>2020-02-19T08:53:49Z</time>
      </trkpt>
      <trkpt lat="43.31216" lon="5.5459">
        <ele>235</ele>
        <time>2020-02-19T08:53:55Z</time>
      </trkpt>
      <trkpt lat="43.31216" lon="5.54583">
        <ele>240</ele>
        <time>2020-02-19T08:53:59Z</time>
      </trkpt>
      <trkpt lat="43.31216" lon="5.54575">
        <ele>245</ele>
        <time>2020-02-19T08:54:03Z</time>
      </trkpt>
      <trkpt lat="43.31216" lon="5.54567">
        <ele>247</ele>
        <time>2020-02-19T08:54:07Z</time>
      </trkpt>
      <trkpt lat="43.31216" lon="5.54561">
        <ele>248</ele>
        <time>2020-02-19T08:54:11Z</time>
      </trkpt>
      <trkpt lat="43.31216" lon="5.54552">
        <ele>250</ele>
        <time>2020-02-19T08:54:17Z</time>
      </trkpt>
      <trkpt lat="43.31216" lon="5.54545">
        <ele>254</ele>
        <time>2020-02-19T08:54:21Z</time>
      </trkpt>
      <trkpt lat="43.31216" lon="5.54539">
        <ele>254</ele>
        <time>2020-02-19T08:54:25Z</time>
      </trkpt>
      <trkpt lat="43.31217" lon="5.54532">
        <ele>252</ele>
        <time>2020-02-19T08:54:31Z</time>
      </trkpt>
      <trkpt lat="43.31218" lon="5.54525">
        <ele>253</ele>
        <time>2020-02-19T08:54:39Z</time>
      </trkpt>
      <trkpt lat="43.31221" lon="5.54519">
        <ele>256</ele>
        <time>2020-02-19T08:54:47Z</time>
      </trkpt>
      <trkpt lat="43.31222" lon="5.54512">
        <ele>255</ele>
        <time>2020-02-19T08:54:53Z</time>
      </trkpt>
      <trkpt lat="43.31225" lon="5.54507">
        <ele>258</ele>
        <time>2020-02-19T08:54:59Z</time>
      </trkpt>
      <trkpt lat="43.31229" lon="5.54505">
        <ele>258</ele>
        <time>2020-02-19T08:55:05Z</time>
      </trkpt>
      <trkpt lat="43.31233" lon="5.54499">
        <ele>256</ele>
        <time>2020-02-19T08:55:15Z</time>
      </trkpt>
      <trkpt lat="43.31235" lon="5.54493">
        <ele>255</ele>
        <time>2020-02-19T08:55:23Z</time>
      </trkpt>
      <trkpt lat="43.31239" lon="5.54487">
        <ele>256</ele>
        <time>2020-02-19T08:55:29Z</time>
      </trkpt>
      <trkpt lat="43.31244" lon="5.54482">
        <ele>258</ele>
        <time>2020-02-19T08:55:35Z</time>
      </trkpt>
      <trkpt lat="43.31248" lon="5.54479">
        <ele>259</ele>
        <time>2020-02-19T08:55:41Z</time>
      </trkpt>
      <trkpt lat="43.31251" lon="5.54473">
        <ele>256</ele>
        <time>2020-02-19T08:55:49Z</time>
      </trkpt>
      <trkpt lat="43.31255" lon="5.54467">
        <ele>258</ele>
        <time>2020-02-19T08:55:55Z</time>
      </trkpt>
      <trkpt lat="43.31257" lon="5.5446">
        <ele>257</ele>
        <time>2020-02-19T08:56:03Z</time>
      </trkpt>
      <trkpt lat="43.3126" lon="5.54455">
        <ele>257</ele>
        <time>2020-02-19T08:56:09Z</time>
      </trkpt>
      <trkpt lat="43.31264" lon="5.54449">
        <ele>258</ele>
        <time>2020-02-19T08:56:15Z</time>
      </trkpt>
      <trkpt lat="43.31269" lon="5.54447">
        <ele>256</ele>
        <time>2020-02-19T08:56:19Z</time>
      </trkpt>
      <trkpt lat="43.31274" lon="5.54444">
        <ele>256</ele>
        <time>2020-02-19T08:56:23Z</time>
      </trkpt>
      <trkpt lat="43.31278" lon="5.5444">
        <ele>258</ele>
        <time>2020-02-19T08:56:27Z</time>
      </trkpt>
      <trkpt lat="43.31279" lon="5.54432">
        <ele>258</ele>
        <time>2020-02-19T08:56:33Z</time>
      </trkpt>
      <trkpt lat="43.31281" lon="5.54426">
        <ele>256</ele>
        <time>2020-02-19T08:56:37Z</time>
      </trkpt>
      <trkpt lat="43.31285" lon="5.54419">
        <ele>256</ele>
        <time>2020-02-19T08:56:43Z</time>
      </trkpt>
      <trkpt lat="43.31288" lon="5.54414">
        <ele>255</ele>
        <time>2020-02-19T08:56:47Z</time>
      </trkpt>
      <trkpt lat="43.31292" lon="5.54407">
        <ele>257</ele>
        <time>2020-02-19T08:56:51Z</time>
      </trkpt>
      <trkpt lat="43.31296" lon="5.544">
        <ele>258</ele>
        <time>2020-02-19T08:56:55Z</time>
      </trkpt>
      <trkpt lat="43.31298" lon="5.54394">
        <ele>258</ele>
        <time>2020-02-19T08:56:59Z</time>
      </trkpt>
      <trkpt lat="43.313" lon="5.54388">
        <ele>257</ele>
        <time>2020-02-19T08:57:03Z</time>
      </trkpt>
      <trkpt lat="43.31303" lon="5.54381">
        <ele>257</ele>
        <time>2020-02-19T08:57:07Z</time>
      </trkpt>
      <trkpt lat="43.31307" lon="5.54377">
        <ele>257</ele>
        <time>2020-02-19T08:57:11Z</time>
      </trkpt>
      <trkpt lat="43.31312" lon="5.54373">
        <ele>258</ele>
        <time>2020-02-19T08:57:15Z</time>
      </trkpt>
      <trkpt lat="43.31317" lon="5.54371">
        <ele>258</ele>
        <time>2020-02-19T08:57:19Z</time>
      </trkpt>
      <trkpt lat="43.31322" lon="5.54374">
        <ele>258</ele>
        <time>2020-02-19T08:57:23Z</time>
      </trkpt>
      <trkpt lat="43.31328" lon="5.54378">
        <ele>257</ele>
        <time>2020-02-19T08:57:27Z</time>
      </trkpt>
      <trkpt lat="43.31332" lon="5.54381">
        <ele>259</ele>
        <time>2020-02-19T08:57:31Z</time>
      </trkpt>
      <trkpt lat="43.31337" lon="5.54386">
        <ele>259</ele>
        <time>2020-02-19T08:57:35Z</time>
      </trkpt>
      <trkpt lat="43.31348" lon="5.54395">
        <ele>257</ele>
        <time>2020-02-19T08:57:45Z</time>
      </trkpt>
      <trkpt lat="43.31353" lon="5.54398">
        <ele>259</ele>
        <time>2020-02-19T08:57:49Z</time>
      </trkpt>
      <trkpt lat="43.31356" lon="5.54403">
        <ele>263</ele>
        <time>2020-02-19T08:57:55Z</time>
      </trkpt>
      <trkpt lat="43.31362" lon="5.54403">
        <ele>259</ele>
        <time>2020-02-19T08:58:03Z</time>
      </trkpt>
      <trkpt lat="43.31365" lon="5.54396">
        <ele>259</ele>
        <time>2020-02-19T08:58:09Z</time>
      </trkpt>
      <trkpt lat="43.31368" lon="5.54391">
        <ele>255</ele>
        <time>2020-02-19T08:58:15Z</time>
      </trkpt>
      <trkpt lat="43.3137" lon="5.54384">
        <ele>254</ele>
        <time>2020-02-19T08:58:19Z</time>
      </trkpt>
      <trkpt lat="43.31371" lon="5.54377">
        <ele>253</ele>
        <time>2020-02-19T08:58:23Z</time>
      </trkpt>
      <trkpt lat="43.31373" lon="5.5437">
        <ele>253</ele>
        <time>2020-02-19T08:58:27Z</time>
      </trkpt>
      <trkpt lat="43.31374" lon="5.54364">
        <ele>255</ele>
        <time>2020-02-19T08:58:31Z</time>
      </trkpt>
      <trkpt lat="43.31375" lon="5.54356">
        <ele>258</ele>
        <time>2020-02-19T08:58:35Z</time>
      </trkpt>
      <trkpt lat="43.31376" lon="5.54348">
        <ele>260</ele>
        <time>2020-02-19T08:58:39Z</time>
      </trkpt>
      <trkpt lat="43.31378" lon="5.54341">
        <ele>260</ele>
        <time>2020-02-19T08:58:43Z</time>
      </trkpt>
      <trkpt lat="43.3138" lon="5.54334">
        <ele>261</ele>
        <time>2020-02-19T08:58:47Z</time>
      </trkpt>
      <trkpt lat="43.31382" lon="5.54328">
        <ele>260</ele>
        <time>2020-02-19T08:58:51Z</time>
      </trkpt>
      <trkpt lat="43.31382" lon="5.54321">
        <ele>257</ele>
        <time>2020-02-19T08:58:59Z</time>
      </trkpt>
      <trkpt lat="43.31379" lon="5.54314">
        <ele>257</ele>
        <time>2020-02-19T08:59:05Z</time>
      </trkpt>
      <trkpt lat="43.31378" lon="5.54308">
        <ele>260</ele>
        <time>2020-02-19T08:59:09Z</time>
      </trkpt>
      <trkpt lat="43.3138" lon="5.543">
        <ele>262</ele>
        <time>2020-02-19T08:59:15Z</time>
      </trkpt>
      <trkpt lat="43.31386" lon="5.54298">
        <ele>262</ele>
        <time>2020-02-19T08:59:21Z</time>
      </trkpt>
      <trkpt lat="43.3139" lon="5.54298">
        <ele>264</ele>
        <time>2020-02-19T08:59:25Z</time>
      </trkpt>
      <trkpt lat="43.31396" lon="5.54299">
        <ele>264</ele>
        <time>2020-02-19T08:59:33Z</time>
      </trkpt>
      <trkpt lat="43.31402" lon="5.54298">
        <ele>265</ele>
        <time>2020-02-19T08:59:39Z</time>
      </trkpt>
      <trkpt lat="43.31407" lon="5.54297">
        <ele>264</ele>
        <time>2020-02-19T08:59:43Z</time>
      </trkpt>
      <trkpt lat="43.31413" lon="5.54296">
        <ele>263</ele>
        <time>2020-02-19T08:59:47Z</time>
      </trkpt>
      <trkpt lat="43.31417" lon="5.54293">
        <ele>265</ele>
        <time>2020-02-19T08:59:51Z</time>
      </trkpt>
      <trkpt lat="43.31423" lon="5.54291">
        <ele>265</ele>
        <time>2020-02-19T08:59:57Z</time>
      </trkpt>
      <trkpt lat="43.31429" lon="5.54289">
        <ele>265</ele>
        <time>2020-02-19T09:00:03Z</time>
      </trkpt>
      <trkpt lat="43.31434" lon="5.54288">
        <ele>263</ele>
        <time>2020-02-19T09:00:07Z</time>
      </trkpt>
      <trkpt lat="43.31438" lon="5.54286">
        <ele>262</ele>
        <time>2020-02-19T09:00:11Z</time>
      </trkpt>
      <trkpt lat="43.31444" lon="5.54284">
        <ele>263</ele>
        <time>2020-02-19T09:00:17Z</time>
      </trkpt>
      <trkpt lat="43.3145" lon="5.54282">
        <ele>262</ele>
        <time>2020-02-19T09:00:23Z</time>
      </trkpt>
      <trkpt lat="43.31454" lon="5.54281">
        <ele>264</ele>
        <time>2020-02-19T09:00:27Z</time>
      </trkpt>
      <trkpt lat="43.31459" lon="5.54275">
        <ele>266</ele>
        <time>2020-02-19T09:00:33Z</time>
      </trkpt>
      <trkpt lat="43.31461" lon="5.5427">
        <ele>266</ele>
        <time>2020-02-19T09:00:37Z</time>
      </trkpt>
      <trkpt lat="43.31464" lon="5.54265">
        <ele>265</ele>
        <time>2020-02-19T09:00:41Z</time>
      </trkpt>
      <trkpt lat="43.31467" lon="5.54259">
        <ele>264</ele>
        <time>2020-02-19T09:00:45Z</time>
      </trkpt>
      <trkpt lat="43.31469" lon="5.54252">
        <ele>264</ele>
        <time>2020-02-19T09:00:49Z</time>
      </trkpt>
      <trkpt lat="43.31469" lon="5.54244">
        <ele>265</ele>
        <time>2020-02-19T09:00:55Z</time>
      </trkpt>
      <trkpt lat="43.31471" lon="5.54238">
        <ele>267</ele>
        <time>2020-02-19T09:00:59Z</time>
      </trkpt>
      <trkpt lat="43.31472" lon="5.54231">
        <ele>268</ele>
        <time>2020-02-19T09:01:03Z</time>
      </trkpt>
      <trkpt lat="43.31474" lon="5.54224">
        <ele>270</ele>
        <time>2020-02-19T09:01:07Z</time>
      </trkpt>
      <trkpt lat="43.31477" lon="5.54217">
        <ele>270</ele>
        <time>2020-02-19T09:01:11Z</time>
      </trkpt>
      <trkpt lat="43.31479" lon="5.54211">
        <ele>272</ele>
        <time>2020-02-19T09:01:15Z</time>
      </trkpt>
      <trkpt lat="43.3148" lon="5.54204">
        <ele>273</ele>
        <time>2020-02-19T09:01:19Z</time>
      </trkpt>
      <trkpt lat="43.31486" lon="5.54199">
        <ele>270</ele>
        <time>2020-02-19T09:01:25Z</time>
      </trkpt>
      <trkpt lat="43.31491" lon="5.54196">
        <ele>273</ele>
        <time>2020-02-19T09:01:29Z</time>
      </trkpt>
      <trkpt lat="43.31495" lon="5.54192">
        <ele>272</ele>
        <time>2020-02-19T09:01:33Z</time>
      </trkpt>
      <trkpt lat="43.31497" lon="5.54187">
        <ele>272</ele>
        <time>2020-02-19T09:01:37Z</time>
      </trkpt>
      <trkpt lat="43.31498" lon="5.54179">
        <ele>270</ele>
        <time>2020-02-19T09:01:43Z</time>
      </trkpt>
      <trkpt lat="43.31503" lon="5.54177">
        <ele>272</ele>
        <time>2020-02-19T09:01:51Z</time>
      </trkpt>
      <trkpt lat="43.31504" lon="5.54168">
        <ele>273</ele>
        <time>2020-02-19T09:02:03Z</time>
      </trkpt>
      <trkpt lat="43.31506" lon="5.54162">
        <ele>274</ele>
        <time>2020-02-19T09:02:07Z</time>
      </trkpt>
      <trkpt lat="43.31509" lon="5.54156">
        <ele>273</ele>
        <time>2020-02-19T09:02:11Z</time>
      </trkpt>
      <trkpt lat="43.31512" lon="5.54152">
        <ele>272</ele>
        <time>2020-02-19T09:02:15Z</time>
      </trkpt>
      <trkpt lat="43.31517" lon="5.54147">
        <ele>270</ele>
        <time>2020-02-19T09:02:21Z</time>
      </trkpt>
      <trkpt lat="43.3152" lon="5.54142">
        <ele>270</ele>
        <time>2020-02-19T09:02:27Z</time>
      </trkpt>
      <trkpt lat="43.31521" lon="5.54136">
        <ele>268</ele>
        <time>2020-02-19T09:02:33Z</time>
      </trkpt>
      <trkpt lat="43.31527" lon="5.54132">
        <ele>268</ele>
        <time>2020-02-19T09:02:39Z</time>
      </trkpt>
      <trkpt lat="43.31531" lon="5.54128">
        <ele>269</ele>
        <time>2020-02-19T09:02:43Z</time>
      </trkpt>
      <trkpt lat="43.31538" lon="5.54125">
        <ele>273</ele>
        <time>2020-02-19T09:02:47Z</time>
      </trkpt>
      <trkpt lat="43.31544" lon="5.54121">
        <ele>274</ele>
        <time>2020-02-19T09:02:51Z</time>
      </trkpt>
      <trkpt lat="43.31549" lon="5.54117">
        <ele>274</ele>
        <time>2020-02-19T09:02:55Z</time>
      </trkpt>
      <trkpt lat="43.31554" lon="5.54113">
        <ele>276</ele>
        <time>2020-02-19T09:02:59Z</time>
      </trkpt>
      <trkpt lat="43.31556" lon="5.54107">
        <ele>279</ele>
        <time>2020-02-19T09:03:03Z</time>
      </trkpt>
      <trkpt lat="43.31559" lon="5.541">
        <ele>280</ele>
        <time>2020-02-19T09:03:07Z</time>
      </trkpt>
      <trkpt lat="43.31563" lon="5.54094">
        <ele>280</ele>
        <time>2020-02-19T09:03:11Z</time>
      </trkpt>
      <trkpt lat="43.31568" lon="5.54089">
        <ele>280</ele>
        <time>2020-02-19T09:03:17Z</time>
      </trkpt>
      <trkpt lat="43.3157" lon="5.54083">
        <ele>282</ele>
        <time>2020-02-19T09:03:23Z</time>
      </trkpt>
      <trkpt lat="43.3157" lon="5.54076">
        <ele>279</ele>
        <time>2020-02-19T09:03:29Z</time>
      </trkpt>
      <trkpt lat="43.31569" lon="5.54068">
        <ele>276</ele>
        <time>2020-02-19T09:03:37Z</time>
      </trkpt>
      <trkpt lat="43.31573" lon="5.54074">
        <ele>274</ele>
        <time>2020-02-19T09:04:29Z</time>
      </trkpt>
      <trkpt lat="43.31576" lon="5.54069">
        <ele>271</ele>
        <time>2020-02-19T09:09:55Z</time>
      </trkpt>
      <trkpt lat="43.31577" lon="5.54062">
        <ele>270</ele>
        <time>2020-02-19T09:10:07Z</time>
      </trkpt>
      <trkpt lat="43.31578" lon="5.54054">
        <ele>271</ele>
        <time>2020-02-19T09:10:15Z</time>
      </trkpt>
      <trkpt lat="43.31581" lon="5.54047">
        <ele>269</ele>
        <time>2020-02-19T09:10:21Z</time>
      </trkpt>
      <trkpt lat="43.31582" lon="5.54041">
        <ele>272</ele>
        <time>2020-02-19T09:10:27Z</time>
      </trkpt>
      <trkpt lat="43.31586" lon="5.54035">
        <ele>268</ele>
        <time>2020-02-19T09:10:33Z</time>
      </trkpt>
      <trkpt lat="43.31587" lon="5.54028">
        <ele>267</ele>
        <time>2020-02-19T09:10:39Z</time>
      </trkpt>
      <trkpt lat="43.31589" lon="5.54021">
        <ele>269</ele>
        <time>2020-02-19T09:10:45Z</time>
      </trkpt>
      <trkpt lat="43.3159" lon="5.54013">
        <ele>267</ele>
        <time>2020-02-19T09:10:51Z</time>
      </trkpt>
      <trkpt lat="43.31593" lon="5.54007">
        <ele>266</ele>
        <time>2020-02-19T09:10:57Z</time>
      </trkpt>
      <trkpt lat="43.31596" lon="5.54001">
        <ele>266</ele>
        <time>2020-02-19T09:11:01Z</time>
      </trkpt>
      <trkpt lat="43.31596" lon="5.53995">
        <ele>266</ele>
        <time>2020-02-19T09:11:05Z</time>
      </trkpt>
      <trkpt lat="43.31597" lon="5.53988">
        <ele>269</ele>
        <time>2020-02-19T09:11:09Z</time>
      </trkpt>
      <trkpt lat="43.316" lon="5.53983">
        <ele>269</ele>
        <time>2020-02-19T09:11:13Z</time>
      </trkpt>
      <trkpt lat="43.316" lon="5.53976">
        <ele>270</ele>
        <time>2020-02-19T09:11:19Z</time>
      </trkpt>
      <trkpt lat="43.31601" lon="5.53969">
        <ele>269</ele>
        <time>2020-02-19T09:11:25Z</time>
      </trkpt>
      <trkpt lat="43.31602" lon="5.53963">
        <ele>267</ele>
        <time>2020-02-19T09:11:31Z</time>
      </trkpt>
      <trkpt lat="43.31604" lon="5.53958">
        <ele>263</ele>
        <time>2020-02-19T09:11:37Z</time>
      </trkpt>
      <trkpt lat="43.31606" lon="5.53951">
        <ele>264</ele>
        <time>2020-02-19T09:11:43Z</time>
      </trkpt>
      <trkpt lat="43.3161" lon="5.53944">
        <ele>266</ele>
        <time>2020-02-19T09:11:49Z</time>
      </trkpt>
      <trkpt lat="43.31611" lon="5.53936">
        <ele>268</ele>
        <time>2020-02-19T09:11:55Z</time>
      </trkpt>
      <trkpt lat="43.31612" lon="5.53929">
        <ele>271</ele>
        <time>2020-02-19T09:12:01Z</time>
      </trkpt>
      <trkpt lat="43.31613" lon="5.53922">
        <ele>274</ele>
        <time>2020-02-19T09:12:05Z</time>
      </trkpt>
      <trkpt lat="43.31616" lon="5.53915">
        <ele>277</ele>
        <time>2020-02-19T09:12:09Z</time>
      </trkpt>
      <trkpt lat="43.31617" lon="5.53908">
        <ele>278</ele>
        <time>2020-02-19T09:12:13Z</time>
      </trkpt>
      <trkpt lat="43.31618" lon="5.53902">
        <ele>279</ele>
        <time>2020-02-19T09:12:17Z</time>
      </trkpt>
      <trkpt lat="43.31618" lon="5.53894">
        <ele>279</ele>
        <time>2020-02-19T09:12:23Z</time>
      </trkpt>
      <trkpt lat="43.31622" lon="5.53888">
        <ele>282</ele>
        <time>2020-02-19T09:12:31Z</time>
      </trkpt>
      <trkpt lat="43.31626" lon="5.53883">
        <ele>282</ele>
        <time>2020-02-19T09:12:39Z</time>
      </trkpt>
      <trkpt lat="43.31631" lon="5.53882">
        <ele>282</ele>
        <time>2020-02-19T09:12:45Z</time>
      </trkpt>
      <trkpt lat="43.31634" lon="5.53876">
        <ele>283</ele>
        <time>2020-02-19T09:12:53Z</time>
      </trkpt>
      <trkpt lat="43.31639" lon="5.53872">
        <ele>287</ele>
        <time>2020-02-19T09:12:57Z</time>
      </trkpt>
      <trkpt lat="43.31642" lon="5.53868">
        <ele>283</ele>
        <time>2020-02-19T09:13:01Z</time>
      </trkpt>
      <trkpt lat="43.31647" lon="5.53864">
        <ele>283</ele>
        <time>2020-02-19T09:13:09Z</time>
      </trkpt>
      <trkpt lat="43.31648" lon="5.53857">
        <ele>282</ele>
        <time>2020-02-19T09:13:23Z</time>
      </trkpt>
      <trkpt lat="43.31652" lon="5.5385">
        <ele>284</ele>
        <time>2020-02-19T09:13:29Z</time>
      </trkpt>
      <trkpt lat="43.31657" lon="5.53846">
        <ele>284</ele>
        <time>2020-02-19T09:13:35Z</time>
      </trkpt>
      <trkpt lat="43.31662" lon="5.53841">
        <ele>287</ele>
        <time>2020-02-19T09:13:39Z</time>
      </trkpt>
      <trkpt lat="43.31666" lon="5.53836">
        <ele>289</ele>
        <time>2020-02-19T09:13:43Z</time>
      </trkpt>
      <trkpt lat="43.31669" lon="5.53831">
        <ele>291</ele>
        <time>2020-02-19T09:13:47Z</time>
      </trkpt>
      <trkpt lat="43.31672" lon="5.53825">
        <ele>294</ele>
        <time>2020-02-19T09:13:53Z</time>
      </trkpt>
      <trkpt lat="43.31674" lon="5.53818">
        <ele>294</ele>
        <time>2020-02-19T09:13:59Z</time>
      </trkpt>
      <trkpt lat="43.31675" lon="5.53811">
        <ele>296</ele>
        <time>2020-02-19T09:14:09Z</time>
      </trkpt>
      <trkpt lat="43.31676" lon="5.53804">
        <ele>301</ele>
        <time>2020-02-19T09:14:15Z</time>
      </trkpt>
      <trkpt lat="43.3168" lon="5.53799">
        <ele>301</ele>
        <time>2020-02-19T09:14:21Z</time>
      </trkpt>
      <trkpt lat="43.31684" lon="5.53795">
        <ele>301</ele>
        <time>2020-02-19T09:14:29Z</time>
      </trkpt>
      <trkpt lat="43.31687" lon="5.5379">
        <ele>300</ele>
        <time>2020-02-19T09:14:37Z</time>
      </trkpt>
      <trkpt lat="43.3169" lon="5.53784">
        <ele>300</ele>
        <time>2020-02-19T09:14:45Z</time>
      </trkpt>
      <trkpt lat="43.31694" lon="5.53779">
        <ele>302</ele>
        <time>2020-02-19T09:14:51Z</time>
      </trkpt>
      <trkpt lat="43.31699" lon="5.53776">
        <ele>301</ele>
        <time>2020-02-19T09:14:59Z</time>
      </trkpt>
      <trkpt lat="43.31704" lon="5.53778">
        <ele>301</ele>
        <time>2020-02-19T09:15:35Z</time>
      </trkpt>
      <trkpt lat="43.31706" lon="5.53772">
        <ele>301</ele>
        <time>2020-02-19T09:15:51Z</time>
      </trkpt>
      <trkpt lat="43.31709" lon="5.53763">
        <ele>301</ele>
        <time>2020-02-19T09:16:15Z</time>
      </trkpt>
      <trkpt lat="43.31709" lon="5.53755">
        <ele>303</ele>
        <time>2020-02-19T09:16:19Z</time>
      </trkpt>
      <trkpt lat="43.3171" lon="5.53747">
        <ele>306</ele>
        <time>2020-02-19T09:16:23Z</time>
      </trkpt>
      <trkpt lat="43.31711" lon="5.53738">
        <ele>306</ele>
        <time>2020-02-19T09:16:29Z</time>
      </trkpt>
      <trkpt lat="43.31716" lon="5.53735">
        <ele>301</ele>
        <time>2020-02-19T09:16:37Z</time>
      </trkpt>
      <trkpt lat="43.31721" lon="5.53729">
        <ele>303</ele>
        <time>2020-02-19T09:16:43Z</time>
      </trkpt>
      <trkpt lat="43.31726" lon="5.53724">
        <ele>303</ele>
        <time>2020-02-19T09:16:51Z</time>
      </trkpt>
      <trkpt lat="43.31728" lon="5.53718">
        <ele>305</ele>
        <time>2020-02-19T09:16:55Z</time>
      </trkpt>
      <trkpt lat="43.31732" lon="5.53712">
        <ele>306</ele>
        <time>2020-02-19T09:17:19Z</time>
      </trkpt>
      <trkpt lat="43.31738" lon="5.53711">
        <ele>309</ele>
        <time>2020-02-19T09:17:25Z</time>
      </trkpt>
      <trkpt lat="43.31743" lon="5.53711">
        <ele>309</ele>
        <time>2020-02-19T09:17:29Z</time>
      </trkpt>
      <trkpt lat="43.31749" lon="5.53711">
        <ele>310</ele>
        <time>2020-02-19T09:17:33Z</time>
      </trkpt>
      <trkpt lat="43.31754" lon="5.53711">
        <ele>310</ele>
        <time>2020-02-19T09:17:37Z</time>
      </trkpt>
      <trkpt lat="43.31759" lon="5.53711">
        <ele>310</ele>
        <time>2020-02-19T09:17:41Z</time>
      </trkpt>
      <trkpt lat="43.31765" lon="5.53713">
        <ele>310</ele>
        <time>2020-02-19T09:17:47Z</time>
      </trkpt>
      <trkpt lat="43.31769" lon="5.53717">
        <ele>309</ele>
        <time>2020-02-19T09:17:53Z</time>
      </trkpt>
      <trkpt lat="43.31773" lon="5.53722">
        <ele>307</ele>
        <time>2020-02-19T09:17:59Z</time>
      </trkpt>
      <trkpt lat="43.31775" lon="5.53728">
        <ele>305</ele>
        <time>2020-02-19T09:18:07Z</time>
      </trkpt>
      <trkpt lat="43.3178" lon="5.53733">
        <ele>308</ele>
        <time>2020-02-19T09:18:13Z</time>
      </trkpt>
      <trkpt lat="43.31786" lon="5.53734">
        <ele>307</ele>
        <time>2020-02-19T09:18:17Z</time>
      </trkpt>
      <trkpt lat="43.31791" lon="5.53737">
        <ele>306</ele>
        <time>2020-02-19T09:18:21Z</time>
      </trkpt>
      <trkpt lat="43.31795" lon="5.53742">
        <ele>306</ele>
        <time>2020-02-19T09:18:27Z</time>
      </trkpt>
      <trkpt lat="43.31799" lon="5.53745">
        <ele>312</ele>
        <time>2020-02-19T09:18:33Z</time>
      </trkpt>
      <trkpt lat="43.31804" lon="5.53749">
        <ele>313</ele>
        <time>2020-02-19T09:18:43Z</time>
      </trkpt>
      <trkpt lat="43.31809" lon="5.53748">
        <ele>312</ele>
        <time>2020-02-19T09:19:25Z</time>
      </trkpt>
      <trkpt lat="43.31813" lon="5.53748">
        <ele>310</ele>
        <time>2020-02-19T09:19:29Z</time>
      </trkpt>
      <trkpt lat="43.31818" lon="5.53747">
        <ele>308</ele>
        <time>2020-02-19T09:19:33Z</time>
      </trkpt>
      <trkpt lat="43.31822" lon="5.53745">
        <ele>309</ele>
        <time>2020-02-19T09:20:03Z</time>
      </trkpt>
      <trkpt lat="43.31827" lon="5.53745">
        <ele>311</ele>
        <time>2020-02-19T09:20:17Z</time>
      </trkpt>
      <trkpt lat="43.31832" lon="5.53748">
        <ele>313</ele>
        <time>2020-02-19T09:20:27Z</time>
      </trkpt>
      <trkpt lat="43.31836" lon="5.53753">
        <ele>321</ele>
        <time>2020-02-19T09:20:37Z</time>
      </trkpt>
      <trkpt lat="43.3184" lon="5.53759">
        <ele>312</ele>
        <time>2020-02-19T09:20:45Z</time>
      </trkpt>
      <trkpt lat="43.31842" lon="5.53766">
        <ele>321</ele>
        <time>2020-02-19T09:20:55Z</time>
      </trkpt>
      <trkpt lat="43.31844" lon="5.53771">
        <ele>327</ele>
        <time>2020-02-19T09:21:05Z</time>
      </trkpt>
      <trkpt lat="43.31842" lon="5.53777">
        <ele>330</ele>
        <time>2020-02-19T09:21:13Z</time>
      </trkpt>
      <trkpt lat="43.31845" lon="5.53782">
        <ele>330</ele>
        <time>2020-02-19T09:21:27Z</time>
      </trkpt>
      <trkpt lat="43.31848" lon="5.53788">
        <ele>332</ele>
        <time>2020-02-19T09:21:35Z</time>
      </trkpt>
      <trkpt lat="43.31852" lon="5.53792">
        <ele>332</ele>
        <time>2020-02-19T09:21:43Z</time>
      </trkpt>
      <trkpt lat="43.31854" lon="5.53798">
        <ele>336</ele>
        <time>2020-02-19T09:21:51Z</time>
      </trkpt>
      <trkpt lat="43.31857" lon="5.53803">
        <ele>336</ele>
        <time>2020-02-19T09:21:59Z</time>
      </trkpt>
      <trkpt lat="43.31859" lon="5.53809">
        <ele>337</ele>
        <time>2020-02-19T09:22:07Z</time>
      </trkpt>
      <trkpt lat="43.31863" lon="5.53815">
        <ele>339</ele>
        <time>2020-02-19T09:22:13Z</time>
      </trkpt>
      <trkpt lat="43.31866" lon="5.53821">
        <ele>337</ele>
        <time>2020-02-19T09:22:25Z</time>
      </trkpt>
      <trkpt lat="43.3187" lon="5.53824">
        <ele>339</ele>
        <time>2020-02-19T09:22:33Z</time>
      </trkpt>
      <trkpt lat="43.31874" lon="5.5383">
        <ele>342</ele>
        <time>2020-02-19T09:22:47Z</time>
      </trkpt>
      <trkpt lat="43.31876" lon="5.53836">
        <ele>343</ele>
        <time>2020-02-19T09:22:59Z</time>
      </trkpt>
      <trkpt lat="43.3188" lon="5.53841">
        <ele>344</ele>
        <time>2020-02-19T09:23:05Z</time>
      </trkpt>
      <trkpt lat="43.31884" lon="5.53845">
        <ele>346</ele>
        <time>2020-02-19T09:23:13Z</time>
      </trkpt>
      <trkpt lat="43.31888" lon="5.53851">
        <ele>351</ele>
        <time>2020-02-19T09:23:21Z</time>
      </trkpt>
      <trkpt lat="43.31888" lon="5.53858">
        <ele>352</ele>
        <time>2020-02-19T09:23:29Z</time>
      </trkpt>
      <trkpt lat="43.31892" lon="5.5386">
        <ele>348</ele>
        <time>2020-02-19T09:23:39Z</time>
      </trkpt>
      <trkpt lat="43.31895" lon="5.53866">
        <ele>350</ele>
        <time>2020-02-19T09:23:45Z</time>
      </trkpt>
      <trkpt lat="43.31899" lon="5.5387">
        <ele>350</ele>
        <time>2020-02-19T09:23:51Z</time>
      </trkpt>
      <trkpt lat="43.31902" lon="5.53877">
        <ele>351</ele>
        <time>2020-02-19T09:23:59Z</time>
      </trkpt>
      <trkpt lat="43.31904" lon="5.53882">
        <ele>351</ele>
        <time>2020-02-19T09:24:07Z</time>
      </trkpt>
      <trkpt lat="43.31906" lon="5.53891">
        <ele>353</ele>
        <time>2020-02-19T09:24:19Z</time>
      </trkpt>
      <trkpt lat="43.31908" lon="5.53899">
        <ele>356</ele>
        <time>2020-02-19T09:24:25Z</time>
      </trkpt>
      <trkpt lat="43.31911" lon="5.53904">
        <ele>352</ele>
        <time>2020-02-19T09:24:35Z</time>
      </trkpt>
      <trkpt lat="43.31912" lon="5.53911">
        <ele>354</ele>
        <time>2020-02-19T09:24:43Z</time>
      </trkpt>
      <trkpt lat="43.31911" lon="5.53918">
        <ele>355</ele>
        <time>2020-02-19T09:25:01Z</time>
      </trkpt>
      <trkpt lat="43.31915" lon="5.53921">
        <ele>351</ele>
        <time>2020-02-19T09:26:41Z</time>
      </trkpt>
      <trkpt lat="43.31914" lon="5.53929">
        <ele>354</ele>
        <time>2020-02-19T09:27:23Z</time>
      </trkpt>
      <trkpt lat="43.31914" lon="5.53936">
        <ele>353</ele>
        <time>2020-02-19T09:27:29Z</time>
      </trkpt>
      <trkpt lat="43.31913" lon="5.53944">
        <ele>352</ele>
        <time>2020-02-19T09:27:35Z</time>
      </trkpt>
      <trkpt lat="43.31912" lon="5.53951">
        <ele>349</ele>
        <time>2020-02-19T09:27:41Z</time>
      </trkpt>
      <trkpt lat="43.31911" lon="5.53958">
        <ele>351</ele>
        <time>2020-02-19T09:27:47Z</time>
      </trkpt>
      <trkpt lat="43.31911" lon="5.53965">
        <ele>351</ele>
        <time>2020-02-19T09:27:53Z</time>
      </trkpt>
      <trkpt lat="43.31912" lon="5.53974">
        <ele>350</ele>
        <time>2020-02-19T09:27:59Z</time>
      </trkpt>
      <trkpt lat="43.31912" lon="5.53982">
        <ele>352</ele>
        <time>2020-02-19T09:28:07Z</time>
      </trkpt>
      <trkpt lat="43.31912" lon="5.53989">
        <ele>353</ele>
        <time>2020-02-19T09:28:13Z</time>
      </trkpt>
      <trkpt lat="43.31911" lon="5.53995">
        <ele>351</ele>
        <time>2020-02-19T09:28:19Z</time>
      </trkpt>
      <trkpt lat="43.31912" lon="5.54002">
        <ele>352</ele>
        <time>2020-02-19T09:28:27Z</time>
      </trkpt>
      <trkpt lat="43.31911" lon="5.54009">
        <ele>354</ele>
        <time>2020-02-19T09:28:33Z</time>
      </trkpt>
      <trkpt lat="43.31911" lon="5.54017">
        <ele>355</ele>
        <time>2020-02-19T09:28:39Z</time>
      </trkpt>
      <trkpt lat="43.3191" lon="5.54023">
        <ele>355</ele>
        <time>2020-02-19T09:28:45Z</time>
      </trkpt>
      <trkpt lat="43.31911" lon="5.54031">
        <ele>355</ele>
        <time>2020-02-19T09:28:55Z</time>
      </trkpt>
      <trkpt lat="43.31912" lon="5.54037">
        <ele>355</ele>
        <time>2020-02-19T09:29:03Z</time>
      </trkpt>
      <trkpt lat="43.31911" lon="5.54046">
        <ele>359</ele>
        <time>2020-02-19T09:29:11Z</time>
      </trkpt>
      <trkpt lat="43.31911" lon="5.54052">
        <ele>361</ele>
        <time>2020-02-19T09:29:17Z</time>
      </trkpt>
      <trkpt lat="43.31915" lon="5.54056">
        <ele>362</ele>
        <time>2020-02-19T09:29:25Z</time>
      </trkpt>
      <trkpt lat="43.3192" lon="5.54054">
        <ele>362</ele>
        <time>2020-02-19T09:29:33Z</time>
      </trkpt>
      <trkpt lat="43.31921" lon="5.54047">
        <ele>362</ele>
        <time>2020-02-19T09:29:39Z</time>
      </trkpt>
      <trkpt lat="43.31924" lon="5.54039">
        <ele>361</ele>
        <time>2020-02-19T09:29:47Z</time>
      </trkpt>
      <trkpt lat="43.31926" lon="5.54033">
        <ele>362</ele>
        <time>2020-02-19T09:29:51Z</time>
      </trkpt>
      <trkpt lat="43.31929" lon="5.54028">
        <ele>364</ele>
        <time>2020-02-19T09:29:57Z</time>
      </trkpt>
      <trkpt lat="43.31932" lon="5.54022">
        <ele>364</ele>
        <time>2020-02-19T09:30:03Z</time>
      </trkpt>
      <trkpt lat="43.31935" lon="5.54016">
        <ele>363</ele>
        <time>2020-02-19T09:30:09Z</time>
      </trkpt>
      <trkpt lat="43.31937" lon="5.5401">
        <ele>364</ele>
        <time>2020-02-19T09:30:15Z</time>
      </trkpt>
      <trkpt lat="43.31942" lon="5.54005">
        <ele>361</ele>
        <time>2020-02-19T09:30:23Z</time>
      </trkpt>
      <trkpt lat="43.31943" lon="5.53998">
        <ele>363</ele>
        <time>2020-02-19T09:30:31Z</time>
      </trkpt>
      <trkpt lat="43.31945" lon="5.53991">
        <ele>364</ele>
        <time>2020-02-19T09:30:37Z</time>
      </trkpt>
      <trkpt lat="43.31946" lon="5.53983">
        <ele>363</ele>
        <time>2020-02-19T09:30:43Z</time>
      </trkpt>
      <trkpt lat="43.31947" lon="5.53975">
        <ele>364</ele>
        <time>2020-02-19T09:30:49Z</time>
      </trkpt>
      <trkpt lat="43.31948" lon="5.53968">
        <ele>364</ele>
        <time>2020-02-19T09:30:57Z</time>
      </trkpt>
      <trkpt lat="43.31949" lon="5.53961">
        <ele>364</ele>
        <time>2020-02-19T09:31:03Z</time>
      </trkpt>
      <trkpt lat="43.31949" lon="5.53954">
        <ele>365</ele>
        <time>2020-02-19T09:31:09Z</time>
      </trkpt>
      <trkpt lat="43.31951" lon="5.53949">
        <ele>365</ele>
        <time>2020-02-19T09:31:15Z</time>
      </trkpt>
      <trkpt lat="43.31956" lon="5.53946">
        <ele>363</ele>
        <time>2020-02-19T09:31:23Z</time>
      </trkpt>
      <trkpt lat="43.31958" lon="5.53942">
        <ele>367</ele>
        <time>2020-02-19T09:31:35Z</time>
      </trkpt>
      <trkpt lat="43.3196" lon="5.53935">
        <ele>368</ele>
        <time>2020-02-19T09:31:43Z</time>
      </trkpt>
      <trkpt lat="43.31961" lon="5.53928">
        <ele>372</ele>
        <time>2020-02-19T09:31:55Z</time>
      </trkpt>
      <trkpt lat="43.31962" lon="5.53921">
        <ele>375</ele>
        <time>2020-02-19T09:32:05Z</time>
      </trkpt>
      <trkpt lat="43.31964" lon="5.53914">
        <ele>375</ele>
        <time>2020-02-19T09:32:15Z</time>
      </trkpt>
      <trkpt lat="43.31964" lon="5.53906">
        <ele>375</ele>
        <time>2020-02-19T09:32:23Z</time>
      </trkpt>
      <trkpt lat="43.31964" lon="5.539">
        <ele>374</ele>
        <time>2020-02-19T09:32:29Z</time>
      </trkpt>
      <trkpt lat="43.31966" lon="5.53894">
        <ele>376</ele>
        <time>2020-02-19T09:32:37Z</time>
      </trkpt>
      <trkpt lat="43.31969" lon="5.53899">
        <ele>379</ele>
        <time>2020-02-19T09:32:51Z</time>
      </trkpt>
      <trkpt lat="43.31973" lon="5.53905">
        <ele>382</ele>
        <time>2020-02-19T09:33:01Z</time>
      </trkpt>
      <trkpt lat="43.31977" lon="5.53909">
        <ele>384</ele>
        <time>2020-02-19T09:33:13Z</time>
      </trkpt>
      <trkpt lat="43.31982" lon="5.53913">
        <ele>386</ele>
        <time>2020-02-19T09:33:21Z</time>
      </trkpt>
      <trkpt lat="43.31986" lon="5.53918">
        <ele>387</ele>
        <time>2020-02-19T09:33:31Z</time>
      </trkpt>
      <trkpt lat="43.31988" lon="5.53924">
        <ele>390</ele>
        <time>2020-02-19T09:33:39Z</time>
      </trkpt>
      <trkpt lat="43.31991" lon="5.5393">
        <ele>390</ele>
        <time>2020-02-19T09:33:49Z</time>
      </trkpt>
      <trkpt lat="43.31993" lon="5.53936">
        <ele>393</ele>
        <time>2020-02-19T09:33:59Z</time>
      </trkpt>
      <trkpt lat="43.31996" lon="5.53942">
        <ele>392</ele>
        <time>2020-02-19T09:34:07Z</time>
      </trkpt>
      <trkpt lat="43.31999" lon="5.53947">
        <ele>394</ele>
        <time>2020-02-19T09:34:13Z</time>
      </trkpt>
      <trkpt lat="43.32" lon="5.53954">
        <ele>394</ele>
        <time>2020-02-19T09:34:21Z</time>
      </trkpt>
      <trkpt lat="43.32003" lon="5.53959">
        <ele>395</ele>
        <time>2020-02-19T09:34:29Z</time>
      </trkpt>
      <trkpt lat="43.32007" lon="5.53964">
        <ele>395</ele>
        <time>2020-02-19T09:34:39Z</time>
      </trkpt>
      <trkpt lat="43.3201" lon="5.53959">
        <ele>401</ele>
        <time>2020-02-19T09:36:53Z</time>
      </trkpt>
      <trkpt lat="43.32015" lon="5.53957">
        <ele>401</ele>
        <time>2020-02-19T09:37:01Z</time>
      </trkpt>
      <trkpt lat="43.32018" lon="5.53953">
        <ele>403</ele>
        <time>2020-02-19T09:37:17Z</time>
      </trkpt>
      <trkpt lat="43.32023" lon="5.53957">
        <ele>405</ele>
        <time>2020-02-19T09:37:35Z</time>
      </trkpt>
      <trkpt lat="43.32026" lon="5.53964">
        <ele>406</ele>
        <time>2020-02-19T09:37:43Z</time>
      </trkpt>
      <trkpt lat="43.32029" lon="5.53969">
        <ele>408</ele>
        <time>2020-02-19T09:37:51Z</time>
      </trkpt>
      <trkpt lat="43.32033" lon="5.53973">
        <ele>409</ele>
        <time>2020-02-19T09:37:59Z</time>
      </trkpt>
      <trkpt lat="43.32037" lon="5.53979">
        <ele>410</ele>
        <time>2020-02-19T09:38:13Z</time>
      </trkpt>
      <trkpt lat="43.32042" lon="5.53981">
        <ele>410</ele>
        <time>2020-02-19T09:38:23Z</time>
      </trkpt>
      <trkpt lat="43.32046" lon="5.53984">
        <ele>412</ele>
        <time>2020-02-19T09:38:33Z</time>
      </trkpt>
      <trkpt lat="43.32051" lon="5.53986">
        <ele>412</ele>
        <time>2020-02-19T09:38:41Z</time>
      </trkpt>
      <trkpt lat="43.32053" lon="5.53992">
        <ele>412</ele>
        <time>2020-02-19T09:39:47Z</time>
      </trkpt>
      <trkpt lat="43.32055" lon="5.53998">
        <ele>415</ele>
        <time>2020-02-19T09:39:55Z</time>
      </trkpt>
      <trkpt lat="43.32059" lon="5.53993">
        <ele>417</ele>
        <time>2020-02-19T09:40:15Z</time>
      </trkpt>
      <trkpt lat="43.32058" lon="5.53986">
        <ele>420</ele>
        <time>2020-02-19T09:40:27Z</time>
      </trkpt>
      <trkpt lat="43.32058" lon="5.5398">
        <ele>420</ele>
        <time>2020-02-19T09:40:37Z</time>
      </trkpt>
      <trkpt lat="43.32059" lon="5.53972">
        <ele>424</ele>
        <time>2020-02-19T09:40:51Z</time>
      </trkpt>
      <trkpt lat="43.32059" lon="5.53965">
        <ele>428</ele>
        <time>2020-02-19T09:41:15Z</time>
      </trkpt>
      <trkpt lat="43.32056" lon="5.53959">
        <ele>431</ele>
        <time>2020-02-19T09:41:21Z</time>
      </trkpt>
      <trkpt lat="43.32056" lon="5.53952">
        <ele>430</ele>
        <time>2020-02-19T09:41:31Z</time>
      </trkpt>
      <trkpt lat="43.32057" lon="5.53946">
        <ele>428</ele>
        <time>2020-02-19T09:41:41Z</time>
      </trkpt>
      <trkpt lat="43.32059" lon="5.53939">
        <ele>430</ele>
        <time>2020-02-19T09:41:53Z</time>
      </trkpt>
      <trkpt lat="43.32062" lon="5.53935">
        <ele>432</ele>
        <time>2020-02-19T09:42:15Z</time>
      </trkpt>
      <trkpt lat="43.32063" lon="5.53928">
        <ele>434</ele>
        <time>2020-02-19T09:42:31Z</time>
      </trkpt>
      <trkpt lat="43.32068" lon="5.53927">
        <ele>438</ele>
        <time>2020-02-19T09:42:47Z</time>
      </trkpt>
      <trkpt lat="43.32072" lon="5.53931">
        <ele>437</ele>
        <time>2020-02-19T09:42:59Z</time>
      </trkpt>
      <trkpt lat="43.32077" lon="5.53929">
        <ele>439</ele>
        <time>2020-02-19T09:43:19Z</time>
      </trkpt>
      <trkpt lat="43.32081" lon="5.53932">
        <ele>437</ele>
        <time>2020-02-19T09:43:29Z</time>
      </trkpt>
      <trkpt lat="43.32086" lon="5.53932">
        <ele>439</ele>
        <time>2020-02-19T09:43:45Z</time>
      </trkpt>
      <trkpt lat="43.3209" lon="5.53934">
        <ele>441</ele>
        <time>2020-02-19T09:44:37Z</time>
      </trkpt>
      <trkpt lat="43.32089" lon="5.53926">
        <ele>443</ele>
        <time>2020-02-19T09:44:55Z</time>
      </trkpt>
      <trkpt lat="43.32092" lon="5.53922">
        <ele>444</ele>
        <time>2020-02-19T09:45:09Z</time>
      </trkpt>
      <trkpt lat="43.32097" lon="5.53924">
        <ele>447</ele>
        <time>2020-02-19T09:45:15Z</time>
      </trkpt>
      <trkpt lat="43.32102" lon="5.53922">
        <ele>451</ele>
        <time>2020-02-19T09:45:27Z</time>
      </trkpt>
      <trkpt lat="43.32107" lon="5.53923">
        <ele>451</ele>
        <time>2020-02-19T09:45:43Z</time>
      </trkpt>
      <trkpt lat="43.32112" lon="5.53925">
        <ele>455</ele>
        <time>2020-02-19T09:45:55Z</time>
      </trkpt>
      <trkpt lat="43.32115" lon="5.5392">
        <ele>458</ele>
        <time>2020-02-19T09:46:11Z</time>
      </trkpt>
      <trkpt lat="43.3212" lon="5.53921">
        <ele>460</ele>
        <time>2020-02-19T09:46:23Z</time>
      </trkpt>
      <trkpt lat="43.32125" lon="5.53923">
        <ele>459</ele>
        <time>2020-02-19T09:46:31Z</time>
      </trkpt>
      <trkpt lat="43.32129" lon="5.53926">
        <ele>462</ele>
        <time>2020-02-19T09:46:39Z</time>
      </trkpt>
      <trkpt lat="43.32134" lon="5.53928">
        <ele>463</ele>
        <time>2020-02-19T09:47:15Z</time>
      </trkpt>
      <trkpt lat="43.32138" lon="5.53924">
        <ele>463</ele>
        <time>2020-02-19T09:47:29Z</time>
      </trkpt>
      <trkpt lat="43.32142" lon="5.5392">
        <ele>464</ele>
        <time>2020-02-19T09:47:35Z</time>
      </trkpt>
      <trkpt lat="43.32144" lon="5.53913">
        <ele>465</ele>
        <time>2020-02-19T09:47:51Z</time>
      </trkpt>
      <trkpt lat="43.32145" lon="5.53907">
        <ele>464</ele>
        <time>2020-02-19T09:48:01Z</time>
      </trkpt>
      <trkpt lat="43.32146" lon="5.53899">
        <ele>465</ele>
        <time>2020-02-19T09:48:07Z</time>
      </trkpt>
      <trkpt lat="43.32147" lon="5.53893">
        <ele>466</ele>
        <time>2020-02-19T09:48:13Z</time>
      </trkpt>
      <trkpt lat="43.32143" lon="5.53894">
        <ele>472</ele>
        <time>2020-02-19T09:49:53Z</time>
      </trkpt>
      <trkpt lat="43.32138" lon="5.53895">
        <ele>477</ele>
        <time>2020-02-19T09:50:41Z</time>
      </trkpt>
      <trkpt lat="43.32142" lon="5.53896">
        <ele>462</ele>
        <time>2020-02-19T09:57:37Z</time>
      </trkpt>
      <trkpt lat="43.32148" lon="5.53897">
        <ele>461</ele>
        <time>2020-02-19T09:59:19Z</time>
      </trkpt>
      <trkpt lat="43.32154" lon="5.53899">
        <ele>459</ele>
        <time>2020-02-19T09:59:29Z</time>
      </trkpt>
      <trkpt lat="43.32159" lon="5.53896">
        <ele>460</ele>
        <time>2020-02-19T09:59:45Z</time>
      </trkpt>
      <trkpt lat="43.32162" lon="5.53892">
        <ele>461</ele>
        <time>2020-02-19T09:59:49Z</time>
      </trkpt>
      <trkpt lat="43.32167" lon="5.53891">
        <ele>462</ele>
        <time>2020-02-19T09:59:53Z</time>
      </trkpt>
      <trkpt lat="43.32173" lon="5.5389">
        <ele>462</ele>
        <time>2020-02-19T10:00:05Z</time>
      </trkpt>
      <trkpt lat="43.32176" lon="5.53884">
        <ele>463</ele>
        <time>2020-02-19T10:00:13Z</time>
      </trkpt>
      <trkpt lat="43.32178" lon="5.53877">
        <ele>464</ele>
        <time>2020-02-19T10:00:19Z</time>
      </trkpt>
      <trkpt lat="43.32181" lon="5.53872">
        <ele>465</ele>
        <time>2020-02-19T10:00:27Z</time>
      </trkpt>
      <trkpt lat="43.32182" lon="5.53863">
        <ele>465</ele>
        <time>2020-02-19T10:00:35Z</time>
      </trkpt>
      <trkpt lat="43.32183" lon="5.53857">
        <ele>465</ele>
        <time>2020-02-19T10:00:43Z</time>
      </trkpt>
      <trkpt lat="43.32184" lon="5.5385">
        <ele>465</ele>
        <time>2020-02-19T10:00:49Z</time>
      </trkpt>
      <trkpt lat="43.32184" lon="5.53844">
        <ele>466</ele>
        <time>2020-02-19T10:00:57Z</time>
      </trkpt>
      <trkpt lat="43.32188" lon="5.53841">
        <ele>468</ele>
        <time>2020-02-19T10:01:07Z</time>
      </trkpt>
      <trkpt lat="43.32193" lon="5.53839">
        <ele>469</ele>
        <time>2020-02-19T10:01:11Z</time>
      </trkpt>
      <trkpt lat="43.32196" lon="5.53834">
        <ele>471</ele>
        <time>2020-02-19T10:01:17Z</time>
      </trkpt>
      <trkpt lat="43.32195" lon="5.53827">
        <ele>471</ele>
        <time>2020-02-19T10:01:25Z</time>
      </trkpt>
      <trkpt lat="43.32197" lon="5.5382">
        <ele>472</ele>
        <time>2020-02-19T10:01:31Z</time>
      </trkpt>
      <trkpt lat="43.32202" lon="5.53817">
        <ele>472</ele>
        <time>2020-02-19T10:01:47Z</time>
      </trkpt>
      <trkpt lat="43.32209" lon="5.53816">
        <ele>472</ele>
        <time>2020-02-19T10:01:51Z</time>
      </trkpt>
      <trkpt lat="43.32212" lon="5.53811">
        <ele>475</ele>
        <time>2020-02-19T10:02:01Z</time>
      </trkpt>
      <trkpt lat="43.32215" lon="5.53804">
        <ele>474</ele>
        <time>2020-02-19T10:02:11Z</time>
      </trkpt>
      <trkpt lat="43.32218" lon="5.538">
        <ele>472</ele>
        <time>2020-02-19T10:02:23Z</time>
      </trkpt>
      <trkpt lat="43.32225" lon="5.53798">
        <ele>473</ele>
        <time>2020-02-19T10:02:33Z</time>
      </trkpt>
      <trkpt lat="43.32227" lon="5.53792">
        <ele>476</ele>
        <time>2020-02-19T10:03:15Z</time>
      </trkpt>
      <trkpt lat="43.32231" lon="5.53788">
        <ele>480</ele>
        <time>2020-02-19T10:03:25Z</time>
      </trkpt>
      <trkpt lat="43.32236" lon="5.53785">
        <ele>482</ele>
        <time>2020-02-19T10:03:35Z</time>
      </trkpt>
      <trkpt lat="43.32239" lon="5.53779">
        <ele>484</ele>
        <time>2020-02-19T10:03:43Z</time>
      </trkpt>
      <trkpt lat="43.32237" lon="5.53773">
        <ele>482</ele>
        <time>2020-02-19T10:03:47Z</time>
      </trkpt>
      <trkpt lat="43.32239" lon="5.53766">
        <ele>484</ele>
        <time>2020-02-19T10:03:57Z</time>
      </trkpt>
      <trkpt lat="43.32244" lon="5.53762">
        <ele>483</ele>
        <time>2020-02-19T10:04:07Z</time>
      </trkpt>
      <trkpt lat="43.32248" lon="5.53758">
        <ele>482</ele>
        <time>2020-02-19T10:04:21Z</time>
      </trkpt>
      <trkpt lat="43.32251" lon="5.53751">
        <ele>486</ele>
        <time>2020-02-19T10:04:29Z</time>
      </trkpt>
      <trkpt lat="43.32253" lon="5.53745">
        <ele>486</ele>
        <time>2020-02-19T10:04:37Z</time>
      </trkpt>
      <trkpt lat="43.32256" lon="5.53739">
        <ele>488</ele>
        <time>2020-02-19T10:04:45Z</time>
      </trkpt>
      <trkpt lat="43.3226" lon="5.53733">
        <ele>490</ele>
        <time>2020-02-19T10:04:55Z</time>
      </trkpt>
      <trkpt lat="43.32265" lon="5.5373">
        <ele>490</ele>
        <time>2020-02-19T10:05:11Z</time>
      </trkpt>
      <trkpt lat="43.32271" lon="5.53731">
        <ele>492</ele>
        <time>2020-02-19T10:05:19Z</time>
      </trkpt>
      <trkpt lat="43.32275" lon="5.53735">
        <ele>493</ele>
        <time>2020-02-19T10:05:31Z</time>
      </trkpt>
      <trkpt lat="43.32279" lon="5.53735">
        <ele>494</ele>
        <time>2020-02-19T10:05:35Z</time>
      </trkpt>
      <trkpt lat="43.32285" lon="5.53734">
        <ele>492</ele>
        <time>2020-02-19T10:05:51Z</time>
      </trkpt>
      <trkpt lat="43.32291" lon="5.53736">
        <ele>493</ele>
        <time>2020-02-19T10:05:59Z</time>
      </trkpt>
      <trkpt lat="43.32295" lon="5.53735">
        <ele>494</ele>
        <time>2020-02-19T10:06:07Z</time>
      </trkpt>
      <trkpt lat="43.32297" lon="5.53729">
        <ele>495</ele>
        <time>2020-02-19T10:06:43Z</time>
      </trkpt>
      <trkpt lat="43.32299" lon="5.53722">
        <ele>494</ele>
        <time>2020-02-19T10:06:57Z</time>
      </trkpt>
      <trkpt lat="43.32302" lon="5.53716">
        <ele>496</ele>
        <time>2020-02-19T10:07:03Z</time>
      </trkpt>
      <trkpt lat="43.32308" lon="5.53714">
        <ele>501</ele>
        <time>2020-02-19T10:07:09Z</time>
      </trkpt>
      <trkpt lat="43.32313" lon="5.53714">
        <ele>500</ele>
        <time>2020-02-19T10:07:15Z</time>
      </trkpt>
      <trkpt lat="43.32318" lon="5.53712">
        <ele>501</ele>
        <time>2020-02-19T10:07:23Z</time>
      </trkpt>
      <trkpt lat="43.32323" lon="5.53712">
        <ele>502</ele>
        <time>2020-02-19T10:07:29Z</time>
      </trkpt>
      <trkpt lat="43.32328" lon="5.53714">
        <ele>503</ele>
        <time>2020-02-19T10:07:33Z</time>
      </trkpt>
      <trkpt lat="43.32333" lon="5.53719">
        <ele>499</ele>
        <time>2020-02-19T10:07:43Z</time>
      </trkpt>
      <trkpt lat="43.32338" lon="5.5372">
        <ele>501</ele>
        <time>2020-02-19T10:07:49Z</time>
      </trkpt>
      <trkpt lat="43.32343" lon="5.53721">
        <ele>500</ele>
        <time>2020-02-19T10:07:57Z</time>
      </trkpt>
      <trkpt lat="43.32348" lon="5.53723">
        <ele>499</ele>
        <time>2020-02-19T10:08:03Z</time>
      </trkpt>
      <trkpt lat="43.32353" lon="5.53724">
        <ele>500</ele>
        <time>2020-02-19T10:08:09Z</time>
      </trkpt>
      <trkpt lat="43.32358" lon="5.53725">
        <ele>502</ele>
        <time>2020-02-19T10:08:13Z</time>
      </trkpt>
      <trkpt lat="43.32364" lon="5.53726">
        <ele>503</ele>
        <time>2020-02-19T10:08:19Z</time>
      </trkpt>
      <trkpt lat="43.3237" lon="5.53727">
        <ele>503</ele>
        <time>2020-02-19T10:08:25Z</time>
      </trkpt>
      <trkpt lat="43.32375" lon="5.53726">
        <ele>504</ele>
        <time>2020-02-19T10:08:31Z</time>
      </trkpt>
      <trkpt lat="43.3238" lon="5.53726">
        <ele>504</ele>
        <time>2020-02-19T10:08:37Z</time>
      </trkpt>
      <trkpt lat="43.32386" lon="5.53728">
        <ele>504</ele>
        <time>2020-02-19T10:08:43Z</time>
      </trkpt>
      <trkpt lat="43.32391" lon="5.53728">
        <ele>506</ele>
        <time>2020-02-19T10:08:47Z</time>
      </trkpt>
      <trkpt lat="43.32396" lon="5.53727">
        <ele>506</ele>
        <time>2020-02-19T10:08:53Z</time>
      </trkpt>
      <trkpt lat="43.32402" lon="5.53727">
        <ele>507</ele>
        <time>2020-02-19T10:08:59Z</time>
      </trkpt>
      <trkpt lat="43.32407" lon="5.53727">
        <ele>507</ele>
        <time>2020-02-19T10:09:05Z</time>
      </trkpt>
      <trkpt lat="43.32412" lon="5.53728">
        <ele>506</ele>
        <time>2020-02-19T10:09:11Z</time>
      </trkpt>
      <trkpt lat="43.32418" lon="5.53728">
        <ele>506</ele>
        <time>2020-02-19T10:09:19Z</time>
      </trkpt>
      <trkpt lat="43.32422" lon="5.53727">
        <ele>506</ele>
        <time>2020-02-19T10:09:25Z</time>
      </trkpt>
      <trkpt lat="43.32427" lon="5.53728">
        <ele>507</ele>
        <time>2020-02-19T10:09:33Z</time>
      </trkpt>
      <trkpt lat="43.32433" lon="5.5373">
        <ele>506</ele>
        <time>2020-02-19T10:09:41Z</time>
      </trkpt>
      <trkpt lat="43.32439" lon="5.53731">
        <ele>505</ele>
        <time>2020-02-19T10:09:47Z</time>
      </trkpt>
      <trkpt lat="43.32445" lon="5.53732">
        <ele>503</ele>
        <time>2020-02-19T10:09:53Z</time>
      </trkpt>
      <trkpt lat="43.3245" lon="5.5373">
        <ele>503</ele>
        <time>2020-02-19T10:09:59Z</time>
      </trkpt>
      <trkpt lat="43.32455" lon="5.5373">
        <ele>501</ele>
        <time>2020-02-19T10:10:07Z</time>
      </trkpt>
      <trkpt lat="43.32461" lon="5.53731">
        <ele>500</ele>
        <time>2020-02-19T10:10:11Z</time>
      </trkpt>
      <trkpt lat="43.32466" lon="5.53732">
        <ele>501</ele>
        <time>2020-02-19T10:10:19Z</time>
      </trkpt>
      <trkpt lat="43.32472" lon="5.53731">
        <ele>505</ele>
        <time>2020-02-19T10:10:23Z</time>
      </trkpt>
      <trkpt lat="43.32478" lon="5.5373">
        <ele>504</ele>
        <time>2020-02-19T10:10:31Z</time>
      </trkpt>
      <trkpt lat="43.32484" lon="5.53729">
        <ele>504</ele>
        <time>2020-02-19T10:10:39Z</time>
      </trkpt>
      <trkpt lat="43.32489" lon="5.53728">
        <ele>503</ele>
        <time>2020-02-19T10:10:45Z</time>
      </trkpt>
      <trkpt lat="43.32495" lon="5.53728">
        <ele>503</ele>
        <time>2020-02-19T10:10:51Z</time>
      </trkpt>
      <trkpt lat="43.32499" lon="5.53728">
        <ele>505</ele>
        <time>2020-02-19T10:10:55Z</time>
      </trkpt>
      <trkpt lat="43.32504" lon="5.5373">
        <ele>509</ele>
        <time>2020-02-19T10:11:07Z</time>
      </trkpt>
      <trkpt lat="43.325" lon="5.53727">
        <ele>507</ele>
        <time>2020-02-19T10:13:13Z</time>
      </trkpt>
      <trkpt lat="43.32496" lon="5.53732">
        <ele>506</ele>
        <time>2020-02-19T10:13:55Z</time>
      </trkpt>
      <trkpt lat="43.32501" lon="5.5373">
        <ele>329.39999389648</ele>
        <time>2020-02-19T10:18:43Z</time>
      </trkpt>
      <trkpt lat="43.32505" lon="5.53733">
        <ele>508</ele>
        <time>2020-02-19T10:19:01Z</time>
      </trkpt>
      <trkpt lat="43.3251" lon="5.53733">
        <ele>511</ele>
        <time>2020-02-19T10:19:11Z</time>
      </trkpt>
      <trkpt lat="43.32516" lon="5.53733">
        <ele>513</ele>
        <time>2020-02-19T10:19:17Z</time>
      </trkpt>
      <trkpt lat="43.32522" lon="5.53733">
        <ele>513</ele>
        <time>2020-02-19T10:19:21Z</time>
      </trkpt>
      <trkpt lat="43.32527" lon="5.53732">
        <ele>513</ele>
        <time>2020-02-19T10:19:31Z</time>
      </trkpt>
      <trkpt lat="43.32532" lon="5.53734">
        <ele>513</ele>
        <time>2020-02-19T10:19:39Z</time>
      </trkpt>
      <trkpt lat="43.32536" lon="5.53735">
        <ele>513</ele>
        <time>2020-02-19T10:19:43Z</time>
      </trkpt>
      <trkpt lat="43.32541" lon="5.53735">
        <ele>515</ele>
        <time>2020-02-19T10:19:51Z</time>
      </trkpt>
      <trkpt lat="43.32547" lon="5.53738">
        <ele>512</ele>
        <time>2020-02-19T10:20:01Z</time>
      </trkpt>
      <trkpt lat="43.32552" lon="5.5374">
        <ele>511</ele>
        <time>2020-02-19T10:20:07Z</time>
      </trkpt>
      <trkpt lat="43.32556" lon="5.53743">
        <ele>511</ele>
        <time>2020-02-19T10:20:13Z</time>
      </trkpt>
      <trkpt lat="43.32561" lon="5.53749">
        <ele>514</ele>
        <time>2020-02-19T10:20:21Z</time>
      </trkpt>
      <trkpt lat="43.32566" lon="5.53752">
        <ele>515</ele>
        <time>2020-02-19T10:20:25Z</time>
      </trkpt>
      <trkpt lat="43.32572" lon="5.53757">
        <ele>517</ele>
        <time>2020-02-19T10:20:31Z</time>
      </trkpt>
      <trkpt lat="43.32572" lon="5.53765">
        <ele>517</ele>
        <time>2020-02-19T10:20:37Z</time>
      </trkpt>
      <trkpt lat="43.32572" lon="5.53772">
        <ele>519</ele>
        <time>2020-02-19T10:20:43Z</time>
      </trkpt>
      <trkpt lat="43.32573" lon="5.5378">
        <ele>521</ele>
        <time>2020-02-19T10:20:51Z</time>
      </trkpt>
      <trkpt lat="43.32575" lon="5.53787">
        <ele>521</ele>
        <time>2020-02-19T10:20:57Z</time>
      </trkpt>
      <trkpt lat="43.32577" lon="5.53794">
        <ele>520</ele>
        <time>2020-02-19T10:21:05Z</time>
      </trkpt>
      <trkpt lat="43.32581" lon="5.53798">
        <ele>518</ele>
        <time>2020-02-19T10:21:15Z</time>
      </trkpt>
      <trkpt lat="43.32585" lon="5.53805">
        <ele>519</ele>
        <time>2020-02-19T10:21:23Z</time>
      </trkpt>
      <trkpt lat="43.32587" lon="5.53813">
        <ele>521</ele>
        <time>2020-02-19T10:21:29Z</time>
      </trkpt>
      <trkpt lat="43.32586" lon="5.53819">
        <ele>521</ele>
        <time>2020-02-19T10:21:35Z</time>
      </trkpt>
      <trkpt lat="43.32589" lon="5.53826">
        <ele>521</ele>
        <time>2020-02-19T10:21:43Z</time>
      </trkpt>
      <trkpt lat="43.32591" lon="5.53834">
        <ele>522</ele>
        <time>2020-02-19T10:21:51Z</time>
      </trkpt>
      <trkpt lat="43.32594" lon="5.5384">
        <ele>522</ele>
        <time>2020-02-19T10:21:59Z</time>
      </trkpt>
      <trkpt lat="43.32597" lon="5.53846">
        <ele>523</ele>
        <time>2020-02-19T10:22:07Z</time>
      </trkpt>
      <trkpt lat="43.326" lon="5.53851">
        <ele>525</ele>
        <time>2020-02-19T10:22:13Z</time>
      </trkpt>
      <trkpt lat="43.32603" lon="5.53856">
        <ele>525</ele>
        <time>2020-02-19T10:22:19Z</time>
      </trkpt>
      <trkpt lat="43.32605" lon="5.53863">
        <ele>526</ele>
        <time>2020-02-19T10:22:27Z</time>
      </trkpt>
      <trkpt lat="43.32608" lon="5.53869">
        <ele>529</ele>
        <time>2020-02-19T10:22:33Z</time>
      </trkpt>
      <trkpt lat="43.3261" lon="5.53875">
        <ele>529</ele>
        <time>2020-02-19T10:22:39Z</time>
      </trkpt>
      <trkpt lat="43.32612" lon="5.53882">
        <ele>531</ele>
        <time>2020-02-19T10:22:47Z</time>
      </trkpt>
      <trkpt lat="43.32614" lon="5.53889">
        <ele>531</ele>
        <time>2020-02-19T10:22:55Z</time>
      </trkpt>
      <trkpt lat="43.32613" lon="5.53896">
        <ele>528</ele>
        <time>2020-02-19T10:23:05Z</time>
      </trkpt>
      <trkpt lat="43.32613" lon="5.53903">
        <ele>527</ele>
        <time>2020-02-19T10:23:15Z</time>
      </trkpt>
      <trkpt lat="43.32616" lon="5.53909">
        <ele>530</ele>
        <time>2020-02-19T10:23:21Z</time>
      </trkpt>
      <trkpt lat="43.32622" lon="5.53912">
        <ele>532</ele>
        <time>2020-02-19T10:23:25Z</time>
      </trkpt>
      <trkpt lat="43.32626" lon="5.53917">
        <ele>533</ele>
        <time>2020-02-19T10:23:31Z</time>
      </trkpt>
      <trkpt lat="43.32631" lon="5.53922">
        <ele>529</ele>
        <time>2020-02-19T10:23:37Z</time>
      </trkpt>
      <trkpt lat="43.32635" lon="5.53928">
        <ele>534</ele>
        <time>2020-02-19T10:23:43Z</time>
      </trkpt>
      <trkpt lat="43.32635" lon="5.53934">
        <ele>537</ele>
        <time>2020-02-19T10:23:49Z</time>
      </trkpt>
      <trkpt lat="43.32636" lon="5.53941">
        <ele>537</ele>
        <time>2020-02-19T10:23:55Z</time>
      </trkpt>
      <trkpt lat="43.32638" lon="5.53948">
        <ele>538</ele>
        <time>2020-02-19T10:24:03Z</time>
      </trkpt>
      <trkpt lat="43.3264" lon="5.53956">
        <ele>538</ele>
        <time>2020-02-19T10:24:11Z</time>
      </trkpt>
      <trkpt lat="43.3264" lon="5.53963">
        <ele>537</ele>
        <time>2020-02-19T10:24:19Z</time>
      </trkpt>
      <trkpt lat="43.3264" lon="5.5397">
        <ele>538</ele>
        <time>2020-02-19T10:24:29Z</time>
      </trkpt>
      <trkpt lat="43.32643" lon="5.53976">
        <ele>539</ele>
        <time>2020-02-19T10:24:35Z</time>
      </trkpt>
      <trkpt lat="43.3265" lon="5.5398">
        <ele>540</ele>
        <time>2020-02-19T10:24:41Z</time>
      </trkpt>
      <trkpt lat="43.32654" lon="5.53984">
        <ele>539</ele>
        <time>2020-02-19T10:24:47Z</time>
      </trkpt>
      <trkpt lat="43.32659" lon="5.53985">
        <ele>542</ele>
        <time>2020-02-19T10:24:57Z</time>
      </trkpt>
      <trkpt lat="43.32664" lon="5.53988">
        <ele>544</ele>
        <time>2020-02-19T10:25:29Z</time>
      </trkpt>
      <trkpt lat="43.32669" lon="5.53991">
        <ele>545</ele>
        <time>2020-02-19T10:25:33Z</time>
      </trkpt>
      <trkpt lat="43.32674" lon="5.53993">
        <ele>545</ele>
        <time>2020-02-19T10:25:39Z</time>
      </trkpt>
      <trkpt lat="43.32679" lon="5.53995">
        <ele>545</ele>
        <time>2020-02-19T10:25:43Z</time>
      </trkpt>
      <trkpt lat="43.32683" lon="5.53998">
        <ele>545</ele>
        <time>2020-02-19T10:25:47Z</time>
      </trkpt>
      <trkpt lat="43.32688" lon="5.54002">
        <ele>545</ele>
        <time>2020-02-19T10:25:53Z</time>
      </trkpt>
      <trkpt lat="43.32692" lon="5.54005">
        <ele>548</ele>
        <time>2020-02-19T10:25:59Z</time>
      </trkpt>
      <trkpt lat="43.32698" lon="5.54006">
        <ele>549</ele>
        <time>2020-02-19T10:26:03Z</time>
      </trkpt>
      <trkpt lat="43.32703" lon="5.54003">
        <ele>552</ele>
        <time>2020-02-19T10:26:11Z</time>
      </trkpt>
      <trkpt lat="43.32709" lon="5.54002">
        <ele>557</ele>
        <time>2020-02-19T10:26:17Z</time>
      </trkpt>
      <trkpt lat="43.32712" lon="5.53997">
        <ele>555</ele>
        <time>2020-02-19T10:26:23Z</time>
      </trkpt>
      <trkpt lat="43.32718" lon="5.53994">
        <ele>554</ele>
        <time>2020-02-19T10:26:31Z</time>
      </trkpt>
      <trkpt lat="43.32721" lon="5.53988">
        <ele>556</ele>
        <time>2020-02-19T10:26:37Z</time>
      </trkpt>
      <trkpt lat="43.32722" lon="5.53978">
        <ele>556</ele>
        <time>2020-02-19T10:26:41Z</time>
      </trkpt>
      <trkpt lat="43.32725" lon="5.53974">
        <ele>557</ele>
        <time>2020-02-19T10:26:47Z</time>
      </trkpt>
      <trkpt lat="43.3273" lon="5.53976">
        <ele>558</ele>
        <time>2020-02-19T10:26:51Z</time>
      </trkpt>
      <trkpt lat="43.32734" lon="5.53979">
        <ele>553</ele>
        <time>2020-02-19T10:26:57Z</time>
      </trkpt>
      <trkpt lat="43.32739" lon="5.53978">
        <ele>550</ele>
        <time>2020-02-19T10:27:05Z</time>
      </trkpt>
      <trkpt lat="43.32743" lon="5.53975">
        <ele>550</ele>
        <time>2020-02-19T10:27:15Z</time>
      </trkpt>
      <trkpt lat="43.32747" lon="5.53972">
        <ele>552</ele>
        <time>2020-02-19T10:27:21Z</time>
      </trkpt>
      <trkpt lat="43.32752" lon="5.53972">
        <ele>554</ele>
        <time>2020-02-19T10:27:29Z</time>
      </trkpt>
      <trkpt lat="43.32757" lon="5.53973">
        <ele>560</ele>
        <time>2020-02-19T10:27:35Z</time>
      </trkpt>
      <trkpt lat="43.32762" lon="5.53973">
        <ele>558</ele>
        <time>2020-02-19T10:28:01Z</time>
      </trkpt>
      <trkpt lat="43.32767" lon="5.53972">
        <ele>559</ele>
        <time>2020-02-19T10:28:07Z</time>
      </trkpt>
      <trkpt lat="43.32771" lon="5.5397">
        <ele>560</ele>
        <time>2020-02-19T10:28:11Z</time>
      </trkpt>
      <trkpt lat="43.32777" lon="5.5397">
        <ele>561</ele>
        <time>2020-02-19T10:28:19Z</time>
      </trkpt>
      <trkpt lat="43.32782" lon="5.53968">
        <ele>561</ele>
        <time>2020-02-19T10:28:33Z</time>
      </trkpt>
      <trkpt lat="43.32786" lon="5.53965">
        <ele>560</ele>
        <time>2020-02-19T10:28:45Z</time>
      </trkpt>
      <trkpt lat="43.32793" lon="5.53963">
        <ele>566</ele>
        <time>2020-02-19T10:28:47Z</time>
      </trkpt>
      <trkpt lat="43.32798" lon="5.53961">
        <ele>565</ele>
        <time>2020-02-19T10:28:51Z</time>
      </trkpt>
      <trkpt lat="43.32802" lon="5.53959">
        <ele>566</ele>
        <time>2020-02-19T10:28:57Z</time>
      </trkpt>
      <trkpt lat="43.32809" lon="5.53956">
        <ele>571</ele>
        <time>2020-02-19T10:29:03Z</time>
      </trkpt>
      <trkpt lat="43.32814" lon="5.53955">
        <ele>570</ele>
        <time>2020-02-19T10:29:07Z</time>
      </trkpt>
      <trkpt lat="43.32818" lon="5.53953">
        <ele>570</ele>
        <time>2020-02-19T10:29:17Z</time>
      </trkpt>
      <trkpt lat="43.32824" lon="5.53952">
        <ele>570</ele>
        <time>2020-02-19T10:29:27Z</time>
      </trkpt>
      <trkpt lat="43.32829" lon="5.53953">
        <ele>571</ele>
        <time>2020-02-19T10:29:35Z</time>
      </trkpt>
      <trkpt lat="43.32838" lon="5.53954">
        <ele>576</ele>
        <time>2020-02-19T10:29:49Z</time>
      </trkpt>
      <trkpt lat="43.32844" lon="5.53955">
        <ele>579</ele>
        <time>2020-02-19T10:29:53Z</time>
      </trkpt>
      <trkpt lat="43.32848" lon="5.53958">
        <ele>583</ele>
        <time>2020-02-19T10:29:59Z</time>
      </trkpt>
      <trkpt lat="43.32853" lon="5.5396">
        <ele>581</ele>
        <time>2020-02-19T10:30:05Z</time>
      </trkpt>
      <trkpt lat="43.32858" lon="5.53964">
        <ele>580</ele>
        <time>2020-02-19T10:30:15Z</time>
      </trkpt>
      <trkpt lat="43.32862" lon="5.53967">
        <ele>580</ele>
        <time>2020-02-19T10:30:21Z</time>
      </trkpt>
      <trkpt lat="43.32868" lon="5.53971">
        <ele>582</ele>
        <time>2020-02-19T10:30:27Z</time>
      </trkpt>
      <trkpt lat="43.32872" lon="5.53975">
        <ele>581</ele>
        <time>2020-02-19T10:30:33Z</time>
      </trkpt>
      <trkpt lat="43.32876" lon="5.53979">
        <ele>582</ele>
        <time>2020-02-19T10:30:39Z</time>
      </trkpt>
      <trkpt lat="43.3288" lon="5.53983">
        <ele>582</ele>
        <time>2020-02-19T10:30:45Z</time>
      </trkpt>
      <trkpt lat="43.32884" lon="5.53988">
        <ele>582</ele>
        <time>2020-02-19T10:30:51Z</time>
      </trkpt>
      <trkpt lat="43.32888" lon="5.53994">
        <ele>581</ele>
        <time>2020-02-19T10:30:59Z</time>
      </trkpt>
      <trkpt lat="43.3289" lon="5.53999">
        <ele>582</ele>
        <time>2020-02-19T10:31:05Z</time>
      </trkpt>
      <trkpt lat="43.32893" lon="5.54004">
        <ele>581</ele>
        <time>2020-02-19T10:31:11Z</time>
      </trkpt>
      <trkpt lat="43.32897" lon="5.54011">
        <ele>581</ele>
        <time>2020-02-19T10:31:19Z</time>
      </trkpt>
      <trkpt lat="43.329" lon="5.54018">
        <ele>582</ele>
        <time>2020-02-19T10:31:27Z</time>
      </trkpt>
      <trkpt lat="43.32902" lon="5.54025">
        <ele>583</ele>
        <time>2020-02-19T10:31:35Z</time>
      </trkpt>
      <trkpt lat="43.32905" lon="5.54031">
        <ele>585</ele>
        <time>2020-02-19T10:31:43Z</time>
      </trkpt>
      <trkpt lat="43.32907" lon="5.54037">
        <ele>585</ele>
        <time>2020-02-19T10:31:53Z</time>
      </trkpt>
      <trkpt lat="43.32909" lon="5.54044">
        <ele>586</ele>
        <time>2020-02-19T10:32:03Z</time>
      </trkpt>
      <trkpt lat="43.32911" lon="5.54049">
        <ele>585</ele>
        <time>2020-02-19T10:32:09Z</time>
      </trkpt>
      <trkpt lat="43.32914" lon="5.54055">
        <ele>585</ele>
        <time>2020-02-19T10:32:17Z</time>
      </trkpt>
      <trkpt lat="43.32919" lon="5.5406">
        <ele>586</ele>
        <time>2020-02-19T10:32:23Z</time>
      </trkpt>
      <trkpt lat="43.32923" lon="5.54066">
        <ele>588</ele>
        <time>2020-02-19T10:32:29Z</time>
      </trkpt>
      <trkpt lat="43.32926" lon="5.54072">
        <ele>590</ele>
        <time>2020-02-19T10:32:37Z</time>
      </trkpt>
      <trkpt lat="43.32928" lon="5.54077">
        <ele>588</ele>
        <time>2020-02-19T10:32:47Z</time>
      </trkpt>
      <trkpt lat="43.32931" lon="5.54083">
        <ele>588</ele>
        <time>2020-02-19T10:32:55Z</time>
      </trkpt>
      <trkpt lat="43.32935" lon="5.54087">
        <ele>590</ele>
        <time>2020-02-19T10:33:01Z</time>
      </trkpt>
      <trkpt lat="43.32939" lon="5.5409">
        <ele>590</ele>
        <time>2020-02-19T10:33:09Z</time>
      </trkpt>
      <trkpt lat="43.32944" lon="5.54095">
        <ele>591</ele>
        <time>2020-02-19T10:33:15Z</time>
      </trkpt>
      <trkpt lat="43.32948" lon="5.54099">
        <ele>593</ele>
        <time>2020-02-19T10:33:21Z</time>
      </trkpt>
      <trkpt lat="43.32953" lon="5.54103">
        <ele>593</ele>
        <time>2020-02-19T10:33:29Z</time>
      </trkpt>
      <trkpt lat="43.32958" lon="5.54104">
        <ele>593</ele>
        <time>2020-02-19T10:33:39Z</time>
      </trkpt>
      <trkpt lat="43.32962" lon="5.54101">
        <ele>592</ele>
        <time>2020-02-19T10:33:47Z</time>
      </trkpt>
      <trkpt lat="43.32966" lon="5.54097">
        <ele>589</ele>
        <time>2020-02-19T10:33:59Z</time>
      </trkpt>
      <trkpt lat="43.3297" lon="5.54095">
        <ele>592</ele>
        <time>2020-02-19T10:34:03Z</time>
      </trkpt>
      <trkpt lat="43.32976" lon="5.54092">
        <ele>592</ele>
        <time>2020-02-19T10:34:09Z</time>
      </trkpt>
      <trkpt lat="43.3298" lon="5.54089">
        <ele>593</ele>
        <time>2020-02-19T10:34:17Z</time>
      </trkpt>
      <trkpt lat="43.32986" lon="5.54087">
        <ele>595</ele>
        <time>2020-02-19T10:34:25Z</time>
      </trkpt>
      <trkpt lat="43.32992" lon="5.54086">
        <ele>596</ele>
        <time>2020-02-19T10:34:31Z</time>
      </trkpt>
      <trkpt lat="43.32996" lon="5.54086">
        <ele>597</ele>
        <time>2020-02-19T10:34:37Z</time>
      </trkpt>
      <trkpt lat="43.33002" lon="5.54086">
        <ele>598</ele>
        <time>2020-02-19T10:34:43Z</time>
      </trkpt>
      <trkpt lat="43.33006" lon="5.54088">
        <ele>598</ele>
        <time>2020-02-19T10:34:49Z</time>
      </trkpt>
      <trkpt lat="43.33012" lon="5.54091">
        <ele>600</ele>
        <time>2020-02-19T10:34:59Z</time>
      </trkpt>
      <trkpt lat="43.33016" lon="5.54093">
        <ele>600</ele>
        <time>2020-02-19T10:35:25Z</time>
      </trkpt>
      <trkpt lat="43.3302" lon="5.54098">
        <ele>602</ele>
        <time>2020-02-19T10:35:33Z</time>
      </trkpt>
      <trkpt lat="43.33022" lon="5.54104">
        <ele>604</ele>
        <time>2020-02-19T10:35:39Z</time>
      </trkpt>
      <trkpt lat="43.33024" lon="5.54109">
        <ele>603</ele>
        <time>2020-02-19T10:35:45Z</time>
      </trkpt>
      <trkpt lat="43.33028" lon="5.54114">
        <ele>603</ele>
        <time>2020-02-19T10:35:51Z</time>
      </trkpt>
      <trkpt lat="43.33033" lon="5.54118">
        <ele>605</ele>
        <time>2020-02-19T10:35:59Z</time>
      </trkpt>
      <trkpt lat="43.33037" lon="5.54124">
        <ele>604</ele>
        <time>2020-02-19T10:36:09Z</time>
      </trkpt>
      <trkpt lat="43.3304" lon="5.5413">
        <ele>605</ele>
        <time>2020-02-19T10:36:17Z</time>
      </trkpt>
      <trkpt lat="43.33043" lon="5.54135">
        <ele>606</ele>
        <time>2020-02-19T10:36:27Z</time>
      </trkpt>
      <trkpt lat="43.33049" lon="5.54138">
        <ele>607</ele>
        <time>2020-02-19T10:36:37Z</time>
      </trkpt>
      <trkpt lat="43.33053" lon="5.54138">
        <ele>607</ele>
        <time>2020-02-19T10:36:45Z</time>
      </trkpt>
      <trkpt lat="43.33057" lon="5.54133">
        <ele>607</ele>
        <time>2020-02-19T10:37:09Z</time>
      </trkpt>
      <trkpt lat="43.33061" lon="5.54126">
        <ele>608</ele>
        <time>2020-02-19T10:37:19Z</time>
      </trkpt>
      <trkpt lat="43.33061" lon="5.5412">
        <ele>610</ele>
        <time>2020-02-19T10:37:33Z</time>
      </trkpt>
      <trkpt lat="43.33064" lon="5.54113">
        <ele>612</ele>
        <time>2020-02-19T10:37:45Z</time>
      </trkpt>
      <trkpt lat="43.33068" lon="5.54107">
        <ele>611</ele>
        <time>2020-02-19T10:37:53Z</time>
      </trkpt>
      <trkpt lat="43.33072" lon="5.54103">
        <ele>612</ele>
        <time>2020-02-19T10:38:01Z</time>
      </trkpt>
      <trkpt lat="43.33078" lon="5.541">
        <ele>613</ele>
        <time>2020-02-19T10:38:07Z</time>
      </trkpt>
      <trkpt lat="43.33083" lon="5.54098">
        <ele>613</ele>
        <time>2020-02-19T10:38:13Z</time>
      </trkpt>
      <trkpt lat="43.33088" lon="5.54101">
        <ele>615</ele>
        <time>2020-02-19T10:38:21Z</time>
      </trkpt>
      <trkpt lat="43.33091" lon="5.54107">
        <ele>616</ele>
        <time>2020-02-19T10:38:29Z</time>
      </trkpt>
      <trkpt lat="43.33092" lon="5.54113">
        <ele>616</ele>
        <time>2020-02-19T10:38:37Z</time>
      </trkpt>
      <trkpt lat="43.33094" lon="5.54118">
        <ele>615</ele>
        <time>2020-02-19T10:38:43Z</time>
      </trkpt>
      <trkpt lat="43.33095" lon="5.54126">
        <ele>616</ele>
        <time>2020-02-19T10:38:51Z</time>
      </trkpt>
      <trkpt lat="43.33097" lon="5.54133">
        <ele>615</ele>
        <time>2020-02-19T10:39:01Z</time>
      </trkpt>
      <trkpt lat="43.33099" lon="5.54139">
        <ele>616</ele>
        <time>2020-02-19T10:39:07Z</time>
      </trkpt>
      <trkpt lat="43.33102" lon="5.54147">
        <ele>617</ele>
        <time>2020-02-19T10:39:13Z</time>
      </trkpt>
      <trkpt lat="43.33103" lon="5.54153">
        <ele>616</ele>
        <time>2020-02-19T10:39:19Z</time>
      </trkpt>
      <trkpt lat="43.33105" lon="5.54159">
        <ele>616</ele>
        <time>2020-02-19T10:39:27Z</time>
      </trkpt>
      <trkpt lat="43.33108" lon="5.54164">
        <ele>618</ele>
        <time>2020-02-19T10:39:33Z</time>
      </trkpt>
      <trkpt lat="43.3311" lon="5.5417">
        <ele>620</ele>
        <time>2020-02-19T10:39:39Z</time>
      </trkpt>
      <trkpt lat="43.33111" lon="5.54177">
        <ele>620</ele>
        <time>2020-02-19T10:39:45Z</time>
      </trkpt>
      <trkpt lat="43.33112" lon="5.54184">
        <ele>619</ele>
        <time>2020-02-19T10:39:55Z</time>
      </trkpt>
      <trkpt lat="43.33116" lon="5.54188">
        <ele>620</ele>
        <time>2020-02-19T10:40:01Z</time>
      </trkpt>
      <trkpt lat="43.33116" lon="5.54195">
        <ele>618</ele>
        <time>2020-02-19T10:40:21Z</time>
      </trkpt>
      <trkpt lat="43.33119" lon="5.542">
        <ele>619</ele>
        <time>2020-02-19T10:41:17Z</time>
      </trkpt>
      <trkpt lat="43.33122" lon="5.54207">
        <ele>621</ele>
        <time>2020-02-19T10:43:11Z</time>
      </trkpt>
      <trkpt lat="43.33127" lon="5.54208">
        <ele>621</ele>
        <time>2020-02-19T10:43:21Z</time>
      </trkpt>
      <trkpt lat="43.33132" lon="5.54208">
        <ele>622</ele>
        <time>2020-02-19T10:43:27Z</time>
      </trkpt>
      <trkpt lat="43.33137" lon="5.5421">
        <ele>623</ele>
        <time>2020-02-19T10:43:33Z</time>
      </trkpt>
      <trkpt lat="43.33143" lon="5.54212">
        <ele>624</ele>
        <time>2020-02-19T10:43:41Z</time>
      </trkpt>
      <trkpt lat="43.33147" lon="5.54213">
        <ele>626</ele>
        <time>2020-02-19T10:43:45Z</time>
      </trkpt>
      <trkpt lat="43.33151" lon="5.54217">
        <ele>627</ele>
        <time>2020-02-19T10:43:53Z</time>
      </trkpt>
      <trkpt lat="43.33155" lon="5.54221">
        <ele>628</ele>
        <time>2020-02-19T10:44:03Z</time>
      </trkpt>
      <trkpt lat="43.3316" lon="5.54224">
        <ele>628</ele>
        <time>2020-02-19T10:44:11Z</time>
      </trkpt>
      <trkpt lat="43.33166" lon="5.54225">
        <ele>629</ele>
        <time>2020-02-19T10:44:17Z</time>
      </trkpt>
      <trkpt lat="43.3317" lon="5.54221">
        <ele>629</ele>
        <time>2020-02-19T10:44:27Z</time>
      </trkpt>
      <trkpt lat="43.33169" lon="5.54214">
        <ele>630</ele>
        <time>2020-02-19T10:44:37Z</time>
      </trkpt>
      <trkpt lat="43.33171" lon="5.54206">
        <ele>631</ele>
        <time>2020-02-19T10:44:43Z</time>
      </trkpt>
      <trkpt lat="43.33175" lon="5.54203">
        <ele>632</ele>
        <time>2020-02-19T10:44:49Z</time>
      </trkpt>
      <trkpt lat="43.33181" lon="5.54201">
        <ele>633</ele>
        <time>2020-02-19T10:44:59Z</time>
      </trkpt>
      <trkpt lat="43.33186" lon="5.54202">
        <ele>636</ele>
        <time>2020-02-19T10:45:07Z</time>
      </trkpt>
      <trkpt lat="43.3319" lon="5.54196">
        <ele>636</ele>
        <time>2020-02-19T10:46:01Z</time>
      </trkpt>
      <trkpt lat="43.33195" lon="5.54194">
        <ele>636</ele>
        <time>2020-02-19T10:46:07Z</time>
      </trkpt>
      <trkpt lat="43.33198" lon="5.54187">
        <ele>637</ele>
        <time>2020-02-19T10:46:13Z</time>
      </trkpt>
      <trkpt lat="43.33199" lon="5.5418">
        <ele>638</ele>
        <time>2020-02-19T10:46:17Z</time>
      </trkpt>
      <trkpt lat="43.332" lon="5.54174">
        <ele>638</ele>
        <time>2020-02-19T10:46:21Z</time>
      </trkpt>
      <trkpt lat="43.33199" lon="5.54167">
        <ele>638</ele>
        <time>2020-02-19T10:46:29Z</time>
      </trkpt>
      <trkpt lat="43.33203" lon="5.54171">
        <ele>637</ele>
        <time>2020-02-19T10:47:25Z</time>
      </trkpt>
      <trkpt lat="43.33208" lon="5.54173">
        <ele>638</ele>
        <time>2020-02-19T10:47:33Z</time>
      </trkpt>
      <trkpt lat="43.33213" lon="5.54177">
        <ele>637</ele>
        <time>2020-02-19T10:47:45Z</time>
      </trkpt>
      <trkpt lat="43.33218" lon="5.54176">
        <ele>638</ele>
        <time>2020-02-19T10:48:03Z</time>
      </trkpt>
      <trkpt lat="43.33222" lon="5.54173">
        <ele>638</ele>
        <time>2020-02-19T10:48:09Z</time>
      </trkpt>
      <trkpt lat="43.33227" lon="5.54171">
        <ele>640</ele>
        <time>2020-02-19T10:48:15Z</time>
      </trkpt>
      <trkpt lat="43.33233" lon="5.5417">
        <ele>640</ele>
        <time>2020-02-19T10:48:21Z</time>
      </trkpt>
      <trkpt lat="43.33237" lon="5.54169">
        <ele>642</ele>
        <time>2020-02-19T10:48:43Z</time>
      </trkpt>
      <trkpt lat="43.33243" lon="5.5417">
        <ele>640</ele>
        <time>2020-02-19T10:48:57Z</time>
      </trkpt>
      <trkpt lat="43.33248" lon="5.54171">
        <ele>640</ele>
        <time>2020-02-19T10:49:05Z</time>
      </trkpt>
      <trkpt lat="43.33253" lon="5.54174">
        <ele>643</ele>
        <time>2020-02-19T10:49:17Z</time>
      </trkpt>
      <trkpt lat="43.33254" lon="5.54182">
        <ele>643</ele>
        <time>2020-02-19T10:50:05Z</time>
      </trkpt>
      <trkpt lat="43.33258" lon="5.54189">
        <ele>645</ele>
        <time>2020-02-19T10:50:11Z</time>
      </trkpt>
      <trkpt lat="43.33261" lon="5.54196">
        <ele>644</ele>
        <time>2020-02-19T10:50:49Z</time>
      </trkpt>
      <trkpt lat="43.33267" lon="5.54196">
        <ele>643</ele>
        <time>2020-02-19T10:50:59Z</time>
      </trkpt>
      <trkpt lat="43.33273" lon="5.54201">
        <ele>644</ele>
        <time>2020-02-19T10:51:05Z</time>
      </trkpt>
      <trkpt lat="43.33276" lon="5.54205">
        <ele>644</ele>
        <time>2020-02-19T10:51:09Z</time>
      </trkpt>
      <trkpt lat="43.3328" lon="5.54212">
        <ele>644</ele>
        <time>2020-02-19T10:51:15Z</time>
      </trkpt>
      <trkpt lat="43.33282" lon="5.54218">
        <ele>648</ele>
        <time>2020-02-19T10:51:21Z</time>
      </trkpt>
      <trkpt lat="43.33287" lon="5.54221">
        <ele>647</ele>
        <time>2020-02-19T10:51:27Z</time>
      </trkpt>
      <trkpt lat="43.33289" lon="5.54227">
        <ele>645</ele>
        <time>2020-02-19T10:51:33Z</time>
      </trkpt>
      <trkpt lat="43.33291" lon="5.54235">
        <ele>648</ele>
        <time>2020-02-19T10:51:43Z</time>
      </trkpt>
      <trkpt lat="43.33295" lon="5.54241">
        <ele>648</ele>
        <time>2020-02-19T10:51:55Z</time>
      </trkpt>
      <trkpt lat="43.33302" lon="5.54245">
        <ele>646</ele>
        <time>2020-02-19T10:52:01Z</time>
      </trkpt>
      <trkpt lat="43.33308" lon="5.54251">
        <ele>646</ele>
        <time>2020-02-19T10:52:05Z</time>
      </trkpt>
      <trkpt lat="43.33309" lon="5.54257">
        <ele>647</ele>
        <time>2020-02-19T10:52:11Z</time>
      </trkpt>
      <trkpt lat="43.33301" lon="5.5426">
        <ele>647</ele>
        <time>2020-02-19T10:52:17Z</time>
      </trkpt>
      <trkpt lat="43.33292" lon="5.54267">
        <ele>648</ele>
        <time>2020-02-19T10:52:23Z</time>
      </trkpt>
      <trkpt lat="43.33287" lon="5.54274">
        <ele>651</ele>
        <time>2020-02-19T10:52:27Z</time>
      </trkpt>
      <trkpt lat="43.33283" lon="5.5428">
        <ele>534</ele>
        <time>2020-02-19T10:52:31Z</time>
      </trkpt>
      <trkpt lat="43.33281" lon="5.54287">
        <ele>609</ele>
        <time>2020-02-19T10:52:37Z</time>
      </trkpt>
      <trkpt lat="43.33282" lon="5.54295">
        <ele>627</ele>
        <time>2020-02-19T10:52:43Z</time>
      </trkpt>
      <trkpt lat="43.33286" lon="5.54298">
        <ele>640</ele>
        <time>2020-02-19T10:52:47Z</time>
      </trkpt>
      <trkpt lat="43.33291" lon="5.543">
        <ele>641</ele>
        <time>2020-02-19T10:52:49Z</time>
      </trkpt>
      <trkpt lat="43.33296" lon="5.54302">
        <ele>641</ele>
        <time>2020-02-19T10:52:53Z</time>
      </trkpt>
      <trkpt lat="43.33291" lon="5.54305">
        <ele>639</ele>
        <time>2020-02-19T10:53:07Z</time>
      </trkpt>
      <trkpt lat="43.33292" lon="5.54314">
        <ele>637</ele>
        <time>2020-02-19T10:53:13Z</time>
      </trkpt>
      <trkpt lat="43.33294" lon="5.54321">
        <ele>643</ele>
        <time>2020-02-19T10:53:19Z</time>
      </trkpt>
      <trkpt lat="43.33292" lon="5.54327">
        <ele>646</ele>
        <time>2020-02-19T10:53:27Z</time>
      </trkpt>
      <trkpt lat="43.33296" lon="5.54332">
        <ele>647</ele>
        <time>2020-02-19T10:53:33Z</time>
      </trkpt>
      <trkpt lat="43.333" lon="5.54339">
        <ele>648</ele>
        <time>2020-02-19T10:53:39Z</time>
      </trkpt>
      <trkpt lat="43.33302" lon="5.54345">
        <ele>648</ele>
        <time>2020-02-19T10:53:45Z</time>
      </trkpt>
      <trkpt lat="43.33305" lon="5.54351">
        <ele>649</ele>
        <time>2020-02-19T10:53:51Z</time>
      </trkpt>
      <trkpt lat="43.33303" lon="5.54359">
        <ele>651</ele>
        <time>2020-02-19T10:53:57Z</time>
      </trkpt>
      <trkpt lat="43.333" lon="5.54365">
        <ele>652</ele>
        <time>2020-02-19T10:54:03Z</time>
      </trkpt>
      <trkpt lat="43.333" lon="5.54372">
        <ele>650</ele>
        <time>2020-02-19T10:54:09Z</time>
      </trkpt>
      <trkpt lat="43.33303" lon="5.54379">
        <ele>654</ele>
        <time>2020-02-19T10:54:15Z</time>
      </trkpt>
      <trkpt lat="43.33306" lon="5.54385">
        <ele>653</ele>
        <time>2020-02-19T10:54:19Z</time>
      </trkpt>
      <trkpt lat="43.33307" lon="5.54392">
        <ele>654</ele>
        <time>2020-02-19T10:54:23Z</time>
      </trkpt>
      <trkpt lat="43.33306" lon="5.54399">
        <ele>651</ele>
        <time>2020-02-19T10:54:29Z</time>
      </trkpt>
      <trkpt lat="43.33308" lon="5.54404">
        <ele>652</ele>
        <time>2020-02-19T10:54:35Z</time>
      </trkpt>
      <trkpt lat="43.33313" lon="5.54408">
        <ele>655</ele>
        <time>2020-02-19T10:54:39Z</time>
      </trkpt>
      <trkpt lat="43.33319" lon="5.5441">
        <ele>657</ele>
        <time>2020-02-19T10:54:43Z</time>
      </trkpt>
      <trkpt lat="43.33325" lon="5.54415">
        <ele>656</ele>
        <time>2020-02-19T10:54:49Z</time>
      </trkpt>
      <trkpt lat="43.33334" lon="5.5442">
        <ele>661</ele>
        <time>2020-02-19T10:54:53Z</time>
      </trkpt>
      <trkpt lat="43.3334" lon="5.54422">
        <ele>663</ele>
        <time>2020-02-19T10:54:57Z</time>
      </trkpt>
      <trkpt lat="43.33345" lon="5.54427">
        <ele>660</ele>
        <time>2020-02-19T10:55:01Z</time>
      </trkpt>
      <trkpt lat="43.3335" lon="5.54431">
        <ele>660</ele>
        <time>2020-02-19T10:55:05Z</time>
      </trkpt>
      <trkpt lat="43.33354" lon="5.54435">
        <ele>659</ele>
        <time>2020-02-19T10:55:09Z</time>
      </trkpt>
      <trkpt lat="43.33355" lon="5.54443">
        <ele>660</ele>
        <time>2020-02-19T10:55:15Z</time>
      </trkpt>
      <trkpt lat="43.33354" lon="5.5445">
        <ele>660</ele>
        <time>2020-02-19T10:55:20Z</time>
      </trkpt>
      <trkpt lat="43.33355" lon="5.54458">
        <ele>660</ele>
        <time>2020-02-19T10:55:29Z</time>
      </trkpt>
      <trkpt lat="43.33359" lon="5.54462">
        <ele>664</ele>
        <time>2020-02-19T10:55:33Z</time>
      </trkpt>
      <trkpt lat="43.33364" lon="5.54466">
        <ele>667</ele>
        <time>2020-02-19T10:55:37Z</time>
      </trkpt>
      <trkpt lat="43.33367" lon="5.54471">
        <ele>669</ele>
        <time>2020-02-19T10:55:43Z</time>
      </trkpt>
      <trkpt lat="43.3337" lon="5.54479">
        <ele>670</ele>
        <time>2020-02-19T10:55:51Z</time>
      </trkpt>
      <trkpt lat="43.33368" lon="5.54484">
        <ele>666</ele>
        <time>2020-02-19T10:55:55Z</time>
      </trkpt>
      <trkpt lat="43.33362" lon="5.54488">
        <ele>667</ele>
        <time>2020-02-19T10:55:57Z</time>
      </trkpt>
      <trkpt lat="43.33354" lon="5.54491">
        <ele>668</ele>
        <time>2020-02-19T10:56:01Z</time>
      </trkpt>
      <trkpt lat="43.33348" lon="5.54491">
        <ele>670</ele>
        <time>2020-02-19T10:56:07Z</time>
      </trkpt>
      <trkpt lat="43.33343" lon="5.5449">
        <ele>670</ele>
        <time>2020-02-19T10:56:11Z</time>
      </trkpt>
      <trkpt lat="43.33337" lon="5.54491">
        <ele>668</ele>
        <time>2020-02-19T10:56:15Z</time>
      </trkpt>
      <trkpt lat="43.33332" lon="5.54491">
        <ele>666</ele>
        <time>2020-02-19T10:58:43Z</time>
      </trkpt>
      <trkpt lat="43.33327" lon="5.54489">
        <ele>663</ele>
        <time>2020-02-19T10:58:55Z</time>
      </trkpt>
      <trkpt lat="43.33324" lon="5.54485">
        <ele>663</ele>
        <time>2020-02-19T10:59:57Z</time>
      </trkpt>
      <trkpt lat="43.3332" lon="5.54481">
        <ele>662</ele>
        <time>2020-02-19T11:00:23Z</time>
      </trkpt>
      <trkpt lat="43.33317" lon="5.54473">
        <ele>663</ele>
        <time>2020-02-19T11:00:29Z</time>
      </trkpt>
      <trkpt lat="43.33313" lon="5.54469">
        <ele>660</ele>
        <time>2020-02-19T11:00:37Z</time>
      </trkpt>
      <trkpt lat="43.33307" lon="5.54465">
        <ele>663</ele>
        <time>2020-02-19T11:00:49Z</time>
      </trkpt>
      <trkpt lat="43.33302" lon="5.54462">
        <ele>659</ele>
        <time>2020-02-19T11:00:55Z</time>
      </trkpt>
      <trkpt lat="43.333" lon="5.54456">
        <ele>659</ele>
        <time>2020-02-19T11:01:01Z</time>
      </trkpt>
      <trkpt lat="43.333" lon="5.54463">
        <ele>655</ele>
        <time>2020-02-19T11:04:37Z</time>
      </trkpt>
      <trkpt lat="43.33303" lon="5.5447">
        <ele>656</ele>
        <time>2020-02-19T11:04:49Z</time>
      </trkpt>
      <trkpt lat="43.33306" lon="5.54476">
        <ele>658</ele>
        <time>2020-02-19T11:04:57Z</time>
      </trkpt>
      <trkpt lat="43.3331" lon="5.54481">
        <ele>658</ele>
        <time>2020-02-19T11:05:05Z</time>
      </trkpt>
      <trkpt lat="43.33315" lon="5.54485">
        <ele>659</ele>
        <time>2020-02-19T11:05:13Z</time>
      </trkpt>
      <trkpt lat="43.3332" lon="5.5449">
        <ele>661</ele>
        <time>2020-02-19T11:05:21Z</time>
      </trkpt>
      <trkpt lat="43.33324" lon="5.54495">
        <ele>660</ele>
        <time>2020-02-19T11:05:29Z</time>
      </trkpt>
      <trkpt lat="43.33329" lon="5.54496">
        <ele>659</ele>
        <time>2020-02-19T11:05:35Z</time>
      </trkpt>
      <trkpt lat="43.33333" lon="5.54499">
        <ele>661</ele>
        <time>2020-02-19T11:05:43Z</time>
      </trkpt>
      <trkpt lat="43.33339" lon="5.54502">
        <ele>662</ele>
        <time>2020-02-19T11:05:49Z</time>
      </trkpt>
      <trkpt lat="43.33342" lon="5.54509">
        <ele>664</ele>
        <time>2020-02-19T11:05:55Z</time>
      </trkpt>
      <trkpt lat="43.33342" lon="5.54515">
        <ele>664</ele>
        <time>2020-02-19T11:06:03Z</time>
      </trkpt>
      <trkpt lat="43.33344" lon="5.54521">
        <ele>662</ele>
        <time>2020-02-19T11:06:11Z</time>
      </trkpt>
      <trkpt lat="43.33351" lon="5.54523">
        <ele>650</ele>
        <time>2020-02-19T11:06:17Z</time>
      </trkpt>
      <trkpt lat="43.33358" lon="5.54524">
        <ele>654</ele>
        <time>2020-02-19T11:06:19Z</time>
      </trkpt>
      <trkpt lat="43.33368" lon="5.54529">
        <ele>657</ele>
        <time>2020-02-19T11:06:23Z</time>
      </trkpt>
      <trkpt lat="43.33373" lon="5.54534">
        <ele>660</ele>
        <time>2020-02-19T11:06:27Z</time>
      </trkpt>
      <trkpt lat="43.33375" lon="5.54542">
        <ele>659</ele>
        <time>2020-02-19T11:06:33Z</time>
      </trkpt>
      <trkpt lat="43.33372" lon="5.54548">
        <ele>666</ele>
        <time>2020-02-19T11:06:43Z</time>
      </trkpt>
      <trkpt lat="43.33363" lon="5.54557">
        <ele>665</ele>
        <time>2020-02-19T11:07:05Z</time>
      </trkpt>
      <trkpt lat="43.33363" lon="5.54566">
        <ele>666</ele>
        <time>2020-02-19T11:07:11Z</time>
      </trkpt>
      <trkpt lat="43.33363" lon="5.54576">
        <ele>664</ele>
        <time>2020-02-19T11:07:15Z</time>
      </trkpt>
      <trkpt lat="43.33365" lon="5.54585">
        <ele>664</ele>
        <time>2020-02-19T11:07:19Z</time>
      </trkpt>
      <trkpt lat="43.33368" lon="5.54594">
        <ele>665</ele>
        <time>2020-02-19T11:07:23Z</time>
      </trkpt>
      <trkpt lat="43.3337" lon="5.54602">
        <ele>664</ele>
        <time>2020-02-19T11:07:27Z</time>
      </trkpt>
      <trkpt lat="43.3337" lon="5.54611">
        <ele>662</ele>
        <time>2020-02-19T11:07:33Z</time>
      </trkpt>
      <trkpt lat="43.33371" lon="5.54617">
        <ele>664</ele>
        <time>2020-02-19T11:07:37Z</time>
      </trkpt>
      <trkpt lat="43.33372" lon="5.54625">
        <ele>664</ele>
        <time>2020-02-19T11:07:41Z</time>
      </trkpt>
      <trkpt lat="43.33375" lon="5.54634">
        <ele>664</ele>
        <time>2020-02-19T11:07:45Z</time>
      </trkpt>
      <trkpt lat="43.33379" lon="5.5464">
        <ele>667</ele>
        <time>2020-02-19T11:07:49Z</time>
      </trkpt>
      <trkpt lat="43.33386" lon="5.54646">
        <ele>668</ele>
        <time>2020-02-19T11:07:53Z</time>
      </trkpt>
      <trkpt lat="43.33382" lon="5.54652">
        <ele>664</ele>
        <time>2020-02-19T11:07:59Z</time>
      </trkpt>
      <trkpt lat="43.33384" lon="5.54658">
        <ele>666</ele>
        <time>2020-02-19T11:08:05Z</time>
      </trkpt>
      <trkpt lat="43.33386" lon="5.54666">
        <ele>665</ele>
        <time>2020-02-19T11:08:13Z</time>
      </trkpt>
      <trkpt lat="43.3339" lon="5.54671">
        <ele>669</ele>
        <time>2020-02-19T11:08:19Z</time>
      </trkpt>
      <trkpt lat="43.33395" lon="5.54674">
        <ele>670</ele>
        <time>2020-02-19T11:08:23Z</time>
      </trkpt>
      <trkpt lat="43.33402" lon="5.54678">
        <ele>674</ele>
        <time>2020-02-19T11:08:27Z</time>
      </trkpt>
      <trkpt lat="43.33408" lon="5.54681">
        <ele>676</ele>
        <time>2020-02-19T11:08:29Z</time>
      </trkpt>
      <trkpt lat="43.33415" lon="5.54683">
        <ele>677</ele>
        <time>2020-02-19T11:08:33Z</time>
      </trkpt>
      <trkpt lat="43.33421" lon="5.54686">
        <ele>678</ele>
        <time>2020-02-19T11:08:37Z</time>
      </trkpt>
      <trkpt lat="43.33424" lon="5.54692">
        <ele>676</ele>
        <time>2020-02-19T11:08:47Z</time>
      </trkpt>
      <trkpt lat="43.33427" lon="5.54697">
        <ele>675</ele>
        <time>2020-02-19T11:08:53Z</time>
      </trkpt>
      <trkpt lat="43.3343" lon="5.54705">
        <ele>675</ele>
        <time>2020-02-19T11:08:59Z</time>
      </trkpt>
      <trkpt lat="43.33435" lon="5.54711">
        <ele>676</ele>
        <time>2020-02-19T11:09:03Z</time>
      </trkpt>
      <trkpt lat="43.33438" lon="5.54716">
        <ele>673</ele>
        <time>2020-02-19T11:09:07Z</time>
      </trkpt>
      <trkpt lat="43.33436" lon="5.54723">
        <ele>672</ele>
        <time>2020-02-19T11:09:13Z</time>
      </trkpt>
      <trkpt lat="43.33437" lon="5.5473">
        <ele>670</ele>
        <time>2020-02-19T11:09:19Z</time>
      </trkpt>
      <trkpt lat="43.33436" lon="5.54737">
        <ele>671</ele>
        <time>2020-02-19T11:09:23Z</time>
      </trkpt>
      <trkpt lat="43.33435" lon="5.54745">
        <ele>669</ele>
        <time>2020-02-19T11:09:29Z</time>
      </trkpt>
      <trkpt lat="43.33435" lon="5.54753">
        <ele>668</ele>
        <time>2020-02-19T11:09:35Z</time>
      </trkpt>
      <trkpt lat="43.33433" lon="5.54759">
        <ele>668</ele>
        <time>2020-02-19T11:09:41Z</time>
      </trkpt>
      <trkpt lat="43.33432" lon="5.54767">
        <ele>665</ele>
        <time>2020-02-19T11:09:47Z</time>
      </trkpt>
      <trkpt lat="43.33431" lon="5.54773">
        <ele>665</ele>
        <time>2020-02-19T11:09:53Z</time>
      </trkpt>
      <trkpt lat="43.33428" lon="5.54781">
        <ele>665</ele>
        <time>2020-02-19T11:09:59Z</time>
      </trkpt>
      <trkpt lat="43.33427" lon="5.54787">
        <ele>665</ele>
        <time>2020-02-19T11:10:07Z</time>
      </trkpt>
      <trkpt lat="43.33426" lon="5.54795">
        <ele>665</ele>
        <time>2020-02-19T11:10:15Z</time>
      </trkpt>
      <trkpt lat="43.33426" lon="5.54802">
        <ele>666</ele>
        <time>2020-02-19T11:10:21Z</time>
      </trkpt>
      <trkpt lat="43.33425" lon="5.54809">
        <ele>664</ele>
        <time>2020-02-19T11:10:29Z</time>
      </trkpt>
      <trkpt lat="43.33426" lon="5.54817">
        <ele>666</ele>
        <time>2020-02-19T11:10:35Z</time>
      </trkpt>
      <trkpt lat="43.33426" lon="5.54823">
        <ele>666</ele>
        <time>2020-02-19T11:10:39Z</time>
      </trkpt>
      <trkpt lat="43.33426" lon="5.5483">
        <ele>666</ele>
        <time>2020-02-19T11:10:43Z</time>
      </trkpt>
      <trkpt lat="43.33427" lon="5.54837">
        <ele>666</ele>
        <time>2020-02-19T11:10:49Z</time>
      </trkpt>
      <trkpt lat="43.33427" lon="5.54844">
        <ele>665</ele>
        <time>2020-02-19T11:10:55Z</time>
      </trkpt>
      <trkpt lat="43.33428" lon="5.54853">
        <ele>668</ele>
        <time>2020-02-19T11:11:01Z</time>
      </trkpt>
      <trkpt lat="43.33428" lon="5.54859">
        <ele>667</ele>
        <time>2020-02-19T11:11:05Z</time>
      </trkpt>
      <trkpt lat="43.33429" lon="5.54866">
        <ele>668</ele>
        <time>2020-02-19T11:11:09Z</time>
      </trkpt>
      <trkpt lat="43.3343" lon="5.54872">
        <ele>668</ele>
        <time>2020-02-19T11:11:13Z</time>
      </trkpt>
      <trkpt lat="43.33431" lon="5.5488">
        <ele>669</ele>
        <time>2020-02-19T11:11:19Z</time>
      </trkpt>
      <trkpt lat="43.33432" lon="5.54888">
        <ele>669</ele>
        <time>2020-02-19T11:11:25Z</time>
      </trkpt>
      <trkpt lat="43.33435" lon="5.54895">
        <ele>670</ele>
        <time>2020-02-19T11:11:31Z</time>
      </trkpt>
      <trkpt lat="43.33437" lon="5.54903">
        <ele>671</ele>
        <time>2020-02-19T11:11:37Z</time>
      </trkpt>
      <trkpt lat="43.33438" lon="5.54911">
        <ele>671</ele>
        <time>2020-02-19T11:11:43Z</time>
      </trkpt>
      <trkpt lat="43.33438" lon="5.5492">
        <ele>672</ele>
        <time>2020-02-19T11:11:49Z</time>
      </trkpt>
      <trkpt lat="43.33437" lon="5.54928">
        <ele>673</ele>
        <time>2020-02-19T11:11:55Z</time>
      </trkpt>
      <trkpt lat="43.3344" lon="5.54937">
        <ele>673</ele>
        <time>2020-02-19T11:12:01Z</time>
      </trkpt>
      <trkpt lat="43.33445" lon="5.54942">
        <ele>672</ele>
        <time>2020-02-19T11:12:05Z</time>
      </trkpt>
      <trkpt lat="43.3345" lon="5.54949">
        <ele>668</ele>
        <time>2020-02-19T11:12:11Z</time>
      </trkpt>
      <trkpt lat="43.33454" lon="5.54954">
        <ele>668</ele>
        <time>2020-02-19T11:12:17Z</time>
      </trkpt>
      <trkpt lat="43.33458" lon="5.54957">
        <ele>669</ele>
        <time>2020-02-19T11:12:21Z</time>
      </trkpt>
      <trkpt lat="43.33458" lon="5.54964">
        <ele>670</ele>
        <time>2020-02-19T11:12:27Z</time>
      </trkpt>
      <trkpt lat="43.33458" lon="5.54974">
        <ele>670</ele>
        <time>2020-02-19T11:12:33Z</time>
      </trkpt>
      <trkpt lat="43.33458" lon="5.5498">
        <ele>672</ele>
        <time>2020-02-19T11:12:37Z</time>
      </trkpt>
      <trkpt lat="43.3346" lon="5.54986">
        <ele>671</ele>
        <time>2020-02-19T11:12:43Z</time>
      </trkpt>
      <trkpt lat="43.33463" lon="5.54994">
        <ele>671</ele>
        <time>2020-02-19T11:12:49Z</time>
      </trkpt>
      <trkpt lat="43.33465" lon="5.55002">
        <ele>671</ele>
        <time>2020-02-19T11:12:55Z</time>
      </trkpt>
      <trkpt lat="43.33467" lon="5.55008">
        <ele>669</ele>
        <time>2020-02-19T11:12:59Z</time>
      </trkpt>
      <trkpt lat="43.33465" lon="5.55013">
        <ele>665</ele>
        <time>2020-02-19T11:13:07Z</time>
      </trkpt>
      <trkpt lat="43.33465" lon="5.55021">
        <ele>670</ele>
        <time>2020-02-19T11:13:15Z</time>
      </trkpt>
      <trkpt lat="43.33469" lon="5.55026">
        <ele>674</ele>
        <time>2020-02-19T11:13:23Z</time>
      </trkpt>
      <trkpt lat="43.33474" lon="5.55032">
        <ele>677</ele>
        <time>2020-02-19T11:13:27Z</time>
      </trkpt>
      <trkpt lat="43.33476" lon="5.55041">
        <ele>674</ele>
        <time>2020-02-19T11:13:33Z</time>
      </trkpt>
      <trkpt lat="43.33481" lon="5.55048">
        <ele>675</ele>
        <time>2020-02-19T11:13:39Z</time>
      </trkpt>
      <trkpt lat="43.33484" lon="5.55052">
        <ele>673</ele>
        <time>2020-02-19T11:13:45Z</time>
      </trkpt>
      <trkpt lat="43.33486" lon="5.5506">
        <ele>675</ele>
        <time>2020-02-19T11:13:53Z</time>
      </trkpt>
      <trkpt lat="43.33486" lon="5.55067">
        <ele>675</ele>
        <time>2020-02-19T11:14:01Z</time>
      </trkpt>
      <trkpt lat="43.33488" lon="5.55075">
        <ele>675</ele>
        <time>2020-02-19T11:14:09Z</time>
      </trkpt>
      <trkpt lat="43.33491" lon="5.5508">
        <ele>678</ele>
        <time>2020-02-19T11:14:47Z</time>
      </trkpt>
      <trkpt lat="43.33495" lon="5.55083">
        <ele>677</ele>
        <time>2020-02-19T11:14:53Z</time>
      </trkpt>
      <trkpt lat="43.33499" lon="5.55087">
        <ele>675</ele>
        <time>2020-02-19T11:15:01Z</time>
      </trkpt>
      <trkpt lat="43.33503" lon="5.55088">
        <ele>676</ele>
        <time>2020-02-19T11:15:09Z</time>
      </trkpt>
      <trkpt lat="43.33508" lon="5.55089">
        <ele>675</ele>
        <time>2020-02-19T11:15:33Z</time>
      </trkpt>
      <trkpt lat="43.33513" lon="5.5509">
        <ele>675</ele>
        <time>2020-02-19T11:16:33Z</time>
      </trkpt>
      <trkpt lat="43.33518" lon="5.5509">
        <ele>673</ele>
        <time>2020-02-19T11:16:43Z</time>
      </trkpt>
      <trkpt lat="43.33522" lon="5.55086">
        <ele>674</ele>
        <time>2020-02-19T11:17:09Z</time>
      </trkpt>
      <trkpt lat="43.33526" lon="5.5508">
        <ele>674</ele>
        <time>2020-02-19T11:17:17Z</time>
      </trkpt>
      <trkpt lat="43.3353" lon="5.55075">
        <ele>674</ele>
        <time>2020-02-19T11:17:23Z</time>
      </trkpt>
      <trkpt lat="43.33533" lon="5.55071">
        <ele>675</ele>
        <time>2020-02-19T11:17:29Z</time>
      </trkpt>
      <trkpt lat="43.33537" lon="5.55066">
        <ele>674</ele>
        <time>2020-02-19T11:17:35Z</time>
      </trkpt>
      <trkpt lat="43.33541" lon="5.55061">
        <ele>674</ele>
        <time>2020-02-19T11:17:41Z</time>
      </trkpt>
      <trkpt lat="43.33544" lon="5.55055">
        <ele>673</ele>
        <time>2020-02-19T11:17:47Z</time>
      </trkpt>
      <trkpt lat="43.33548" lon="5.5505">
        <ele>674</ele>
        <time>2020-02-19T11:17:53Z</time>
      </trkpt>
      <trkpt lat="43.33551" lon="5.55043">
        <ele>675</ele>
        <time>2020-02-19T11:17:59Z</time>
      </trkpt>
      <trkpt lat="43.33554" lon="5.55036">
        <ele>674</ele>
        <time>2020-02-19T11:18:05Z</time>
      </trkpt>
      <trkpt lat="43.33556" lon="5.55029">
        <ele>675</ele>
        <time>2020-02-19T11:18:11Z</time>
      </trkpt>
      <trkpt lat="43.33558" lon="5.55022">
        <ele>677</ele>
        <time>2020-02-19T11:18:17Z</time>
      </trkpt>
      <trkpt lat="43.3356" lon="5.55014">
        <ele>678</ele>
        <time>2020-02-19T11:18:23Z</time>
      </trkpt>
      <trkpt lat="43.33562" lon="5.55005">
        <ele>678</ele>
        <time>2020-02-19T11:18:29Z</time>
      </trkpt>
      <trkpt lat="43.33564" lon="5.54997">
        <ele>679</ele>
        <time>2020-02-19T11:18:35Z</time>
      </trkpt>
      <trkpt lat="43.33566" lon="5.54989">
        <ele>680</ele>
        <time>2020-02-19T11:18:41Z</time>
      </trkpt>
      <trkpt lat="43.33567" lon="5.54981">
        <ele>681</ele>
        <time>2020-02-19T11:18:47Z</time>
      </trkpt>
      <trkpt lat="43.33569" lon="5.54973">
        <ele>681</ele>
        <time>2020-02-19T11:18:53Z</time>
      </trkpt>
      <trkpt lat="43.33572" lon="5.54966">
        <ele>681</ele>
        <time>2020-02-19T11:18:59Z</time>
      </trkpt>
      <trkpt lat="43.33574" lon="5.54959">
        <ele>682</ele>
        <time>2020-02-19T11:19:03Z</time>
      </trkpt>
      <trkpt lat="43.33576" lon="5.54953">
        <ele>683</ele>
        <time>2020-02-19T11:19:07Z</time>
      </trkpt>
      <trkpt lat="43.33578" lon="5.54947">
        <ele>682</ele>
        <time>2020-02-19T11:19:11Z</time>
      </trkpt>
      <trkpt lat="43.3358" lon="5.54939">
        <ele>683</ele>
        <time>2020-02-19T11:19:17Z</time>
      </trkpt>
      <trkpt lat="43.33582" lon="5.5493">
        <ele>682</ele>
        <time>2020-02-19T11:19:23Z</time>
      </trkpt>
      <trkpt lat="43.33583" lon="5.54925">
        <ele>683</ele>
        <time>2020-02-19T11:19:27Z</time>
      </trkpt>
      <trkpt lat="43.33585" lon="5.54916">
        <ele>684</ele>
        <time>2020-02-19T11:19:33Z</time>
      </trkpt>
      <trkpt lat="43.33588" lon="5.54908">
        <ele>686</ele>
        <time>2020-02-19T11:19:39Z</time>
      </trkpt>
      <trkpt lat="43.3359" lon="5.54899">
        <ele>687</ele>
        <time>2020-02-19T11:19:45Z</time>
      </trkpt>
      <trkpt lat="43.33592" lon="5.54893">
        <ele>686</ele>
        <time>2020-02-19T11:19:49Z</time>
      </trkpt>
      <trkpt lat="43.33595" lon="5.54887">
        <ele>686</ele>
        <time>2020-02-19T11:19:53Z</time>
      </trkpt>
      <trkpt lat="43.33599" lon="5.5488">
        <ele>685</ele>
        <time>2020-02-19T11:19:59Z</time>
      </trkpt>
      <trkpt lat="43.33602" lon="5.54876">
        <ele>685</ele>
        <time>2020-02-19T11:20:03Z</time>
      </trkpt>
      <trkpt lat="43.33608" lon="5.5487">
        <ele>685</ele>
        <time>2020-02-19T11:20:09Z</time>
      </trkpt>
      <trkpt lat="43.33613" lon="5.54865">
        <ele>685</ele>
        <time>2020-02-19T11:20:15Z</time>
      </trkpt>
      <trkpt lat="43.33617" lon="5.54861">
        <ele>685</ele>
        <time>2020-02-19T11:20:21Z</time>
      </trkpt>
      <trkpt lat="43.33623" lon="5.54859">
        <ele>684</ele>
        <time>2020-02-19T11:20:27Z</time>
      </trkpt>
      <trkpt lat="43.33627" lon="5.54856">
        <ele>684</ele>
        <time>2020-02-19T11:20:31Z</time>
      </trkpt>
      <trkpt lat="43.33631" lon="5.54852">
        <ele>685</ele>
        <time>2020-02-19T11:20:35Z</time>
      </trkpt>
      <trkpt lat="43.33635" lon="5.54848">
        <ele>685</ele>
        <time>2020-02-19T11:20:39Z</time>
      </trkpt>
      <trkpt lat="43.33639" lon="5.54845">
        <ele>685</ele>
        <time>2020-02-19T11:20:43Z</time>
      </trkpt>
      <trkpt lat="43.33645" lon="5.5484">
        <ele>686</ele>
        <time>2020-02-19T11:20:49Z</time>
      </trkpt>
      <trkpt lat="43.33651" lon="5.54836">
        <ele>685</ele>
        <time>2020-02-19T11:20:55Z</time>
      </trkpt>
      <trkpt lat="43.33655" lon="5.54834">
        <ele>686</ele>
        <time>2020-02-19T11:20:59Z</time>
      </trkpt>
      <trkpt lat="43.3366" lon="5.54833">
        <ele>688</ele>
        <time>2020-02-19T11:21:03Z</time>
      </trkpt>
      <trkpt lat="43.33665" lon="5.54832">
        <ele>688</ele>
        <time>2020-02-19T11:21:07Z</time>
      </trkpt>
      <trkpt lat="43.33671" lon="5.54831">
        <ele>687</ele>
        <time>2020-02-19T11:21:13Z</time>
      </trkpt>
      <trkpt lat="43.33677" lon="5.54831">
        <ele>688</ele>
        <time>2020-02-19T11:21:19Z</time>
      </trkpt>
      <trkpt lat="43.33682" lon="5.5483">
        <ele>688</ele>
        <time>2020-02-19T11:21:23Z</time>
      </trkpt>
      <trkpt lat="43.33688" lon="5.5483">
        <ele>688</ele>
        <time>2020-02-19T11:21:29Z</time>
      </trkpt>
      <trkpt lat="43.33695" lon="5.54829">
        <ele>688</ele>
        <time>2020-02-19T11:21:35Z</time>
      </trkpt>
      <trkpt lat="43.337" lon="5.54827">
        <ele>689</ele>
        <time>2020-02-19T11:21:41Z</time>
      </trkpt>
      <trkpt lat="43.33706" lon="5.54825">
        <ele>688</ele>
        <time>2020-02-19T11:21:47Z</time>
      </trkpt>
      <trkpt lat="43.33713" lon="5.54824">
        <ele>687</ele>
        <time>2020-02-19T11:21:53Z</time>
      </trkpt>
      <trkpt lat="43.33717" lon="5.54824">
        <ele>688</ele>
        <time>2020-02-19T11:21:57Z</time>
      </trkpt>
      <trkpt lat="43.33723" lon="5.54821">
        <ele>688</ele>
        <time>2020-02-19T11:22:03Z</time>
      </trkpt>
      <trkpt lat="43.33729" lon="5.5482">
        <ele>688</ele>
        <time>2020-02-19T11:22:09Z</time>
      </trkpt>
      <trkpt lat="43.33735" lon="5.54819">
        <ele>687</ele>
        <time>2020-02-19T11:22:15Z</time>
      </trkpt>
      <trkpt lat="43.33741" lon="5.54817">
        <ele>687</ele>
        <time>2020-02-19T11:22:21Z</time>
      </trkpt>
      <trkpt lat="43.33747" lon="5.54816">
        <ele>688</ele>
        <time>2020-02-19T11:22:27Z</time>
      </trkpt>
      <trkpt lat="43.33752" lon="5.54817">
        <ele>689</ele>
        <time>2020-02-19T11:22:31Z</time>
      </trkpt>
      <trkpt lat="43.33757" lon="5.54819">
        <ele>689</ele>
        <time>2020-02-19T11:22:35Z</time>
      </trkpt>
      <trkpt lat="43.33763" lon="5.54818">
        <ele>690</ele>
        <time>2020-02-19T11:22:41Z</time>
      </trkpt>
      <trkpt lat="43.33768" lon="5.54817">
        <ele>690</ele>
        <time>2020-02-19T11:22:47Z</time>
      </trkpt>
      <trkpt lat="43.33774" lon="5.54818">
        <ele>691</ele>
        <time>2020-02-19T11:22:53Z</time>
      </trkpt>
      <trkpt lat="43.3378" lon="5.54819">
        <ele>693</ele>
        <time>2020-02-19T11:22:59Z</time>
      </trkpt>
      <trkpt lat="43.33786" lon="5.54819">
        <ele>693</ele>
        <time>2020-02-19T11:23:05Z</time>
      </trkpt>
      <trkpt lat="43.33791" lon="5.5482">
        <ele>694</ele>
        <time>2020-02-19T11:23:09Z</time>
      </trkpt>
      <trkpt lat="43.33796" lon="5.54821">
        <ele>694</ele>
        <time>2020-02-19T11:23:15Z</time>
      </trkpt>
      <trkpt lat="43.33802" lon="5.54821">
        <ele>694</ele>
        <time>2020-02-19T11:23:21Z</time>
      </trkpt>
      <trkpt lat="43.33807" lon="5.5482">
        <ele>694</ele>
        <time>2020-02-19T11:23:27Z</time>
      </trkpt>
      <trkpt lat="43.33813" lon="5.5482">
        <ele>694</ele>
        <time>2020-02-19T11:23:33Z</time>
      </trkpt>
      <trkpt lat="43.33819" lon="5.5482">
        <ele>694</ele>
        <time>2020-02-19T11:23:39Z</time>
      </trkpt>
      <trkpt lat="43.33826" lon="5.54821">
        <ele>695</ele>
        <time>2020-02-19T11:23:45Z</time>
      </trkpt>
      <trkpt lat="43.3383" lon="5.54821">
        <ele>695</ele>
        <time>2020-02-19T11:23:49Z</time>
      </trkpt>
      <trkpt lat="43.33836" lon="5.54822">
        <ele>696</ele>
        <time>2020-02-19T11:23:55Z</time>
      </trkpt>
      <trkpt lat="43.33841" lon="5.54821">
        <ele>697</ele>
        <time>2020-02-19T11:24:01Z</time>
      </trkpt>
      <trkpt lat="43.33847" lon="5.54821">
        <ele>697</ele>
        <time>2020-02-19T11:24:07Z</time>
      </trkpt>
      <trkpt lat="43.33853" lon="5.54821">
        <ele>698</ele>
        <time>2020-02-19T11:24:13Z</time>
      </trkpt>
      <trkpt lat="43.33859" lon="5.54821">
        <ele>698</ele>
        <time>2020-02-19T11:24:19Z</time>
      </trkpt>
      <trkpt lat="43.33864" lon="5.5482">
        <ele>697</ele>
        <time>2020-02-19T11:24:25Z</time>
      </trkpt>
      <trkpt lat="43.3387" lon="5.54818">
        <ele>698</ele>
        <time>2020-02-19T11:24:31Z</time>
      </trkpt>
      <trkpt lat="43.33876" lon="5.54815">
        <ele>698</ele>
        <time>2020-02-19T11:24:37Z</time>
      </trkpt>
      <trkpt lat="43.3388" lon="5.54812">
        <ele>698</ele>
        <time>2020-02-19T11:24:43Z</time>
      </trkpt>
      <trkpt lat="43.33884" lon="5.54807">
        <ele>698</ele>
        <time>2020-02-19T11:24:49Z</time>
      </trkpt>
      <trkpt lat="43.33889" lon="5.54806">
        <ele>698</ele>
        <time>2020-02-19T11:24:55Z</time>
      </trkpt>
      <trkpt lat="43.33895" lon="5.54805">
        <ele>698</ele>
        <time>2020-02-19T11:25:01Z</time>
      </trkpt>
      <trkpt lat="43.33899" lon="5.54802">
        <ele>698</ele>
        <time>2020-02-19T11:25:07Z</time>
      </trkpt>
      <trkpt lat="43.33905" lon="5.54799">
        <ele>699</ele>
        <time>2020-02-19T11:25:13Z</time>
      </trkpt>
      <trkpt lat="43.3391" lon="5.54795">
        <ele>700</ele>
        <time>2020-02-19T11:25:19Z</time>
      </trkpt>
      <trkpt lat="43.33914" lon="5.54789">
        <ele>701</ele>
        <time>2020-02-19T11:25:25Z</time>
      </trkpt>
      <trkpt lat="43.33918" lon="5.54786">
        <ele>701</ele>
        <time>2020-02-19T11:25:31Z</time>
      </trkpt>
      <trkpt lat="43.33924" lon="5.54783">
        <ele>701</ele>
        <time>2020-02-19T11:25:37Z</time>
      </trkpt>
      <trkpt lat="43.33929" lon="5.54779">
        <ele>701</ele>
        <time>2020-02-19T11:25:43Z</time>
      </trkpt>
      <trkpt lat="43.33934" lon="5.54776">
        <ele>700</ele>
        <time>2020-02-19T11:25:49Z</time>
      </trkpt>
      <trkpt lat="43.3394" lon="5.54773">
        <ele>701</ele>
        <time>2020-02-19T11:25:55Z</time>
      </trkpt>
      <trkpt lat="43.33944" lon="5.5477">
        <ele>701</ele>
        <time>2020-02-19T11:26:01Z</time>
      </trkpt>
      <trkpt lat="43.3395" lon="5.54767">
        <ele>701</ele>
        <time>2020-02-19T11:26:09Z</time>
      </trkpt>
      <trkpt lat="43.33954" lon="5.54763">
        <ele>703</ele>
        <time>2020-02-19T11:26:21Z</time>
      </trkpt>
      <trkpt lat="43.3396" lon="5.54761">
        <ele>704</ele>
        <time>2020-02-19T11:26:31Z</time>
      </trkpt>
      <trkpt lat="43.33964" lon="5.5476">
        <ele>703</ele>
        <time>2020-02-19T11:26:43Z</time>
      </trkpt>
      <trkpt lat="43.3397" lon="5.54758">
        <ele>702</ele>
        <time>2020-02-19T11:26:55Z</time>
      </trkpt>
      <trkpt lat="43.33975" lon="5.54758">
        <ele>702</ele>
        <time>2020-02-19T11:27:01Z</time>
      </trkpt>
      <trkpt lat="43.3398" lon="5.54761">
        <ele>704</ele>
        <time>2020-02-19T11:27:07Z</time>
      </trkpt>
      <trkpt lat="43.33985" lon="5.54764">
        <ele>706</ele>
        <time>2020-02-19T11:27:15Z</time>
      </trkpt>
      <trkpt lat="43.3399" lon="5.54766">
        <ele>704</ele>
        <time>2020-02-19T11:27:43Z</time>
      </trkpt>
      <trkpt lat="43.33996" lon="5.5477">
        <ele>703</ele>
        <time>2020-02-19T11:27:49Z</time>
      </trkpt>
      <trkpt lat="43.34" lon="5.54773">
        <ele>701</ele>
        <time>2020-02-19T11:27:57Z</time>
      </trkpt>
      <trkpt lat="43.34004" lon="5.54768">
        <ele>699</ele>
        <time>2020-02-19T11:28:13Z</time>
      </trkpt>
      <trkpt lat="43.34009" lon="5.54768">
        <ele>700</ele>
        <time>2020-02-19T11:28:25Z</time>
      </trkpt>
      <trkpt lat="43.34015" lon="5.54766">
        <ele>699</ele>
        <time>2020-02-19T11:28:31Z</time>
      </trkpt>
      <trkpt lat="43.3402" lon="5.54764">
        <ele>696</ele>
        <time>2020-02-19T11:28:41Z</time>
      </trkpt>
      <trkpt lat="43.34025" lon="5.54762">
        <ele>695</ele>
        <time>2020-02-19T11:28:47Z</time>
      </trkpt>
      <trkpt lat="43.34029" lon="5.54759">
        <ele>693</ele>
        <time>2020-02-19T11:29:01Z</time>
      </trkpt>
      <trkpt lat="43.34034" lon="5.54756">
        <ele>693</ele>
        <time>2020-02-19T11:29:13Z</time>
      </trkpt>
      <trkpt lat="43.34039" lon="5.54755">
        <ele>691</ele>
        <time>2020-02-19T11:29:17Z</time>
      </trkpt>
      <trkpt lat="43.34045" lon="5.54752">
        <ele>691</ele>
        <time>2020-02-19T11:29:23Z</time>
      </trkpt>
      <trkpt lat="43.3405" lon="5.54747">
        <ele>689</ele>
        <time>2020-02-19T11:29:29Z</time>
      </trkpt>
      <trkpt lat="43.34054" lon="5.54745">
        <ele>692</ele>
        <time>2020-02-19T11:29:35Z</time>
      </trkpt>
      <trkpt lat="43.3406" lon="5.54746">
        <ele>695</ele>
        <time>2020-02-19T11:29:43Z</time>
      </trkpt>
      <trkpt lat="43.34062" lon="5.54741">
        <ele>697</ele>
        <time>2020-02-19T11:29:51Z</time>
      </trkpt>
      <trkpt lat="43.34066" lon="5.54737">
        <ele>698</ele>
        <time>2020-02-19T11:30:03Z</time>
      </trkpt>
      <trkpt lat="43.34071" lon="5.54734">
        <ele>701</ele>
        <time>2020-02-19T11:30:09Z</time>
      </trkpt>
      <trkpt lat="43.34075" lon="5.54729">
        <ele>702</ele>
        <time>2020-02-19T11:30:15Z</time>
      </trkpt>
      <trkpt lat="43.34079" lon="5.54725">
        <ele>702</ele>
        <time>2020-02-19T11:30:23Z</time>
      </trkpt>
      <trkpt lat="43.34083" lon="5.54723">
        <ele>705</ele>
        <time>2020-02-19T11:30:37Z</time>
      </trkpt>
      <trkpt lat="43.34087" lon="5.5472">
        <ele>705</ele>
        <time>2020-02-19T11:30:45Z</time>
      </trkpt>
      <trkpt lat="43.3409" lon="5.54714">
        <ele>707</ele>
        <time>2020-02-19T11:30:53Z</time>
      </trkpt>
      <trkpt lat="43.34093" lon="5.5471">
        <ele>602</ele>
        <time>2020-02-19T11:31:03Z</time>
      </trkpt>
      <trkpt lat="43.34098" lon="5.54708">
        <ele>675</ele>
        <time>2020-02-19T11:31:09Z</time>
      </trkpt>
      <trkpt lat="43.34102" lon="5.54705">
        <ele>711</ele>
        <time>2020-02-19T11:31:25Z</time>
      </trkpt>
      <trkpt lat="43.3411" lon="5.54701">
        <ele>712</ele>
        <time>2020-02-19T11:31:35Z</time>
      </trkpt>
      <trkpt lat="43.34114" lon="5.54699">
        <ele>714</ele>
        <time>2020-02-19T11:31:43Z</time>
      </trkpt>
      <trkpt lat="43.34119" lon="5.54695">
        <ele>715</ele>
        <time>2020-02-19T11:32:01Z</time>
      </trkpt>
      <trkpt lat="43.34123" lon="5.54692">
        <ele>718</ele>
        <time>2020-02-19T11:32:15Z</time>
      </trkpt>
      <trkpt lat="43.34128" lon="5.54694">
        <ele>720</ele>
        <time>2020-02-19T11:32:25Z</time>
      </trkpt>
      <trkpt lat="43.34132" lon="5.5469">
        <ele>722</ele>
        <time>2020-02-19T11:32:33Z</time>
      </trkpt>
      <trkpt lat="43.34137" lon="5.54684">
        <ele>723</ele>
        <time>2020-02-19T11:32:39Z</time>
      </trkpt>
      <trkpt lat="43.34141" lon="5.54678">
        <ele>724</ele>
        <time>2020-02-19T11:32:49Z</time>
      </trkpt>
      <trkpt lat="43.34144" lon="5.54673">
        <ele>725</ele>
        <time>2020-02-19T11:32:57Z</time>
      </trkpt>
      <trkpt lat="43.34149" lon="5.5467">
        <ele>724</ele>
        <time>2020-02-19T11:33:05Z</time>
      </trkpt>
      <trkpt lat="43.34153" lon="5.54664">
        <ele>726</ele>
        <time>2020-02-19T11:33:11Z</time>
      </trkpt>
      <trkpt lat="43.34155" lon="5.54657">
        <ele>728</ele>
        <time>2020-02-19T11:33:15Z</time>
      </trkpt>
      <trkpt lat="43.34155" lon="5.5465">
        <ele>727</ele>
        <time>2020-02-19T11:33:21Z</time>
      </trkpt>
      <trkpt lat="43.34152" lon="5.54646">
        <ele>726</ele>
        <time>2020-02-19T11:33:31Z</time>
      </trkpt>
      <trkpt lat="43.3415" lon="5.54638">
        <ele>725</ele>
        <time>2020-02-19T11:33:39Z</time>
      </trkpt>
      <trkpt lat="43.34149" lon="5.54631">
        <ele>727</ele>
        <time>2020-02-19T11:33:45Z</time>
      </trkpt>
      <trkpt lat="43.34146" lon="5.54624">
        <ele>727</ele>
        <time>2020-02-19T11:33:51Z</time>
      </trkpt>
      <trkpt lat="43.34144" lon="5.54617">
        <ele>727</ele>
        <time>2020-02-19T11:34:07Z</time>
      </trkpt>
      <trkpt lat="43.34141" lon="5.54612">
        <ele>727</ele>
        <time>2020-02-19T11:34:17Z</time>
      </trkpt>
      <trkpt lat="43.34139" lon="5.54606">
        <ele>727</ele>
        <time>2020-02-19T11:34:39Z</time>
      </trkpt>
      <trkpt lat="43.3414" lon="5.54598">
        <ele>727</ele>
        <time>2020-02-19T11:34:45Z</time>
      </trkpt>
      <trkpt lat="43.34142" lon="5.54592">
        <ele>726</ele>
        <time>2020-02-19T11:34:51Z</time>
      </trkpt>
      <trkpt lat="43.34145" lon="5.54586">
        <ele>725</ele>
        <time>2020-02-19T11:34:57Z</time>
      </trkpt>
      <trkpt lat="43.34147" lon="5.54578">
        <ele>726</ele>
        <time>2020-02-19T11:35:05Z</time>
      </trkpt>
      <trkpt lat="43.34147" lon="5.54571">
        <ele>728</ele>
        <time>2020-02-19T11:35:09Z</time>
      </trkpt>
      <trkpt lat="43.34148" lon="5.54563">
        <ele>730</ele>
        <time>2020-02-19T11:35:15Z</time>
      </trkpt>
      <trkpt lat="43.34151" lon="5.54557">
        <ele>729</ele>
        <time>2020-02-19T11:35:23Z</time>
      </trkpt>
      <trkpt lat="43.34154" lon="5.54552">
        <ele>729</ele>
        <time>2020-02-19T11:35:29Z</time>
      </trkpt>
      <trkpt lat="43.34158" lon="5.54548">
        <ele>728</ele>
        <time>2020-02-19T11:35:37Z</time>
      </trkpt>
      <trkpt lat="43.34162" lon="5.54544">
        <ele>729</ele>
        <time>2020-02-19T11:35:43Z</time>
      </trkpt>
      <trkpt lat="43.34169" lon="5.54544">
        <ele>730</ele>
        <time>2020-02-19T11:35:49Z</time>
      </trkpt>
      <trkpt lat="43.34175" lon="5.54543">
        <ele>731</ele>
        <time>2020-02-19T11:35:55Z</time>
      </trkpt>
      <trkpt lat="43.3418" lon="5.54542">
        <ele>731</ele>
        <time>2020-02-19T11:36:01Z</time>
      </trkpt>
      <trkpt lat="43.34185" lon="5.54539">
        <ele>731</ele>
        <time>2020-02-19T11:36:07Z</time>
      </trkpt>
      <trkpt lat="43.34191" lon="5.54537">
        <ele>731</ele>
        <time>2020-02-19T11:36:15Z</time>
      </trkpt>
      <trkpt lat="43.34196" lon="5.54537">
        <ele>732</ele>
        <time>2020-02-19T11:36:21Z</time>
      </trkpt>
      <trkpt lat="43.34202" lon="5.54534">
        <ele>732</ele>
        <time>2020-02-19T11:36:29Z</time>
      </trkpt>
      <trkpt lat="43.34206" lon="5.54529">
        <ele>732</ele>
        <time>2020-02-19T11:36:35Z</time>
      </trkpt>
      <trkpt lat="43.34208" lon="5.54523">
        <ele>733</ele>
        <time>2020-02-19T11:36:41Z</time>
      </trkpt>
      <trkpt lat="43.3421" lon="5.54517">
        <ele>733</ele>
        <time>2020-02-19T11:36:47Z</time>
      </trkpt>
      <trkpt lat="43.34213" lon="5.54513">
        <ele>734</ele>
        <time>2020-02-19T11:36:55Z</time>
      </trkpt>
      <trkpt lat="43.34213" lon="5.54507">
        <ele>734</ele>
        <time>2020-02-19T11:37:13Z</time>
      </trkpt>
      <trkpt lat="43.34211" lon="5.54501">
        <ele>732</ele>
        <time>2020-02-19T11:37:27Z</time>
      </trkpt>
      <trkpt lat="43.34211" lon="5.54494">
        <ele>732</ele>
        <time>2020-02-19T11:37:31Z</time>
      </trkpt>
      <trkpt lat="43.34211" lon="5.54485">
        <ele>733</ele>
        <time>2020-02-19T11:37:37Z</time>
      </trkpt>
      <trkpt lat="43.34212" lon="5.54478">
        <ele>734</ele>
        <time>2020-02-19T11:37:41Z</time>
      </trkpt>
      <trkpt lat="43.34213" lon="5.54471">
        <ele>733</ele>
        <time>2020-02-19T11:37:47Z</time>
      </trkpt>
      <trkpt lat="43.34209" lon="5.54465">
        <ele>732</ele>
        <time>2020-02-19T11:37:53Z</time>
      </trkpt>
      <trkpt lat="43.34205" lon="5.5446">
        <ele>730</ele>
        <time>2020-02-19T11:37:59Z</time>
      </trkpt>
      <trkpt lat="43.34204" lon="5.54453">
        <ele>730</ele>
        <time>2020-02-19T11:38:05Z</time>
      </trkpt>
      <trkpt lat="43.34204" lon="5.54444">
        <ele>730</ele>
        <time>2020-02-19T11:38:11Z</time>
      </trkpt>
      <trkpt lat="43.34204" lon="5.54436">
        <ele>731</ele>
        <time>2020-02-19T11:38:17Z</time>
      </trkpt>
      <trkpt lat="43.34204" lon="5.5443">
        <ele>731</ele>
        <time>2020-02-19T11:38:23Z</time>
      </trkpt>
      <trkpt lat="43.34204" lon="5.54423">
        <ele>731</ele>
        <time>2020-02-19T11:38:29Z</time>
      </trkpt>
      <trkpt lat="43.34205" lon="5.54416">
        <ele>730</ele>
        <time>2020-02-19T11:38:35Z</time>
      </trkpt>
      <trkpt lat="43.34207" lon="5.54409">
        <ele>731</ele>
        <time>2020-02-19T11:38:41Z</time>
      </trkpt>
      <trkpt lat="43.3421" lon="5.54404">
        <ele>731</ele>
        <time>2020-02-19T11:38:47Z</time>
      </trkpt>
      <trkpt lat="43.34211" lon="5.54397">
        <ele>731</ele>
        <time>2020-02-19T11:38:53Z</time>
      </trkpt>
      <trkpt lat="43.34213" lon="5.5439">
        <ele>730</ele>
        <time>2020-02-19T11:38:59Z</time>
      </trkpt>
      <trkpt lat="43.34215" lon="5.54383">
        <ele>730</ele>
        <time>2020-02-19T11:39:05Z</time>
      </trkpt>
      <trkpt lat="43.34217" lon="5.54376">
        <ele>730</ele>
        <time>2020-02-19T11:39:11Z</time>
      </trkpt>
      <trkpt lat="43.34218" lon="5.54369">
        <ele>729</ele>
        <time>2020-02-19T11:39:23Z</time>
      </trkpt>
      <trkpt lat="43.34218" lon="5.54362">
        <ele>729</ele>
        <time>2020-02-19T11:39:33Z</time>
      </trkpt>
      <trkpt lat="43.34219" lon="5.54354">
        <ele>728</ele>
        <time>2020-02-19T11:39:41Z</time>
      </trkpt>
      <trkpt lat="43.3422" lon="5.54348">
        <ele>726</ele>
        <time>2020-02-19T11:39:47Z</time>
      </trkpt>
      <trkpt lat="43.34222" lon="5.54342">
        <ele>724</ele>
        <time>2020-02-19T11:39:55Z</time>
      </trkpt>
      <trkpt lat="43.34224" lon="5.54335">
        <ele>722</ele>
        <time>2020-02-19T11:40:05Z</time>
      </trkpt>
      <trkpt lat="43.34224" lon="5.54327">
        <ele>721</ele>
        <time>2020-02-19T11:40:13Z</time>
      </trkpt>
      <trkpt lat="43.34224" lon="5.5432">
        <ele>718</ele>
        <time>2020-02-19T11:40:25Z</time>
      </trkpt>
      <trkpt lat="43.34225" lon="5.54314">
        <ele>717</ele>
        <time>2020-02-19T11:40:31Z</time>
      </trkpt>
      <trkpt lat="43.34225" lon="5.54307">
        <ele>715</ele>
        <time>2020-02-19T11:40:39Z</time>
      </trkpt>
      <trkpt lat="43.34226" lon="5.54299">
        <ele>714</ele>
        <time>2020-02-19T11:40:47Z</time>
      </trkpt>
      <trkpt lat="43.34225" lon="5.54291">
        <ele>712</ele>
        <time>2020-02-19T11:40:55Z</time>
      </trkpt>
      <trkpt lat="43.34226" lon="5.54285">
        <ele>711</ele>
        <time>2020-02-19T11:41:01Z</time>
      </trkpt>
      <trkpt lat="43.34225" lon="5.54278">
        <ele>709</ele>
        <time>2020-02-19T11:41:09Z</time>
      </trkpt>
      <trkpt lat="43.34226" lon="5.5427">
        <ele>708</ele>
        <time>2020-02-19T11:41:17Z</time>
      </trkpt>
      <trkpt lat="43.34225" lon="5.54262">
        <ele>705</ele>
        <time>2020-02-19T11:41:25Z</time>
      </trkpt>
      <trkpt lat="43.34224" lon="5.54256">
        <ele>704</ele>
        <time>2020-02-19T11:41:33Z</time>
      </trkpt>
      <trkpt lat="43.34226" lon="5.54249">
        <ele>703</ele>
        <time>2020-02-19T11:41:41Z</time>
      </trkpt>
      <trkpt lat="43.34227" lon="5.54242">
        <ele>701</ele>
        <time>2020-02-19T11:41:47Z</time>
      </trkpt>
      <trkpt lat="43.34226" lon="5.54234">
        <ele>700</ele>
        <time>2020-02-19T11:41:55Z</time>
      </trkpt>
      <trkpt lat="43.34228" lon="5.54226">
        <ele>700</ele>
        <time>2020-02-19T11:42:01Z</time>
      </trkpt>
      <trkpt lat="43.34233" lon="5.54224">
        <ele>699</ele>
        <time>2020-02-19T11:42:05Z</time>
      </trkpt>
      <trkpt lat="43.34238" lon="5.54224">
        <ele>698</ele>
        <time>2020-02-19T11:42:09Z</time>
      </trkpt>
      <trkpt lat="43.34244" lon="5.54222">
        <ele>697</ele>
        <time>2020-02-19T11:42:15Z</time>
      </trkpt>
      <trkpt lat="43.34249" lon="5.5422">
        <ele>696</ele>
        <time>2020-02-19T11:42:21Z</time>
      </trkpt>
      <trkpt lat="43.34254" lon="5.54215">
        <ele>696</ele>
        <time>2020-02-19T11:42:27Z</time>
      </trkpt>
      <trkpt lat="43.34257" lon="5.5421">
        <ele>694</ele>
        <time>2020-02-19T11:42:35Z</time>
      </trkpt>
      <trkpt lat="43.34258" lon="5.54203">
        <ele>694</ele>
        <time>2020-02-19T11:42:41Z</time>
      </trkpt>
      <trkpt lat="43.34259" lon="5.54196">
        <ele>694</ele>
        <time>2020-02-19T11:42:47Z</time>
      </trkpt>
      <trkpt lat="43.34263" lon="5.5419">
        <ele>692</ele>
        <time>2020-02-19T11:42:55Z</time>
      </trkpt>
      <trkpt lat="43.34265" lon="5.54183">
        <ele>691</ele>
        <time>2020-02-19T11:43:03Z</time>
      </trkpt>
      <trkpt lat="43.34266" lon="5.54177">
        <ele>690</ele>
        <time>2020-02-19T11:43:09Z</time>
      </trkpt>
      <trkpt lat="43.34268" lon="5.54169">
        <ele>688</ele>
        <time>2020-02-19T11:43:17Z</time>
      </trkpt>
      <trkpt lat="43.3427" lon="5.54163">
        <ele>687</ele>
        <time>2020-02-19T11:43:23Z</time>
      </trkpt>
      <trkpt lat="43.34272" lon="5.54157">
        <ele>686</ele>
        <time>2020-02-19T11:43:29Z</time>
      </trkpt>
      <trkpt lat="43.34276" lon="5.54151">
        <ele>685</ele>
        <time>2020-02-19T11:43:37Z</time>
      </trkpt>
      <trkpt lat="43.34279" lon="5.54146">
        <ele>683</ele>
        <time>2020-02-19T11:43:43Z</time>
      </trkpt>
      <trkpt lat="43.34282" lon="5.54141">
        <ele>682</ele>
        <time>2020-02-19T11:43:49Z</time>
      </trkpt>
      <trkpt lat="43.34285" lon="5.54136">
        <ele>681</ele>
        <time>2020-02-19T11:43:55Z</time>
      </trkpt>
      <trkpt lat="43.34288" lon="5.54129">
        <ele>680</ele>
        <time>2020-02-19T11:44:01Z</time>
      </trkpt>
      <trkpt lat="43.34289" lon="5.54122">
        <ele>680</ele>
        <time>2020-02-19T11:44:07Z</time>
      </trkpt>
      <trkpt lat="43.34287" lon="5.54114">
        <ele>679</ele>
        <time>2020-02-19T11:44:13Z</time>
      </trkpt>
      <trkpt lat="43.34286" lon="5.54108">
        <ele>679</ele>
        <time>2020-02-19T11:44:19Z</time>
      </trkpt>
      <trkpt lat="43.34286" lon="5.541">
        <ele>678</ele>
        <time>2020-02-19T11:44:25Z</time>
      </trkpt>
      <trkpt lat="43.34288" lon="5.54093">
        <ele>678</ele>
        <time>2020-02-19T11:44:31Z</time>
      </trkpt>
      <trkpt lat="43.3429" lon="5.54084">
        <ele>676</ele>
        <time>2020-02-19T11:44:37Z</time>
      </trkpt>
      <trkpt lat="43.34292" lon="5.54078">
        <ele>675</ele>
        <time>2020-02-19T11:44:43Z</time>
      </trkpt>
      <trkpt lat="43.34295" lon="5.54072">
        <ele>676</ele>
        <time>2020-02-19T11:44:49Z</time>
      </trkpt>
      <trkpt lat="43.34299" lon="5.54066">
        <ele>676</ele>
        <time>2020-02-19T11:44:55Z</time>
      </trkpt>
      <trkpt lat="43.34303" lon="5.54061">
        <ele>676</ele>
        <time>2020-02-19T11:45:01Z</time>
      </trkpt>
      <trkpt lat="43.34308" lon="5.54057">
        <ele>675</ele>
        <time>2020-02-19T11:45:07Z</time>
      </trkpt>
      <trkpt lat="43.34312" lon="5.54054">
        <ele>675</ele>
        <time>2020-02-19T11:45:13Z</time>
      </trkpt>
      <trkpt lat="43.34315" lon="5.54049">
        <ele>674</ele>
        <time>2020-02-19T11:45:19Z</time>
      </trkpt>
      <trkpt lat="43.3432" lon="5.54046">
        <ele>672</ele>
        <time>2020-02-19T11:45:25Z</time>
      </trkpt>
      <trkpt lat="43.34324" lon="5.54044">
        <ele>673</ele>
        <time>2020-02-19T11:45:31Z</time>
      </trkpt>
      <trkpt lat="43.34329" lon="5.54041">
        <ele>672</ele>
        <time>2020-02-19T11:45:39Z</time>
      </trkpt>
      <trkpt lat="43.34333" lon="5.54038">
        <ele>670</ele>
        <time>2020-02-19T11:45:47Z</time>
      </trkpt>
      <trkpt lat="43.34338" lon="5.54035">
        <ele>669</ele>
        <time>2020-02-19T11:45:55Z</time>
      </trkpt>
      <trkpt lat="43.34343" lon="5.54032">
        <ele>667</ele>
        <time>2020-02-19T11:46:03Z</time>
      </trkpt>
      <trkpt lat="43.34347" lon="5.54029">
        <ele>665</ele>
        <time>2020-02-19T11:46:09Z</time>
      </trkpt>
      <trkpt lat="43.34352" lon="5.54026">
        <ele>665</ele>
        <time>2020-02-19T11:46:17Z</time>
      </trkpt>
      <trkpt lat="43.34359" lon="5.54025">
        <ele>665</ele>
        <time>2020-02-19T11:46:27Z</time>
      </trkpt>
      <trkpt lat="43.34364" lon="5.54027">
        <ele>664</ele>
        <time>2020-02-19T11:46:33Z</time>
      </trkpt>
      <trkpt lat="43.34369" lon="5.54028">
        <ele>662</ele>
        <time>2020-02-19T11:46:39Z</time>
      </trkpt>
      <trkpt lat="43.34374" lon="5.5403">
        <ele>662</ele>
        <time>2020-02-19T11:46:45Z</time>
      </trkpt>
      <trkpt lat="43.34379" lon="5.54031">
        <ele>661</ele>
        <time>2020-02-19T11:46:51Z</time>
      </trkpt>
      <trkpt lat="43.34384" lon="5.54028">
        <ele>661</ele>
        <time>2020-02-19T11:46:57Z</time>
      </trkpt>
      <trkpt lat="43.34389" lon="5.54028">
        <ele>661</ele>
        <time>2020-02-19T11:47:03Z</time>
      </trkpt>
      <trkpt lat="43.34393" lon="5.54031">
        <ele>660</ele>
        <time>2020-02-19T11:47:11Z</time>
      </trkpt>
      <trkpt lat="43.34399" lon="5.54032">
        <ele>658</ele>
        <time>2020-02-19T11:47:19Z</time>
      </trkpt>
      <trkpt lat="43.34404" lon="5.54027">
        <ele>654</ele>
        <time>2020-02-19T11:47:31Z</time>
      </trkpt>
      <trkpt lat="43.34408" lon="5.54023">
        <ele>652</ele>
        <time>2020-02-19T11:47:37Z</time>
      </trkpt>
      <trkpt lat="43.34412" lon="5.5402">
        <ele>652</ele>
        <time>2020-02-19T11:47:43Z</time>
      </trkpt>
      <trkpt lat="43.34417" lon="5.54018">
        <ele>650</ele>
        <time>2020-02-19T11:47:51Z</time>
      </trkpt>
      <trkpt lat="43.34422" lon="5.54015">
        <ele>648</ele>
        <time>2020-02-19T11:47:59Z</time>
      </trkpt>
      <trkpt lat="43.34427" lon="5.54012">
        <ele>648</ele>
        <time>2020-02-19T11:48:05Z</time>
      </trkpt>
      <trkpt lat="43.34431" lon="5.54008">
        <ele>649</ele>
        <time>2020-02-19T11:48:11Z</time>
      </trkpt>
      <trkpt lat="43.34434" lon="5.54013">
        <ele>641</ele>
        <time>2020-02-19T11:48:57Z</time>
      </trkpt>
      <trkpt lat="43.34438" lon="5.54018">
        <ele>641</ele>
        <time>2020-02-19T11:49:03Z</time>
      </trkpt>
      <trkpt lat="43.34441" lon="5.54023">
        <ele>641</ele>
        <time>2020-02-19T11:49:09Z</time>
      </trkpt>
      <trkpt lat="43.34444" lon="5.54028">
        <ele>640</ele>
        <time>2020-02-19T11:49:15Z</time>
      </trkpt>
      <trkpt lat="43.34447" lon="5.54034">
        <ele>643</ele>
        <time>2020-02-19T11:49:23Z</time>
      </trkpt>
      <trkpt lat="43.34452" lon="5.54039">
        <ele>645</ele>
        <time>2020-02-19T11:49:29Z</time>
      </trkpt>
      <trkpt lat="43.34457" lon="5.54043">
        <ele>648</ele>
        <time>2020-02-19T11:49:37Z</time>
      </trkpt>
      <trkpt lat="43.3446" lon="5.54049">
        <ele>647</ele>
        <time>2020-02-19T11:49:45Z</time>
      </trkpt>
      <trkpt lat="43.34457" lon="5.54054">
        <ele>647</ele>
        <time>2020-02-19T11:49:55Z</time>
      </trkpt>
      <trkpt lat="43.34461" lon="5.54051">
        <ele>647</ele>
        <time>2020-02-19T11:50:27Z</time>
      </trkpt>
      <trkpt lat="43.34456" lon="5.54049">
        <ele>646</ele>
        <time>2020-02-19T11:52:51Z</time>
      </trkpt>
      <trkpt lat="43.34454" lon="5.54055">
        <ele>646</ele>
        <time>2020-02-19T11:52:57Z</time>
      </trkpt>
      <trkpt lat="43.34458" lon="5.54052">
        <ele>647</ele>
        <time>2020-02-19T11:53:17Z</time>
      </trkpt>
      <trkpt lat="43.34453" lon="5.54052">
        <ele>645</ele>
        <time>2020-02-19T13:00:05Z</time>
      </trkpt>
      <trkpt lat="43.34457" lon="5.54048">
        <ele>642</ele>
        <time>2020-02-19T13:02:53Z</time>
      </trkpt>
      <trkpt lat="43.34458" lon="5.54055">
        <ele>646</ele>
        <time>2020-02-19T13:03:55Z</time>
      </trkpt>
      <trkpt lat="43.34454" lon="5.54051">
        <ele>646</ele>
        <time>2020-02-19T13:06:15Z</time>
      </trkpt>
      <trkpt lat="43.34452" lon="5.54044">
        <ele>640</ele>
        <time>2020-02-19T13:09:29Z</time>
      </trkpt>
      <trkpt lat="43.34447" lon="5.54039">
        <ele>639</ele>
        <time>2020-02-19T13:09:35Z</time>
      </trkpt>
      <trkpt lat="43.34445" lon="5.54034">
        <ele>640</ele>
        <time>2020-02-19T13:09:41Z</time>
      </trkpt>
      <trkpt lat="43.34441" lon="5.54027">
        <ele>640</ele>
        <time>2020-02-19T13:09:47Z</time>
      </trkpt>
      <trkpt lat="43.34438" lon="5.54022">
        <ele>638</ele>
        <time>2020-02-19T13:09:53Z</time>
      </trkpt>
      <trkpt lat="43.34434" lon="5.54016">
        <ele>638</ele>
        <time>2020-02-19T13:09:57Z</time>
      </trkpt>
      <trkpt lat="43.3443" lon="5.54011">
        <ele>639</ele>
        <time>2020-02-19T13:10:01Z</time>
      </trkpt>
      <trkpt lat="43.34427" lon="5.54005">
        <ele>639</ele>
        <time>2020-02-19T13:10:05Z</time>
      </trkpt>
      <trkpt lat="43.34425" lon="5.53998">
        <ele>640</ele>
        <time>2020-02-19T13:10:11Z</time>
      </trkpt>
      <trkpt lat="43.34423" lon="5.5399">
        <ele>641</ele>
        <time>2020-02-19T13:10:17Z</time>
      </trkpt>
      <trkpt lat="43.34422" lon="5.53982">
        <ele>643</ele>
        <time>2020-02-19T13:10:23Z</time>
      </trkpt>
      <trkpt lat="43.34422" lon="5.53975">
        <ele>641</ele>
        <time>2020-02-19T13:10:29Z</time>
      </trkpt>
      <trkpt lat="43.34424" lon="5.53968">
        <ele>640</ele>
        <time>2020-02-19T13:10:35Z</time>
      </trkpt>
      <trkpt lat="43.34427" lon="5.53962">
        <ele>639</ele>
        <time>2020-02-19T13:10:41Z</time>
      </trkpt>
      <trkpt lat="43.34429" lon="5.53956">
        <ele>637</ele>
        <time>2020-02-19T13:10:47Z</time>
      </trkpt>
      <trkpt lat="43.34428" lon="5.53948">
        <ele>636</ele>
        <time>2020-02-19T13:10:55Z</time>
      </trkpt>
      <trkpt lat="43.34425" lon="5.53941">
        <ele>637</ele>
        <time>2020-02-19T13:11:01Z</time>
      </trkpt>
      <trkpt lat="43.34423" lon="5.53935">
        <ele>638</ele>
        <time>2020-02-19T13:11:05Z</time>
      </trkpt>
      <trkpt lat="43.3442" lon="5.53928">
        <ele>637</ele>
        <time>2020-02-19T13:11:11Z</time>
      </trkpt>
      <trkpt lat="43.34417" lon="5.53923">
        <ele>636</ele>
        <time>2020-02-19T13:11:15Z</time>
      </trkpt>
      <trkpt lat="43.34414" lon="5.53918">
        <ele>636</ele>
        <time>2020-02-19T13:11:19Z</time>
      </trkpt>
      <trkpt lat="43.34413" lon="5.53912">
        <ele>636</ele>
        <time>2020-02-19T13:12:43Z</time>
      </trkpt>
      <trkpt lat="43.34408" lon="5.53909">
        <ele>636</ele>
        <time>2020-02-19T13:14:05Z</time>
      </trkpt>
      <trkpt lat="43.34404" lon="5.53904">
        <ele>636</ele>
        <time>2020-02-19T13:14:13Z</time>
      </trkpt>
      <trkpt lat="43.344" lon="5.539">
        <ele>636</ele>
        <time>2020-02-19T13:14:19Z</time>
      </trkpt>
      <trkpt lat="43.34398" lon="5.53894">
        <ele>635</ele>
        <time>2020-02-19T13:14:25Z</time>
      </trkpt>
      <trkpt lat="43.34396" lon="5.53888">
        <ele>635</ele>
        <time>2020-02-19T13:14:33Z</time>
      </trkpt>
      <trkpt lat="43.34392" lon="5.53884">
        <ele>634</ele>
        <time>2020-02-19T13:14:39Z</time>
      </trkpt>
      <trkpt lat="43.34388" lon="5.5388">
        <ele>633</ele>
        <time>2020-02-19T13:14:45Z</time>
      </trkpt>
      <trkpt lat="43.34382" lon="5.53876">
        <ele>633</ele>
        <time>2020-02-19T13:14:53Z</time>
      </trkpt>
      <trkpt lat="43.34379" lon="5.5387">
        <ele>632</ele>
        <time>2020-02-19T13:14:59Z</time>
      </trkpt>
      <trkpt lat="43.34376" lon="5.53864">
        <ele>631</ele>
        <time>2020-02-19T13:15:05Z</time>
      </trkpt>
      <trkpt lat="43.34374" lon="5.53859">
        <ele>631</ele>
        <time>2020-02-19T13:15:13Z</time>
      </trkpt>
      <trkpt lat="43.34372" lon="5.53851">
        <ele>629</ele>
        <time>2020-02-19T13:15:21Z</time>
      </trkpt>
      <trkpt lat="43.34368" lon="5.53843">
        <ele>628</ele>
        <time>2020-02-19T13:15:27Z</time>
      </trkpt>
      <trkpt lat="43.34366" lon="5.53835">
        <ele>626</ele>
        <time>2020-02-19T13:15:33Z</time>
      </trkpt>
      <trkpt lat="43.34364" lon="5.53828">
        <ele>625</ele>
        <time>2020-02-19T13:15:39Z</time>
      </trkpt>
      <trkpt lat="43.34363" lon="5.53819">
        <ele>624</ele>
        <time>2020-02-19T13:15:45Z</time>
      </trkpt>
      <trkpt lat="43.34364" lon="5.53811">
        <ele>622</ele>
        <time>2020-02-19T13:15:51Z</time>
      </trkpt>
      <trkpt lat="43.34366" lon="5.53805">
        <ele>622</ele>
        <time>2020-02-19T13:15:55Z</time>
      </trkpt>
      <trkpt lat="43.3437" lon="5.53798">
        <ele>621</ele>
        <time>2020-02-19T13:16:01Z</time>
      </trkpt>
      <trkpt lat="43.34371" lon="5.53789">
        <ele>621</ele>
        <time>2020-02-19T13:16:07Z</time>
      </trkpt>
      <trkpt lat="43.34371" lon="5.53782">
        <ele>620</ele>
        <time>2020-02-19T13:16:11Z</time>
      </trkpt>
      <trkpt lat="43.3437" lon="5.53774">
        <ele>622</ele>
        <time>2020-02-19T13:16:15Z</time>
      </trkpt>
      <trkpt lat="43.34369" lon="5.53768">
        <ele>622</ele>
        <time>2020-02-19T13:16:19Z</time>
      </trkpt>
      <trkpt lat="43.34368" lon="5.5376">
        <ele>622</ele>
        <time>2020-02-19T13:16:25Z</time>
      </trkpt>
      <trkpt lat="43.34367" lon="5.53752">
        <ele>619</ele>
        <time>2020-02-19T13:16:31Z</time>
      </trkpt>
      <trkpt lat="43.34366" lon="5.53745">
        <ele>617</ele>
        <time>2020-02-19T13:16:37Z</time>
      </trkpt>
      <trkpt lat="43.34365" lon="5.53738">
        <ele>615</ele>
        <time>2020-02-19T13:16:43Z</time>
      </trkpt>
      <trkpt lat="43.34364" lon="5.53732">
        <ele>615</ele>
        <time>2020-02-19T13:16:51Z</time>
      </trkpt>
      <trkpt lat="43.34365" lon="5.53726">
        <ele>614</ele>
        <time>2020-02-19T13:16:57Z</time>
      </trkpt>
      <trkpt lat="43.34365" lon="5.53717">
        <ele>615</ele>
        <time>2020-02-19T13:17:03Z</time>
      </trkpt>
      <trkpt lat="43.34365" lon="5.5371">
        <ele>614</ele>
        <time>2020-02-19T13:17:09Z</time>
      </trkpt>
      <trkpt lat="43.34366" lon="5.53702">
        <ele>613</ele>
        <time>2020-02-19T13:17:15Z</time>
      </trkpt>
      <trkpt lat="43.34366" lon="5.53694">
        <ele>612</ele>
        <time>2020-02-19T13:17:21Z</time>
      </trkpt>
      <trkpt lat="43.34364" lon="5.53686">
        <ele>612</ele>
        <time>2020-02-19T13:17:27Z</time>
      </trkpt>
      <trkpt lat="43.34364" lon="5.53679">
        <ele>610</ele>
        <time>2020-02-19T13:17:33Z</time>
      </trkpt>
      <trkpt lat="43.34368" lon="5.53675">
        <ele>609</ele>
        <time>2020-02-19T13:17:41Z</time>
      </trkpt>
      <trkpt lat="43.34372" lon="5.53672">
        <ele>607</ele>
        <time>2020-02-19T13:17:47Z</time>
      </trkpt>
      <trkpt lat="43.34378" lon="5.53671">
        <ele>605</ele>
        <time>2020-02-19T13:17:53Z</time>
      </trkpt>
      <trkpt lat="43.34382" lon="5.53669">
        <ele>604</ele>
        <time>2020-02-19T13:18:03Z</time>
      </trkpt>
      <trkpt lat="43.34387" lon="5.53667">
        <ele>603</ele>
        <time>2020-02-19T13:18:09Z</time>
      </trkpt>
      <trkpt lat="43.34391" lon="5.53663">
        <ele>605</ele>
        <time>2020-02-19T13:18:17Z</time>
      </trkpt>
      <trkpt lat="43.34396" lon="5.53658">
        <ele>605</ele>
        <time>2020-02-19T13:18:25Z</time>
      </trkpt>
      <trkpt lat="43.344" lon="5.53651">
        <ele>607</ele>
        <time>2020-02-19T13:18:31Z</time>
      </trkpt>
      <trkpt lat="43.34404" lon="5.53645">
        <ele>606</ele>
        <time>2020-02-19T13:18:37Z</time>
      </trkpt>
      <trkpt lat="43.34407" lon="5.53642">
        <ele>604</ele>
        <time>2020-02-19T13:18:43Z</time>
      </trkpt>
      <trkpt lat="43.34412" lon="5.53639">
        <ele>600</ele>
        <time>2020-02-19T13:18:59Z</time>
      </trkpt>
      <trkpt lat="43.34409" lon="5.53634">
        <ele>602</ele>
        <time>2020-02-19T13:19:05Z</time>
      </trkpt>
      <trkpt lat="43.34404" lon="5.53633">
        <ele>602</ele>
        <time>2020-02-19T13:19:09Z</time>
      </trkpt>
      <trkpt lat="43.34399" lon="5.53633">
        <ele>602</ele>
        <time>2020-02-19T13:19:15Z</time>
      </trkpt>
      <trkpt lat="43.34394" lon="5.53634">
        <ele>602</ele>
        <time>2020-02-19T13:19:21Z</time>
      </trkpt>
      <trkpt lat="43.34388" lon="5.53634">
        <ele>600</ele>
        <time>2020-02-19T13:19:27Z</time>
      </trkpt>
      <trkpt lat="43.34383" lon="5.53637">
        <ele>602</ele>
        <time>2020-02-19T13:19:41Z</time>
      </trkpt>
      <trkpt lat="43.34378" lon="5.5364">
        <ele>602</ele>
        <time>2020-02-19T13:19:45Z</time>
      </trkpt>
      <trkpt lat="43.34372" lon="5.5364">
        <ele>602</ele>
        <time>2020-02-19T13:19:53Z</time>
      </trkpt>
      <trkpt lat="43.34367" lon="5.5364">
        <ele>601</ele>
        <time>2020-02-19T13:19:57Z</time>
      </trkpt>
      <trkpt lat="43.34363" lon="5.5364">
        <ele>601</ele>
        <time>2020-02-19T13:20:01Z</time>
      </trkpt>
      <trkpt lat="43.34357" lon="5.53639">
        <ele>603</ele>
        <time>2020-02-19T13:20:07Z</time>
      </trkpt>
      <trkpt lat="43.34352" lon="5.5364">
        <ele>602</ele>
        <time>2020-02-19T13:20:11Z</time>
      </trkpt>
      <trkpt lat="43.34346" lon="5.53637">
        <ele>598</ele>
        <time>2020-02-19T13:20:19Z</time>
      </trkpt>
      <trkpt lat="43.34342" lon="5.53635">
        <ele>599</ele>
        <time>2020-02-19T13:20:25Z</time>
      </trkpt>
      <trkpt lat="43.34336" lon="5.53636">
        <ele>599</ele>
        <time>2020-02-19T13:20:31Z</time>
      </trkpt>
      <trkpt lat="43.3433" lon="5.53637">
        <ele>598</ele>
        <time>2020-02-19T13:20:37Z</time>
      </trkpt>
      <trkpt lat="43.34325" lon="5.53639">
        <ele>596</ele>
        <time>2020-02-19T13:20:43Z</time>
      </trkpt>
      <trkpt lat="43.34318" lon="5.53643">
        <ele>594</ele>
        <time>2020-02-19T13:20:51Z</time>
      </trkpt>
      <trkpt lat="43.34315" lon="5.53647">
        <ele>590</ele>
        <time>2020-02-19T13:20:55Z</time>
      </trkpt>
      <trkpt lat="43.34309" lon="5.53652">
        <ele>589</ele>
        <time>2020-02-19T13:21:01Z</time>
      </trkpt>
      <trkpt lat="43.34303" lon="5.53653">
        <ele>588</ele>
        <time>2020-02-19T13:21:07Z</time>
      </trkpt>
      <trkpt lat="43.34297" lon="5.5365">
        <ele>589</ele>
        <time>2020-02-19T13:21:13Z</time>
      </trkpt>
      <trkpt lat="43.34291" lon="5.53647">
        <ele>589</ele>
        <time>2020-02-19T13:21:19Z</time>
      </trkpt>
      <trkpt lat="43.34285" lon="5.53642">
        <ele>588</ele>
        <time>2020-02-19T13:21:25Z</time>
      </trkpt>
      <trkpt lat="43.34281" lon="5.53639">
        <ele>589</ele>
        <time>2020-02-19T13:21:29Z</time>
      </trkpt>
      <trkpt lat="43.34277" lon="5.53634">
        <ele>589</ele>
        <time>2020-02-19T13:21:35Z</time>
      </trkpt>
      <trkpt lat="43.34272" lon="5.53631">
        <ele>590</ele>
        <time>2020-02-19T13:21:41Z</time>
      </trkpt>
      <trkpt lat="43.34267" lon="5.53629">
        <ele>590</ele>
        <time>2020-02-19T13:21:51Z</time>
      </trkpt>
      <trkpt lat="43.34263" lon="5.53631">
        <ele>588</ele>
        <time>2020-02-19T13:22:07Z</time>
      </trkpt>
      <trkpt lat="43.34258" lon="5.53633">
        <ele>586</ele>
        <time>2020-02-19T13:22:17Z</time>
      </trkpt>
      <trkpt lat="43.34253" lon="5.53634">
        <ele>586</ele>
        <time>2020-02-19T13:22:25Z</time>
      </trkpt>
      <trkpt lat="43.34248" lon="5.53637">
        <ele>585</ele>
        <time>2020-02-19T13:22:35Z</time>
      </trkpt>
      <trkpt lat="43.34244" lon="5.53636">
        <ele>584</ele>
        <time>2020-02-19T13:22:49Z</time>
      </trkpt>
      <trkpt lat="43.34239" lon="5.53633">
        <ele>582</ele>
        <time>2020-02-19T13:22:57Z</time>
      </trkpt>
      <trkpt lat="43.34234" lon="5.53633">
        <ele>584</ele>
        <time>2020-02-19T13:23:15Z</time>
      </trkpt>
      <trkpt lat="43.3423" lon="5.53635">
        <ele>587</ele>
        <time>2020-02-19T13:23:27Z</time>
      </trkpt>
      <trkpt lat="43.34225" lon="5.53635">
        <ele>593</ele>
        <time>2020-02-19T13:24:41Z</time>
      </trkpt>
      <trkpt lat="43.3422" lon="5.53637">
        <ele>594</ele>
        <time>2020-02-19T13:25:05Z</time>
      </trkpt>
      <trkpt lat="43.34216" lon="5.53639">
        <ele>595</ele>
        <time>2020-02-19T13:25:21Z</time>
      </trkpt>
      <trkpt lat="43.34212" lon="5.53642">
        <ele>593</ele>
        <time>2020-02-19T13:25:35Z</time>
      </trkpt>
      <trkpt lat="43.34209" lon="5.53649">
        <ele>589</ele>
        <time>2020-02-19T13:25:53Z</time>
      </trkpt>
      <trkpt lat="43.34204" lon="5.53649">
        <ele>574</ele>
        <time>2020-02-19T13:26:43Z</time>
      </trkpt>
      <trkpt lat="43.34201" lon="5.53641">
        <ele>569</ele>
        <time>2020-02-19T13:27:39Z</time>
      </trkpt>
      <trkpt lat="43.34198" lon="5.53647">
        <ele>566</ele>
        <time>2020-02-19T13:27:47Z</time>
      </trkpt>
      <trkpt lat="43.34194" lon="5.5365">
        <ele>563</ele>
        <time>2020-02-19T13:27:59Z</time>
      </trkpt>
      <trkpt lat="43.34191" lon="5.53645">
        <ele>560</ele>
        <time>2020-02-19T13:28:35Z</time>
      </trkpt>
      <trkpt lat="43.34185" lon="5.53646">
        <ele>557</ele>
        <time>2020-02-19T13:29:11Z</time>
      </trkpt>
      <trkpt lat="43.3418" lon="5.53647">
        <ele>559</ele>
        <time>2020-02-19T13:29:19Z</time>
      </trkpt>
      <trkpt lat="43.34175" lon="5.53649">
        <ele>556</ele>
        <time>2020-02-19T13:29:29Z</time>
      </trkpt>
      <trkpt lat="43.3417" lon="5.53644">
        <ele>554</ele>
        <time>2020-02-19T13:29:47Z</time>
      </trkpt>
      <trkpt lat="43.34166" lon="5.5364">
        <ele>552</ele>
        <time>2020-02-19T13:30:05Z</time>
      </trkpt>
      <trkpt lat="43.34161" lon="5.5364">
        <ele>551</ele>
        <time>2020-02-19T13:30:25Z</time>
      </trkpt>
      <trkpt lat="43.34156" lon="5.5364">
        <ele>548</ele>
        <time>2020-02-19T13:30:35Z</time>
      </trkpt>
      <trkpt lat="43.3415" lon="5.53638">
        <ele>550</ele>
        <time>2020-02-19T13:30:41Z</time>
      </trkpt>
      <trkpt lat="43.34145" lon="5.53637">
        <ele>547</ele>
        <time>2020-02-19T13:30:51Z</time>
      </trkpt>
      <trkpt lat="43.34143" lon="5.53631">
        <ele>550</ele>
        <time>2020-02-19T13:31:07Z</time>
      </trkpt>
      <trkpt lat="43.34139" lon="5.53631">
        <ele>546</ele>
        <time>2020-02-19T13:31:27Z</time>
      </trkpt>
      <trkpt lat="43.34134" lon="5.53629">
        <ele>543</ele>
        <time>2020-02-19T13:31:45Z</time>
      </trkpt>
      <trkpt lat="43.3413" lon="5.53626">
        <ele>542</ele>
        <time>2020-02-19T13:32:17Z</time>
      </trkpt>
      <trkpt lat="43.34127" lon="5.53631">
        <ele>538</ele>
        <time>2020-02-19T13:32:25Z</time>
      </trkpt>
      <trkpt lat="43.34122" lon="5.53631">
        <ele>539</ele>
        <time>2020-02-19T13:32:33Z</time>
      </trkpt>
      <trkpt lat="43.34116" lon="5.53631">
        <ele>539</ele>
        <time>2020-02-19T13:32:39Z</time>
      </trkpt>
      <trkpt lat="43.34111" lon="5.53631">
        <ele>539</ele>
        <time>2020-02-19T13:32:43Z</time>
      </trkpt>
      <trkpt lat="43.34106" lon="5.53629">
        <ele>536</ele>
        <time>2020-02-19T13:32:59Z</time>
      </trkpt>
      <trkpt lat="43.34101" lon="5.53629">
        <ele>537</ele>
        <time>2020-02-19T13:33:05Z</time>
      </trkpt>
      <trkpt lat="43.34095" lon="5.53629">
        <ele>538</ele>
        <time>2020-02-19T13:33:11Z</time>
      </trkpt>
      <trkpt lat="43.34091" lon="5.53632">
        <ele>535</ele>
        <time>2020-02-19T13:33:45Z</time>
      </trkpt>
      <trkpt lat="43.34086" lon="5.53631">
        <ele>536</ele>
        <time>2020-02-19T13:33:51Z</time>
      </trkpt>
      <trkpt lat="43.34081" lon="5.53629">
        <ele>535</ele>
        <time>2020-02-19T13:33:57Z</time>
      </trkpt>
      <trkpt lat="43.34076" lon="5.53627">
        <ele>533</ele>
        <time>2020-02-19T13:34:03Z</time>
      </trkpt>
      <trkpt lat="43.34071" lon="5.53625">
        <ele>531</ele>
        <time>2020-02-19T13:34:11Z</time>
      </trkpt>
      <trkpt lat="43.34066" lon="5.53623">
        <ele>530</ele>
        <time>2020-02-19T13:34:21Z</time>
      </trkpt>
      <trkpt lat="43.34061" lon="5.53622">
        <ele>530</ele>
        <time>2020-02-19T13:34:27Z</time>
      </trkpt>
      <trkpt lat="43.34057" lon="5.5362">
        <ele>532</ele>
        <time>2020-02-19T13:34:35Z</time>
      </trkpt>
      <trkpt lat="43.34051" lon="5.53617">
        <ele>531</ele>
        <time>2020-02-19T13:34:43Z</time>
      </trkpt>
      <trkpt lat="43.34046" lon="5.53615">
        <ele>531</ele>
        <time>2020-02-19T13:34:47Z</time>
      </trkpt>
      <trkpt lat="43.34041" lon="5.53613">
        <ele>530</ele>
        <time>2020-02-19T13:34:53Z</time>
      </trkpt>
      <trkpt lat="43.34036" lon="5.53611">
        <ele>527</ele>
        <time>2020-02-19T13:35:03Z</time>
      </trkpt>
      <trkpt lat="43.34031" lon="5.53609">
        <ele>527</ele>
        <time>2020-02-19T13:35:11Z</time>
      </trkpt>
      <trkpt lat="43.34025" lon="5.53606">
        <ele>526</ele>
        <time>2020-02-19T13:35:19Z</time>
      </trkpt>
      <trkpt lat="43.34021" lon="5.53604">
        <ele>525</ele>
        <time>2020-02-19T13:35:25Z</time>
      </trkpt>
      <trkpt lat="43.34016" lon="5.53602">
        <ele>522</ele>
        <time>2020-02-19T13:35:35Z</time>
      </trkpt>
      <trkpt lat="43.34012" lon="5.536">
        <ele>523</ele>
        <time>2020-02-19T13:35:41Z</time>
      </trkpt>
      <trkpt lat="43.34006" lon="5.536">
        <ele>523</ele>
        <time>2020-02-19T13:35:47Z</time>
      </trkpt>
      <trkpt lat="43.34001" lon="5.53598">
        <ele>524</ele>
        <time>2020-02-19T13:35:57Z</time>
      </trkpt>
      <trkpt lat="43.33998" lon="5.53593">
        <ele>526</ele>
        <time>2020-02-19T13:36:07Z</time>
      </trkpt>
      <trkpt lat="43.33994" lon="5.53587">
        <ele>525</ele>
        <time>2020-02-19T13:36:13Z</time>
      </trkpt>
      <trkpt lat="43.33991" lon="5.53582">
        <ele>527</ele>
        <time>2020-02-19T13:36:19Z</time>
      </trkpt>
      <trkpt lat="43.33987" lon="5.53578">
        <ele>530</ele>
        <time>2020-02-19T13:36:27Z</time>
      </trkpt>
      <trkpt lat="43.33982" lon="5.53574">
        <ele>530</ele>
        <time>2020-02-19T13:36:35Z</time>
      </trkpt>
      <trkpt lat="43.33979" lon="5.53568">
        <ele>530</ele>
        <time>2020-02-19T13:36:43Z</time>
      </trkpt>
      <trkpt lat="43.33975" lon="5.53563">
        <ele>529</ele>
        <time>2020-02-19T13:36:51Z</time>
      </trkpt>
      <trkpt lat="43.33972" lon="5.53558">
        <ele>528</ele>
        <time>2020-02-19T13:36:59Z</time>
      </trkpt>
      <trkpt lat="43.33969" lon="5.53551">
        <ele>526</ele>
        <time>2020-02-19T13:37:07Z</time>
      </trkpt>
      <trkpt lat="43.33965" lon="5.53547">
        <ele>525</ele>
        <time>2020-02-19T13:37:15Z</time>
      </trkpt>
      <trkpt lat="43.33959" lon="5.53545">
        <ele>525</ele>
        <time>2020-02-19T13:37:23Z</time>
      </trkpt>
      <trkpt lat="43.33956" lon="5.53541">
        <ele>523</ele>
        <time>2020-02-19T13:37:33Z</time>
      </trkpt>
      <trkpt lat="43.33952" lon="5.53538">
        <ele>523</ele>
        <time>2020-02-19T13:37:45Z</time>
      </trkpt>
      <trkpt lat="43.33948" lon="5.53535">
        <ele>522</ele>
        <time>2020-02-19T13:37:55Z</time>
      </trkpt>
      <trkpt lat="43.33944" lon="5.53532">
        <ele>520</ele>
        <time>2020-02-19T13:38:01Z</time>
      </trkpt>
      <trkpt lat="43.33939" lon="5.53529">
        <ele>518</ele>
        <time>2020-02-19T13:38:15Z</time>
      </trkpt>
      <trkpt lat="43.33933" lon="5.53525">
        <ele>517</ele>
        <time>2020-02-19T13:38:23Z</time>
      </trkpt>
      <trkpt lat="43.33928" lon="5.53523">
        <ele>518</ele>
        <time>2020-02-19T13:38:29Z</time>
      </trkpt>
      <trkpt lat="43.33924" lon="5.53523">
        <ele>517</ele>
        <time>2020-02-19T13:38:35Z</time>
      </trkpt>
      <trkpt lat="43.3392" lon="5.5352">
        <ele>516</ele>
        <time>2020-02-19T13:38:43Z</time>
      </trkpt>
      <trkpt lat="43.33916" lon="5.53514">
        <ele>514</ele>
        <time>2020-02-19T13:38:51Z</time>
      </trkpt>
      <trkpt lat="43.33912" lon="5.53513">
        <ele>514</ele>
        <time>2020-02-19T13:38:59Z</time>
      </trkpt>
      <trkpt lat="43.33906" lon="5.53512">
        <ele>513</ele>
        <time>2020-02-19T13:39:07Z</time>
      </trkpt>
      <trkpt lat="43.33902" lon="5.5351">
        <ele>513</ele>
        <time>2020-02-19T13:39:15Z</time>
      </trkpt>
      <trkpt lat="43.33897" lon="5.53508">
        <ele>512</ele>
        <time>2020-02-19T13:39:23Z</time>
      </trkpt>
      <trkpt lat="43.33892" lon="5.53506">
        <ele>510</ele>
        <time>2020-02-19T13:39:33Z</time>
      </trkpt>
      <trkpt lat="43.33887" lon="5.53505">
        <ele>509</ele>
        <time>2020-02-19T13:39:41Z</time>
      </trkpt>
      <trkpt lat="43.33882" lon="5.53503">
        <ele>509</ele>
        <time>2020-02-19T13:39:49Z</time>
      </trkpt>
      <trkpt lat="43.33877" lon="5.53501">
        <ele>508</ele>
        <time>2020-02-19T13:39:57Z</time>
      </trkpt>
      <trkpt lat="43.33872" lon="5.53501">
        <ele>508</ele>
        <time>2020-02-19T13:40:03Z</time>
      </trkpt>
      <trkpt lat="43.33868" lon="5.53497">
        <ele>507</ele>
        <time>2020-02-19T13:40:13Z</time>
      </trkpt>
      <trkpt lat="43.33862" lon="5.53497">
        <ele>504</ele>
        <time>2020-02-19T13:40:21Z</time>
      </trkpt>
      <trkpt lat="43.33857" lon="5.53495">
        <ele>503</ele>
        <time>2020-02-19T13:40:29Z</time>
      </trkpt>
      <trkpt lat="43.33851" lon="5.53494">
        <ele>503</ele>
        <time>2020-02-19T13:40:39Z</time>
      </trkpt>
      <trkpt lat="43.33846" lon="5.53493">
        <ele>501</ele>
        <time>2020-02-19T13:40:47Z</time>
      </trkpt>
      <trkpt lat="43.33841" lon="5.53491">
        <ele>501</ele>
        <time>2020-02-19T13:40:55Z</time>
      </trkpt>
      <trkpt lat="43.33836" lon="5.53489">
        <ele>499</ele>
        <time>2020-02-19T13:41:05Z</time>
      </trkpt>
      <trkpt lat="43.33832" lon="5.53487">
        <ele>496</ele>
        <time>2020-02-19T13:41:19Z</time>
      </trkpt>
      <trkpt lat="43.33827" lon="5.53488">
        <ele>493</ele>
        <time>2020-02-19T13:41:31Z</time>
      </trkpt>
      <trkpt lat="43.33822" lon="5.53489">
        <ele>494</ele>
        <time>2020-02-19T13:41:41Z</time>
      </trkpt>
      <trkpt lat="43.33817" lon="5.5349">
        <ele>493</ele>
        <time>2020-02-19T13:41:49Z</time>
      </trkpt>
      <trkpt lat="43.33812" lon="5.53491">
        <ele>492</ele>
        <time>2020-02-19T13:41:59Z</time>
      </trkpt>
      <trkpt lat="43.33807" lon="5.53493">
        <ele>489</ele>
        <time>2020-02-19T13:42:09Z</time>
      </trkpt>
      <trkpt lat="43.33802" lon="5.53493">
        <ele>488</ele>
        <time>2020-02-19T13:42:27Z</time>
      </trkpt>
      <trkpt lat="43.33797" lon="5.53491">
        <ele>486</ele>
        <time>2020-02-19T13:42:41Z</time>
      </trkpt>
      <trkpt lat="43.33792" lon="5.53489">
        <ele>483</ele>
        <time>2020-02-19T13:42:51Z</time>
      </trkpt>
      <trkpt lat="43.33787" lon="5.53486">
        <ele>481</ele>
        <time>2020-02-19T13:43:01Z</time>
      </trkpt>
      <trkpt lat="43.33782" lon="5.53485">
        <ele>479</ele>
        <time>2020-02-19T13:43:13Z</time>
      </trkpt>
      <trkpt lat="43.33778" lon="5.53486">
        <ele>478</ele>
        <time>2020-02-19T13:43:21Z</time>
      </trkpt>
      <trkpt lat="43.33773" lon="5.53485">
        <ele>477</ele>
        <time>2020-02-19T13:43:27Z</time>
      </trkpt>
      <trkpt lat="43.33768" lon="5.53482">
        <ele>476</ele>
        <time>2020-02-19T13:44:35Z</time>
      </trkpt>
      <trkpt lat="43.33763" lon="5.53484">
        <ele>476</ele>
        <time>2020-02-19T13:44:41Z</time>
      </trkpt>
      <trkpt lat="43.33758" lon="5.53485">
        <ele>477</ele>
        <time>2020-02-19T13:44:49Z</time>
      </trkpt>
      <trkpt lat="43.33754" lon="5.53484">
        <ele>476</ele>
        <time>2020-02-19T13:44:57Z</time>
      </trkpt>
      <trkpt lat="43.33749" lon="5.53484">
        <ele>475</ele>
        <time>2020-02-19T13:45:05Z</time>
      </trkpt>
      <trkpt lat="43.33744" lon="5.5348">
        <ele>473</ele>
        <time>2020-02-19T13:45:21Z</time>
      </trkpt>
      <trkpt lat="43.3374" lon="5.53481">
        <ele>470</ele>
        <time>2020-02-19T13:45:29Z</time>
      </trkpt>
      <trkpt lat="43.33735" lon="5.53483">
        <ele>471</ele>
        <time>2020-02-19T13:45:37Z</time>
      </trkpt>
      <trkpt lat="43.3373" lon="5.53483">
        <ele>469</ele>
        <time>2020-02-19T13:46:07Z</time>
      </trkpt>
      <trkpt lat="43.33725" lon="5.53484">
        <ele>468</ele>
        <time>2020-02-19T13:46:17Z</time>
      </trkpt>
      <trkpt lat="43.3372" lon="5.53484">
        <ele>470</ele>
        <time>2020-02-19T13:46:25Z</time>
      </trkpt>
      <trkpt lat="43.33716" lon="5.53482">
        <ele>469</ele>
        <time>2020-02-19T13:46:31Z</time>
      </trkpt>
      <trkpt lat="43.33713" lon="5.53477">
        <ele>468</ele>
        <time>2020-02-19T13:46:37Z</time>
      </trkpt>
      <trkpt lat="43.3371" lon="5.5347">
        <ele>467</ele>
        <time>2020-02-19T13:46:45Z</time>
      </trkpt>
      <trkpt lat="43.33707" lon="5.53464">
        <ele>467</ele>
        <time>2020-02-19T13:46:51Z</time>
      </trkpt>
      <trkpt lat="43.33703" lon="5.5346">
        <ele>467</ele>
        <time>2020-02-19T13:46:57Z</time>
      </trkpt>
      <trkpt lat="43.33699" lon="5.53456">
        <ele>467</ele>
        <time>2020-02-19T13:47:05Z</time>
      </trkpt>
      <trkpt lat="43.33695" lon="5.53451">
        <ele>467</ele>
        <time>2020-02-19T13:47:13Z</time>
      </trkpt>
      <trkpt lat="43.33691" lon="5.53449">
        <ele>468</ele>
        <time>2020-02-19T13:47:19Z</time>
      </trkpt>
      <trkpt lat="43.33686" lon="5.53448">
        <ele>468</ele>
        <time>2020-02-19T13:47:25Z</time>
      </trkpt>
      <trkpt lat="43.33683" lon="5.53442">
        <ele>467</ele>
        <time>2020-02-19T13:47:33Z</time>
      </trkpt>
      <trkpt lat="43.33679" lon="5.53436">
        <ele>466</ele>
        <time>2020-02-19T13:47:41Z</time>
      </trkpt>
      <trkpt lat="43.33674" lon="5.53434">
        <ele>466</ele>
        <time>2020-02-19T13:47:47Z</time>
      </trkpt>
      <trkpt lat="43.3367" lon="5.53432">
        <ele>465</ele>
        <time>2020-02-19T13:47:53Z</time>
      </trkpt>
      <trkpt lat="43.33665" lon="5.53428">
        <ele>463</ele>
        <time>2020-02-19T13:48:01Z</time>
      </trkpt>
      <trkpt lat="43.33661" lon="5.53424">
        <ele>464</ele>
        <time>2020-02-19T13:48:09Z</time>
      </trkpt>
      <trkpt lat="43.33657" lon="5.53421">
        <ele>463</ele>
        <time>2020-02-19T13:48:15Z</time>
      </trkpt>
      <trkpt lat="43.33653" lon="5.53417">
        <ele>463</ele>
        <time>2020-02-19T13:48:21Z</time>
      </trkpt>
      <trkpt lat="43.3365" lon="5.53411">
        <ele>463</ele>
        <time>2020-02-19T13:48:27Z</time>
      </trkpt>
      <trkpt lat="43.33647" lon="5.53407">
        <ele>462</ele>
        <time>2020-02-19T13:48:33Z</time>
      </trkpt>
      <trkpt lat="43.33643" lon="5.53403">
        <ele>462</ele>
        <time>2020-02-19T13:48:39Z</time>
      </trkpt>
      <trkpt lat="43.33639" lon="5.534">
        <ele>461</ele>
        <time>2020-02-19T13:48:45Z</time>
      </trkpt>
      <trkpt lat="43.33635" lon="5.53396">
        <ele>461</ele>
        <time>2020-02-19T13:48:53Z</time>
      </trkpt>
      <trkpt lat="43.33632" lon="5.53391">
        <ele>459</ele>
        <time>2020-02-19T13:49:01Z</time>
      </trkpt>
      <trkpt lat="43.33628" lon="5.53387">
        <ele>459</ele>
        <time>2020-02-19T13:49:07Z</time>
      </trkpt>
      <trkpt lat="43.33624" lon="5.53384">
        <ele>458</ele>
        <time>2020-02-19T13:49:13Z</time>
      </trkpt>
      <trkpt lat="43.3362" lon="5.5338">
        <ele>457</ele>
        <time>2020-02-19T13:49:19Z</time>
      </trkpt>
      <trkpt lat="43.33617" lon="5.53375">
        <ele>456</ele>
        <time>2020-02-19T13:49:25Z</time>
      </trkpt>
      <trkpt lat="43.33613" lon="5.5337">
        <ele>457</ele>
        <time>2020-02-19T13:49:33Z</time>
      </trkpt>
      <trkpt lat="43.33608" lon="5.53366">
        <ele>456</ele>
        <time>2020-02-19T13:49:41Z</time>
      </trkpt>
      <trkpt lat="43.33604" lon="5.53361">
        <ele>455</ele>
        <time>2020-02-19T13:49:49Z</time>
      </trkpt>
      <trkpt lat="43.336" lon="5.53355">
        <ele>455</ele>
        <time>2020-02-19T13:49:57Z</time>
      </trkpt>
      <trkpt lat="43.33597" lon="5.53351">
        <ele>454</ele>
        <time>2020-02-19T13:50:05Z</time>
      </trkpt>
      <trkpt lat="43.33594" lon="5.53346">
        <ele>453</ele>
        <time>2020-02-19T13:50:13Z</time>
      </trkpt>
      <trkpt lat="43.3359" lon="5.53342">
        <ele>452</ele>
        <time>2020-02-19T13:50:21Z</time>
      </trkpt>
      <trkpt lat="43.33586" lon="5.53339">
        <ele>451</ele>
        <time>2020-02-19T13:50:27Z</time>
      </trkpt>
      <trkpt lat="43.33581" lon="5.53336">
        <ele>450</ele>
        <time>2020-02-19T13:50:33Z</time>
      </trkpt>
      <trkpt lat="43.33577" lon="5.53334">
        <ele>450</ele>
        <time>2020-02-19T13:50:39Z</time>
      </trkpt>
      <trkpt lat="43.33573" lon="5.5333">
        <ele>449</ele>
        <time>2020-02-19T13:50:45Z</time>
      </trkpt>
      <trkpt lat="43.33568" lon="5.53328">
        <ele>448</ele>
        <time>2020-02-19T13:50:51Z</time>
      </trkpt>
      <trkpt lat="43.33563" lon="5.53325">
        <ele>447</ele>
        <time>2020-02-19T13:50:59Z</time>
      </trkpt>
      <trkpt lat="43.33558" lon="5.53321">
        <ele>446</ele>
        <time>2020-02-19T13:51:07Z</time>
      </trkpt>
      <trkpt lat="43.33553" lon="5.53316">
        <ele>446</ele>
        <time>2020-02-19T13:51:23Z</time>
      </trkpt>
      <trkpt lat="43.33548" lon="5.53313">
        <ele>446</ele>
        <time>2020-02-19T13:51:29Z</time>
      </trkpt>
      <trkpt lat="43.33543" lon="5.53311">
        <ele>445</ele>
        <time>2020-02-19T13:51:37Z</time>
      </trkpt>
      <trkpt lat="43.33538" lon="5.53307">
        <ele>444</ele>
        <time>2020-02-19T13:51:45Z</time>
      </trkpt>
      <trkpt lat="43.33534" lon="5.53306">
        <ele>443</ele>
        <time>2020-02-19T13:51:51Z</time>
      </trkpt>
      <trkpt lat="43.33529" lon="5.53304">
        <ele>443</ele>
        <time>2020-02-19T13:51:57Z</time>
      </trkpt>
      <trkpt lat="43.33524" lon="5.53303">
        <ele>442</ele>
        <time>2020-02-19T13:52:03Z</time>
      </trkpt>
      <trkpt lat="43.33519" lon="5.53303">
        <ele>441</ele>
        <time>2020-02-19T13:52:09Z</time>
      </trkpt>
      <trkpt lat="43.33514" lon="5.53303">
        <ele>440</ele>
        <time>2020-02-19T13:52:17Z</time>
      </trkpt>
      <trkpt lat="43.33508" lon="5.53303">
        <ele>437</ele>
        <time>2020-02-19T13:52:25Z</time>
      </trkpt>
      <trkpt lat="43.33503" lon="5.53306">
        <ele>435</ele>
        <time>2020-02-19T13:52:33Z</time>
      </trkpt>
      <trkpt lat="43.33498" lon="5.53307">
        <ele>435</ele>
        <time>2020-02-19T13:52:39Z</time>
      </trkpt>
      <trkpt lat="43.33493" lon="5.5331">
        <ele>433</ele>
        <time>2020-02-19T13:52:47Z</time>
      </trkpt>
      <trkpt lat="43.33489" lon="5.53313">
        <ele>432</ele>
        <time>2020-02-19T13:52:57Z</time>
      </trkpt>
      <trkpt lat="43.33485" lon="5.53316">
        <ele>432</ele>
        <time>2020-02-19T13:53:43Z</time>
      </trkpt>
      <trkpt lat="43.33481" lon="5.5332">
        <ele>431</ele>
        <time>2020-02-19T13:56:09Z</time>
      </trkpt>
      <trkpt lat="43.33478" lon="5.53325">
        <ele>429</ele>
        <time>2020-02-19T13:56:17Z</time>
      </trkpt>
      <trkpt lat="43.33473" lon="5.53328">
        <ele>428</ele>
        <time>2020-02-19T13:56:25Z</time>
      </trkpt>
      <trkpt lat="43.3347" lon="5.53333">
        <ele>427</ele>
        <time>2020-02-19T13:56:33Z</time>
      </trkpt>
      <trkpt lat="43.33466" lon="5.53339">
        <ele>426</ele>
        <time>2020-02-19T13:56:41Z</time>
      </trkpt>
      <trkpt lat="43.33463" lon="5.53345">
        <ele>425</ele>
        <time>2020-02-19T13:56:49Z</time>
      </trkpt>
      <trkpt lat="43.33461" lon="5.53352">
        <ele>424</ele>
        <time>2020-02-19T13:56:57Z</time>
      </trkpt>
      <trkpt lat="43.33457" lon="5.53358">
        <ele>423</ele>
        <time>2020-02-19T13:57:05Z</time>
      </trkpt>
      <trkpt lat="43.33454" lon="5.53362">
        <ele>422</ele>
        <time>2020-02-19T13:57:11Z</time>
      </trkpt>
      <trkpt lat="43.3345" lon="5.53365">
        <ele>421</ele>
        <time>2020-02-19T13:57:19Z</time>
      </trkpt>
      <trkpt lat="43.33447" lon="5.5337">
        <ele>418</ele>
        <time>2020-02-19T13:57:29Z</time>
      </trkpt>
      <trkpt lat="43.33443" lon="5.53375">
        <ele>415</ele>
        <time>2020-02-19T13:57:37Z</time>
      </trkpt>
      <trkpt lat="43.33441" lon="5.53382">
        <ele>416</ele>
        <time>2020-02-19T13:57:53Z</time>
      </trkpt>
      <trkpt lat="43.33438" lon="5.53388">
        <ele>418</ele>
        <time>2020-02-19T13:58:09Z</time>
      </trkpt>
      <trkpt lat="43.33433" lon="5.53393">
        <ele>417</ele>
        <time>2020-02-19T13:58:19Z</time>
      </trkpt>
      <trkpt lat="43.33429" lon="5.53398">
        <ele>415</ele>
        <time>2020-02-19T13:58:25Z</time>
      </trkpt>
      <trkpt lat="43.33425" lon="5.53404">
        <ele>415</ele>
        <time>2020-02-19T13:58:31Z</time>
      </trkpt>
      <trkpt lat="43.33423" lon="5.53409">
        <ele>414</ele>
        <time>2020-02-19T13:58:37Z</time>
      </trkpt>
      <trkpt lat="43.33419" lon="5.53413">
        <ele>413</ele>
        <time>2020-02-19T13:58:43Z</time>
      </trkpt>
      <trkpt lat="43.33417" lon="5.53418">
        <ele>412</ele>
        <time>2020-02-19T13:58:49Z</time>
      </trkpt>
      <trkpt lat="43.33413" lon="5.53424">
        <ele>411</ele>
        <time>2020-02-19T13:58:55Z</time>
      </trkpt>
      <trkpt lat="43.33408" lon="5.53427">
        <ele>411</ele>
        <time>2020-02-19T13:59:01Z</time>
      </trkpt>
      <trkpt lat="43.33404" lon="5.5343">
        <ele>410</ele>
        <time>2020-02-19T13:59:09Z</time>
      </trkpt>
      <trkpt lat="43.334" lon="5.53428">
        <ele>411</ele>
        <time>2020-02-19T13:59:35Z</time>
      </trkpt>
      <trkpt lat="43.33394" lon="5.53428">
        <ele>408</ele>
        <time>2020-02-19T14:01:17Z</time>
      </trkpt>
      <trkpt lat="43.3339" lon="5.5343">
        <ele>413</ele>
        <time>2020-02-19T14:01:33Z</time>
      </trkpt>
      <trkpt lat="43.33388" lon="5.53436">
        <ele>413</ele>
        <time>2020-02-19T14:01:39Z</time>
      </trkpt>
      <trkpt lat="43.33385" lon="5.53443">
        <ele>415</ele>
        <time>2020-02-19T14:01:45Z</time>
      </trkpt>
      <trkpt lat="43.33385" lon="5.53451">
        <ele>415</ele>
        <time>2020-02-19T14:01:55Z</time>
      </trkpt>
      <trkpt lat="43.33386" lon="5.53457">
        <ele>415</ele>
        <time>2020-02-19T14:02:01Z</time>
      </trkpt>
      <trkpt lat="43.33385" lon="5.53463">
        <ele>414</ele>
        <time>2020-02-19T14:02:11Z</time>
      </trkpt>
      <trkpt lat="43.33388" lon="5.53469">
        <ele>415</ele>
        <time>2020-02-19T14:02:21Z</time>
      </trkpt>
      <trkpt lat="43.33393" lon="5.53474">
        <ele>415</ele>
        <time>2020-02-19T14:02:27Z</time>
      </trkpt>
      <trkpt lat="43.33398" lon="5.53478">
        <ele>416</ele>
        <time>2020-02-19T14:02:33Z</time>
      </trkpt>
      <trkpt lat="43.33403" lon="5.53477">
        <ele>416</ele>
        <time>2020-02-19T14:02:39Z</time>
      </trkpt>
      <trkpt lat="43.33407" lon="5.53475">
        <ele>416</ele>
        <time>2020-02-19T14:02:47Z</time>
      </trkpt>
      <trkpt lat="43.33412" lon="5.53478">
        <ele>418</ele>
        <time>2020-02-19T14:02:57Z</time>
      </trkpt>
      <trkpt lat="43.33414" lon="5.53483">
        <ele>419</ele>
        <time>2020-02-19T14:03:07Z</time>
      </trkpt>
      <trkpt lat="43.33414" lon="5.53491">
        <ele>423</ele>
        <time>2020-02-19T14:03:19Z</time>
      </trkpt>
      <trkpt lat="43.33414" lon="5.53497">
        <ele>427</ele>
        <time>2020-02-19T14:03:37Z</time>
      </trkpt>
      <trkpt lat="43.33419" lon="5.535">
        <ele>430</ele>
        <time>2020-02-19T14:03:53Z</time>
      </trkpt>
      <trkpt lat="43.33423" lon="5.53503">
        <ele>433</ele>
        <time>2020-02-19T14:04:05Z</time>
      </trkpt>
      <trkpt lat="43.33427" lon="5.53508">
        <ele>433</ele>
        <time>2020-02-19T14:04:19Z</time>
      </trkpt>
      <trkpt lat="43.33431" lon="5.5351">
        <ele>436</ele>
        <time>2020-02-19T14:04:37Z</time>
      </trkpt>
      <trkpt lat="43.33436" lon="5.53515">
        <ele>439</ele>
        <time>2020-02-19T14:04:55Z</time>
      </trkpt>
      <trkpt lat="43.33436" lon="5.53521">
        <ele>442</ele>
        <time>2020-02-19T14:05:15Z</time>
      </trkpt>
      <trkpt lat="43.3344" lon="5.53527">
        <ele>442</ele>
        <time>2020-02-19T14:05:31Z</time>
      </trkpt>
      <trkpt lat="43.33442" lon="5.53532">
        <ele>444</ele>
        <time>2020-02-19T14:05:43Z</time>
      </trkpt>
      <trkpt lat="43.33443" lon="5.5354">
        <ele>444</ele>
        <time>2020-02-19T14:06:01Z</time>
      </trkpt>
      <trkpt lat="43.33444" lon="5.53546">
        <ele>446</ele>
        <time>2020-02-19T14:06:21Z</time>
      </trkpt>
      <trkpt lat="43.33442" lon="5.53553">
        <ele>447</ele>
        <time>2020-02-19T14:06:29Z</time>
      </trkpt>
      <trkpt lat="43.33436" lon="5.53554">
        <ele>452</ele>
        <time>2020-02-19T14:06:39Z</time>
      </trkpt>
      <trkpt lat="43.33434" lon="5.53561">
        <ele>454</ele>
        <time>2020-02-19T14:06:55Z</time>
      </trkpt>
      <trkpt lat="43.33433" lon="5.53568">
        <ele>455</ele>
        <time>2020-02-19T14:07:03Z</time>
      </trkpt>
      <trkpt lat="43.33438" lon="5.53569">
        <ele>461</ele>
        <time>2020-02-19T14:07:29Z</time>
      </trkpt>
      <trkpt lat="43.33443" lon="5.53567">
        <ele>463</ele>
        <time>2020-02-19T14:07:35Z</time>
      </trkpt>
      <trkpt lat="43.33447" lon="5.53562">
        <ele>465</ele>
        <time>2020-02-19T14:07:39Z</time>
      </trkpt>
      <trkpt lat="43.33451" lon="5.53558">
        <ele>465</ele>
        <time>2020-02-19T14:07:45Z</time>
      </trkpt>
      <trkpt lat="43.33456" lon="5.53558">
        <ele>467</ele>
        <time>2020-02-19T14:07:53Z</time>
      </trkpt>
      <trkpt lat="43.3346" lon="5.53555">
        <ele>465</ele>
        <time>2020-02-19T14:08:03Z</time>
      </trkpt>
      <trkpt lat="43.33465" lon="5.53554">
        <ele>464</ele>
        <time>2020-02-19T14:08:15Z</time>
      </trkpt>
      <trkpt lat="43.3347" lon="5.53551">
        <ele>465</ele>
        <time>2020-02-19T14:08:25Z</time>
      </trkpt>
      <trkpt lat="43.33475" lon="5.53555">
        <ele>467</ele>
        <time>2020-02-19T14:08:43Z</time>
      </trkpt>
      <trkpt lat="43.3348" lon="5.53558">
        <ele>470</ele>
        <time>2020-02-19T14:08:51Z</time>
      </trkpt>
      <trkpt lat="43.33485" lon="5.53559">
        <ele>472</ele>
        <time>2020-02-19T14:09:03Z</time>
      </trkpt>
      <trkpt lat="43.3349" lon="5.53558">
        <ele>475</ele>
        <time>2020-02-19T14:09:15Z</time>
      </trkpt>
      <trkpt lat="43.33494" lon="5.53553">
        <ele>481</ele>
        <time>2020-02-19T14:09:25Z</time>
      </trkpt>
      <trkpt lat="43.33495" lon="5.53546">
        <ele>476</ele>
        <time>2020-02-19T14:09:33Z</time>
      </trkpt>
      <trkpt lat="43.33495" lon="5.53539">
        <ele>476</ele>
        <time>2020-02-19T14:09:57Z</time>
      </trkpt>
      <trkpt lat="43.33491" lon="5.53544">
        <ele>473</ele>
        <time>2020-02-19T14:10:11Z</time>
      </trkpt>
      <trkpt lat="43.33489" lon="5.53553">
        <ele>476</ele>
        <time>2020-02-19T14:13:38Z</time>
      </trkpt>
      <trkpt lat="43.33486" lon="5.53545">
        <ele>482</ele>
        <time>2020-02-19T14:13:50Z</time>
      </trkpt>
      <trkpt lat="43.33486" lon="5.53534">
        <ele>482</ele>
        <time>2020-02-19T14:13:54Z</time>
      </trkpt>
      <trkpt lat="43.33483" lon="5.53523">
        <ele>482</ele>
        <time>2020-02-19T14:14:12Z</time>
      </trkpt>
      <trkpt lat="43.33481" lon="5.53516">
        <ele>484</ele>
        <time>2020-02-19T14:14:16Z</time>
      </trkpt>
      <trkpt lat="43.33478" lon="5.53524">
        <ele>488</ele>
        <time>2020-02-19T14:14:24Z</time>
      </trkpt>
      <trkpt lat="43.33478" lon="5.53535">
        <ele>484</ele>
        <time>2020-02-19T14:14:28Z</time>
      </trkpt>
      <trkpt lat="43.33475" lon="5.5354">
        <ele>483</ele>
        <time>2020-02-19T14:14:33Z</time>
      </trkpt>
      <trkpt lat="43.33475" lon="5.53549">
        <ele>474</ele>
        <time>2020-02-19T14:14:38Z</time>
      </trkpt>
      <trkpt lat="43.33473" lon="5.53555">
        <ele>469</ele>
        <time>2020-02-19T14:14:44Z</time>
      </trkpt>
      <trkpt lat="43.33472" lon="5.53561">
        <ele>463</ele>
        <time>2020-02-19T14:14:52Z</time>
      </trkpt>
      <trkpt lat="43.33466" lon="5.5356">
        <ele>461</ele>
        <time>2020-02-19T14:15:00Z</time>
      </trkpt>
      <trkpt lat="43.3346" lon="5.5356">
        <ele>460</ele>
        <time>2020-02-19T14:15:10Z</time>
      </trkpt>
      <trkpt lat="43.33455" lon="5.53561">
        <ele>462</ele>
        <time>2020-02-19T14:15:24Z</time>
      </trkpt>
      <trkpt lat="43.3345" lon="5.53562">
        <ele>462</ele>
        <time>2020-02-19T14:15:30Z</time>
      </trkpt>
      <trkpt lat="43.33445" lon="5.53563">
        <ele>461</ele>
        <time>2020-02-19T14:15:36Z</time>
      </trkpt>
      <trkpt lat="43.3344" lon="5.53564">
        <ele>464</ele>
        <time>2020-02-19T14:15:42Z</time>
      </trkpt>
      <trkpt lat="43.33436" lon="5.53569">
        <ele>463</ele>
        <time>2020-02-19T14:15:52Z</time>
      </trkpt>
      <trkpt lat="43.33431" lon="5.5357">
        <ele>461</ele>
        <time>2020-02-19T14:16:00Z</time>
      </trkpt>
      <trkpt lat="43.33433" lon="5.53564">
        <ele>463</ele>
        <time>2020-02-19T14:16:12Z</time>
      </trkpt>
      <trkpt lat="43.33435" lon="5.53558">
        <ele>458</ele>
        <time>2020-02-19T14:16:24Z</time>
      </trkpt>
      <trkpt lat="43.33439" lon="5.53553">
        <ele>457</ele>
        <time>2020-02-19T14:16:32Z</time>
      </trkpt>
      <trkpt lat="43.33442" lon="5.53546">
        <ele>457</ele>
        <time>2020-02-19T14:16:40Z</time>
      </trkpt>
      <trkpt lat="43.33444" lon="5.5354">
        <ele>455</ele>
        <time>2020-02-19T14:16:50Z</time>
      </trkpt>
      <trkpt lat="43.33444" lon="5.53534">
        <ele>452</ele>
        <time>2020-02-19T14:17:08Z</time>
      </trkpt>
      <trkpt lat="43.3344" lon="5.53531">
        <ele>449</ele>
        <time>2020-02-19T14:17:16Z</time>
      </trkpt>
      <trkpt lat="43.33437" lon="5.53525">
        <ele>448</ele>
        <time>2020-02-19T14:17:24Z</time>
      </trkpt>
      <trkpt lat="43.33434" lon="5.53521">
        <ele>447</ele>
        <time>2020-02-19T14:17:34Z</time>
      </trkpt>
      <trkpt lat="43.33433" lon="5.53514">
        <ele>445</ele>
        <time>2020-02-19T14:17:46Z</time>
      </trkpt>
      <trkpt lat="43.33428" lon="5.53512">
        <ele>443</ele>
        <time>2020-02-19T14:17:54Z</time>
      </trkpt>
      <trkpt lat="43.33423" lon="5.53509">
        <ele>441</ele>
        <time>2020-02-19T14:18:04Z</time>
      </trkpt>
      <trkpt lat="43.3342" lon="5.53504">
        <ele>438</ele>
        <time>2020-02-19T14:18:14Z</time>
      </trkpt>
      <trkpt lat="43.33416" lon="5.535">
        <ele>433</ele>
        <time>2020-02-19T14:18:30Z</time>
      </trkpt>
      <trkpt lat="43.33414" lon="5.53493">
        <ele>432</ele>
        <time>2020-02-19T14:18:42Z</time>
      </trkpt>
      <trkpt lat="43.33415" lon="5.53487">
        <ele>430</ele>
        <time>2020-02-19T14:18:52Z</time>
      </trkpt>
      <trkpt lat="43.33414" lon="5.53481">
        <ele>428</ele>
        <time>2020-02-19T14:19:06Z</time>
      </trkpt>
      <trkpt lat="43.3341" lon="5.53475">
        <ele>426</ele>
        <time>2020-02-19T14:19:16Z</time>
      </trkpt>
      <trkpt lat="43.33406" lon="5.53473">
        <ele>423</ele>
        <time>2020-02-19T14:19:28Z</time>
      </trkpt>
      <trkpt lat="43.33402" lon="5.53471">
        <ele>422</ele>
        <time>2020-02-19T14:19:36Z</time>
      </trkpt>
      <trkpt lat="43.33397" lon="5.53468">
        <ele>424</ele>
        <time>2020-02-19T14:19:42Z</time>
      </trkpt>
      <trkpt lat="43.33393" lon="5.53465">
        <ele>424</ele>
        <time>2020-02-19T14:19:48Z</time>
      </trkpt>
      <trkpt lat="43.33391" lon="5.53459">
        <ele>424</ele>
        <time>2020-02-19T14:19:56Z</time>
      </trkpt>
      <trkpt lat="43.33391" lon="5.53451">
        <ele>426</ele>
        <time>2020-02-19T14:20:04Z</time>
      </trkpt>
      <trkpt lat="43.33391" lon="5.53444">
        <ele>425</ele>
        <time>2020-02-19T14:20:10Z</time>
      </trkpt>
      <trkpt lat="43.3339" lon="5.53437">
        <ele>425</ele>
        <time>2020-02-19T14:20:18Z</time>
      </trkpt>
      <trkpt lat="43.33392" lon="5.53431">
        <ele>423</ele>
        <time>2020-02-19T14:20:26Z</time>
      </trkpt>
      <trkpt lat="43.33393" lon="5.53424">
        <ele>421</ele>
        <time>2020-02-19T14:20:34Z</time>
      </trkpt>
      <trkpt lat="43.33398" lon="5.53424">
        <ele>421</ele>
        <time>2020-02-19T14:20:42Z</time>
      </trkpt>
      <trkpt lat="43.33403" lon="5.53425">
        <ele>418</ele>
        <time>2020-02-19T14:21:08Z</time>
      </trkpt>
      <trkpt lat="43.33408" lon="5.53427">
        <ele>418</ele>
        <time>2020-02-19T14:21:16Z</time>
      </trkpt>
      <trkpt lat="43.33401" lon="5.53426">
        <ele>418</ele>
        <time>2020-02-19T14:22:12Z</time>
      </trkpt>
      <trkpt lat="43.33397" lon="5.53424">
        <ele>418</ele>
        <time>2020-02-19T14:22:28Z</time>
      </trkpt>
      <trkpt lat="43.33398" lon="5.53417">
        <ele>418</ele>
        <time>2020-02-19T14:24:34Z</time>
      </trkpt>
      <trkpt lat="43.33397" lon="5.5341">
        <ele>417</ele>
        <time>2020-02-19T14:24:46Z</time>
      </trkpt>
      <trkpt lat="43.33395" lon="5.53402">
        <ele>417</ele>
        <time>2020-02-19T14:24:54Z</time>
      </trkpt>
      <trkpt lat="43.33392" lon="5.53396">
        <ele>417</ele>
        <time>2020-02-19T14:25:00Z</time>
      </trkpt>
      <trkpt lat="43.33389" lon="5.5339">
        <ele>417</ele>
        <time>2020-02-19T14:25:06Z</time>
      </trkpt>
      <trkpt lat="43.33387" lon="5.53382">
        <ele>417</ele>
        <time>2020-02-19T14:25:12Z</time>
      </trkpt>
      <trkpt lat="43.33384" lon="5.53375">
        <ele>416</ele>
        <time>2020-02-19T14:25:20Z</time>
      </trkpt>
      <trkpt lat="43.3338" lon="5.53368">
        <ele>417</ele>
        <time>2020-02-19T14:25:28Z</time>
      </trkpt>
      <trkpt lat="43.33378" lon="5.53363">
        <ele>417</ele>
        <time>2020-02-19T14:25:34Z</time>
      </trkpt>
      <trkpt lat="43.33375" lon="5.53356">
        <ele>416</ele>
        <time>2020-02-19T14:25:40Z</time>
      </trkpt>
      <trkpt lat="43.33371" lon="5.53351">
        <ele>416</ele>
        <time>2020-02-19T14:25:46Z</time>
      </trkpt>
      <trkpt lat="43.33367" lon="5.53348">
        <ele>416</ele>
        <time>2020-02-19T14:25:52Z</time>
      </trkpt>
      <trkpt lat="43.33361" lon="5.53347">
        <ele>414</ele>
        <time>2020-02-19T14:25:58Z</time>
      </trkpt>
      <trkpt lat="43.33356" lon="5.53346">
        <ele>415</ele>
        <time>2020-02-19T14:26:02Z</time>
      </trkpt>
      <trkpt lat="43.33351" lon="5.53345">
        <ele>415</ele>
        <time>2020-02-19T14:26:06Z</time>
      </trkpt>
      <trkpt lat="43.33347" lon="5.53344">
        <ele>414</ele>
        <time>2020-02-19T14:26:10Z</time>
      </trkpt>
      <trkpt lat="43.33341" lon="5.5334">
        <ele>413</ele>
        <time>2020-02-19T14:26:16Z</time>
      </trkpt>
      <trkpt lat="43.33336" lon="5.53335">
        <ele>413</ele>
        <time>2020-02-19T14:26:22Z</time>
      </trkpt>
      <trkpt lat="43.33333" lon="5.53329">
        <ele>412</ele>
        <time>2020-02-19T14:26:28Z</time>
      </trkpt>
      <trkpt lat="43.3333" lon="5.53322">
        <ele>412</ele>
        <time>2020-02-19T14:26:34Z</time>
      </trkpt>
      <trkpt lat="43.33327" lon="5.53315">
        <ele>413</ele>
        <time>2020-02-19T14:26:46Z</time>
      </trkpt>
      <trkpt lat="43.33323" lon="5.53308">
        <ele>413</ele>
        <time>2020-02-19T14:26:52Z</time>
      </trkpt>
      <trkpt lat="43.3332" lon="5.53303">
        <ele>413</ele>
        <time>2020-02-19T14:26:56Z</time>
      </trkpt>
      <trkpt lat="43.33315" lon="5.53296">
        <ele>414</ele>
        <time>2020-02-19T14:27:02Z</time>
      </trkpt>
      <trkpt lat="43.33312" lon="5.53291">
        <ele>414</ele>
        <time>2020-02-19T14:27:06Z</time>
      </trkpt>
      <trkpt lat="43.33307" lon="5.53286">
        <ele>414</ele>
        <time>2020-02-19T14:27:12Z</time>
      </trkpt>
      <trkpt lat="43.33303" lon="5.53283">
        <ele>413</ele>
        <time>2020-02-19T14:27:16Z</time>
      </trkpt>
      <trkpt lat="43.33297" lon="5.53281">
        <ele>412</ele>
        <time>2020-02-19T14:27:22Z</time>
      </trkpt>
      <trkpt lat="43.33291" lon="5.53279">
        <ele>411</ele>
        <time>2020-02-19T14:27:28Z</time>
      </trkpt>
      <trkpt lat="43.33285" lon="5.5328">
        <ele>409</ele>
        <time>2020-02-19T14:27:34Z</time>
      </trkpt>
      <trkpt lat="43.33278" lon="5.53282">
        <ele>407</ele>
        <time>2020-02-19T14:27:40Z</time>
      </trkpt>
      <trkpt lat="43.33272" lon="5.53284">
        <ele>406</ele>
        <time>2020-02-19T14:27:46Z</time>
      </trkpt>
      <trkpt lat="43.33266" lon="5.53286">
        <ele>405</ele>
        <time>2020-02-19T14:27:52Z</time>
      </trkpt>
      <trkpt lat="43.33261" lon="5.53289">
        <ele>405</ele>
        <time>2020-02-19T14:27:58Z</time>
      </trkpt>
      <trkpt lat="43.33256" lon="5.53287">
        <ele>404</ele>
        <time>2020-02-19T14:28:06Z</time>
      </trkpt>
      <trkpt lat="43.33251" lon="5.53289">
        <ele>404</ele>
        <time>2020-02-19T14:28:12Z</time>
      </trkpt>
      <trkpt lat="43.33245" lon="5.5329">
        <ele>402</ele>
        <time>2020-02-19T14:28:20Z</time>
      </trkpt>
      <trkpt lat="43.3324" lon="5.53289">
        <ele>402</ele>
        <time>2020-02-19T14:28:28Z</time>
      </trkpt>
      <trkpt lat="43.33236" lon="5.53287">
        <ele>400</ele>
        <time>2020-02-19T14:28:40Z</time>
      </trkpt>
      <trkpt lat="43.33231" lon="5.53285">
        <ele>401</ele>
        <time>2020-02-19T14:28:50Z</time>
      </trkpt>
      <trkpt lat="43.33226" lon="5.53282">
        <ele>398</ele>
        <time>2020-02-19T14:29:00Z</time>
      </trkpt>
      <trkpt lat="43.3322" lon="5.53282">
        <ele>398</ele>
        <time>2020-02-19T14:29:08Z</time>
      </trkpt>
      <trkpt lat="43.33215" lon="5.53283">
        <ele>396</ele>
        <time>2020-02-19T14:29:14Z</time>
      </trkpt>
      <trkpt lat="43.33209" lon="5.53285">
        <ele>393</ele>
        <time>2020-02-19T14:29:22Z</time>
      </trkpt>
      <trkpt lat="43.33204" lon="5.53285">
        <ele>390</ele>
        <time>2020-02-19T14:29:30Z</time>
      </trkpt>
      <trkpt lat="43.33199" lon="5.53284">
        <ele>389</ele>
        <time>2020-02-19T14:29:36Z</time>
      </trkpt>
      <trkpt lat="43.33193" lon="5.53284">
        <ele>389</ele>
        <time>2020-02-19T14:29:44Z</time>
      </trkpt>
      <trkpt lat="43.33188" lon="5.53282">
        <ele>387</ele>
        <time>2020-02-19T14:29:50Z</time>
      </trkpt>
      <trkpt lat="43.33183" lon="5.5328">
        <ele>388</ele>
        <time>2020-02-19T14:29:56Z</time>
      </trkpt>
      <trkpt lat="43.33178" lon="5.53279">
        <ele>387</ele>
        <time>2020-02-19T14:30:04Z</time>
      </trkpt>
      <trkpt lat="43.33173" lon="5.53281">
        <ele>388</ele>
        <time>2020-02-19T14:30:10Z</time>
      </trkpt>
      <trkpt lat="43.33168" lon="5.53283">
        <ele>388</ele>
        <time>2020-02-19T14:30:20Z</time>
      </trkpt>
      <trkpt lat="43.33163" lon="5.53284">
        <ele>387</ele>
        <time>2020-02-19T14:30:34Z</time>
      </trkpt>
      <trkpt lat="43.3316" lon="5.53279">
        <ele>383</ele>
        <time>2020-02-19T14:30:42Z</time>
      </trkpt>
      <trkpt lat="43.33157" lon="5.53274">
        <ele>381</ele>
        <time>2020-02-19T14:30:52Z</time>
      </trkpt>
      <trkpt lat="43.33154" lon="5.5327">
        <ele>380</ele>
        <time>2020-02-19T14:30:58Z</time>
      </trkpt>
      <trkpt lat="43.3315" lon="5.53264">
        <ele>378</ele>
        <time>2020-02-19T14:31:06Z</time>
      </trkpt>
      <trkpt lat="43.33147" lon="5.5326">
        <ele>377</ele>
        <time>2020-02-19T14:31:12Z</time>
      </trkpt>
      <trkpt lat="43.33142" lon="5.53256">
        <ele>375</ele>
        <time>2020-02-19T14:31:20Z</time>
      </trkpt>
      <trkpt lat="43.33138" lon="5.53253">
        <ele>373</ele>
        <time>2020-02-19T14:31:26Z</time>
      </trkpt>
      <trkpt lat="43.33134" lon="5.53249">
        <ele>373</ele>
        <time>2020-02-19T14:31:32Z</time>
      </trkpt>
      <trkpt lat="43.33129" lon="5.53246">
        <ele>373</ele>
        <time>2020-02-19T14:31:38Z</time>
      </trkpt>
      <trkpt lat="43.33124" lon="5.53245">
        <ele>372</ele>
        <time>2020-02-19T14:31:46Z</time>
      </trkpt>
      <trkpt lat="43.33119" lon="5.53244">
        <ele>373</ele>
        <time>2020-02-19T14:31:54Z</time>
      </trkpt>
      <trkpt lat="43.33114" lon="5.53239">
        <ele>372</ele>
        <time>2020-02-19T14:32:02Z</time>
      </trkpt>
      <trkpt lat="43.3311" lon="5.53235">
        <ele>368</ele>
        <time>2020-02-19T14:32:08Z</time>
      </trkpt>
      <trkpt lat="43.33107" lon="5.53229">
        <ele>366</ele>
        <time>2020-02-19T14:32:16Z</time>
      </trkpt>
      <trkpt lat="43.33102" lon="5.53226">
        <ele>366</ele>
        <time>2020-02-19T14:32:24Z</time>
      </trkpt>
      <trkpt lat="43.33104" lon="5.5322">
        <ele>372</ele>
        <time>2020-02-19T14:32:50Z</time>
      </trkpt>
      <trkpt lat="43.33099" lon="5.53218">
        <ele>366</ele>
        <time>2020-02-19T14:33:22Z</time>
      </trkpt>
      <trkpt lat="43.33094" lon="5.53214">
        <ele>364</ele>
        <time>2020-02-19T14:33:28Z</time>
      </trkpt>
      <trkpt lat="43.33089" lon="5.53209">
        <ele>364</ele>
        <time>2020-02-19T14:33:34Z</time>
      </trkpt>
      <trkpt lat="43.33084" lon="5.53208">
        <ele>364</ele>
        <time>2020-02-19T14:33:42Z</time>
      </trkpt>
      <trkpt lat="43.33081" lon="5.53202">
        <ele>366</ele>
        <time>2020-02-19T14:33:52Z</time>
      </trkpt>
      <trkpt lat="43.33082" lon="5.53193">
        <ele>368</ele>
        <time>2020-02-19T14:33:58Z</time>
      </trkpt>
      <trkpt lat="43.33084" lon="5.53185">
        <ele>369</ele>
        <time>2020-02-19T14:34:04Z</time>
      </trkpt>
      <trkpt lat="43.33084" lon="5.53178">
        <ele>368</ele>
        <time>2020-02-19T14:34:10Z</time>
      </trkpt>
      <trkpt lat="43.33082" lon="5.53171">
        <ele>367</ele>
        <time>2020-02-19T14:34:18Z</time>
      </trkpt>
      <trkpt lat="43.33081" lon="5.53164">
        <ele>366</ele>
        <time>2020-02-19T14:34:24Z</time>
      </trkpt>
      <trkpt lat="43.3308" lon="5.53157">
        <ele>364</ele>
        <time>2020-02-19T14:34:32Z</time>
      </trkpt>
      <trkpt lat="43.3308" lon="5.5315">
        <ele>365</ele>
        <time>2020-02-19T14:34:38Z</time>
      </trkpt>
      <trkpt lat="43.33079" lon="5.53142">
        <ele>365</ele>
        <time>2020-02-19T14:34:46Z</time>
      </trkpt>
      <trkpt lat="43.3308" lon="5.53136">
        <ele>366</ele>
        <time>2020-02-19T14:34:50Z</time>
      </trkpt>
      <trkpt lat="43.33081" lon="5.5313">
        <ele>366</ele>
        <time>2020-02-19T14:34:54Z</time>
      </trkpt>
      <trkpt lat="43.33082" lon="5.53123">
        <ele>366</ele>
        <time>2020-02-19T14:35:00Z</time>
      </trkpt>
      <trkpt lat="43.33081" lon="5.53115">
        <ele>365</ele>
        <time>2020-02-19T14:35:10Z</time>
      </trkpt>
      <trkpt lat="43.3308" lon="5.53108">
        <ele>365</ele>
        <time>2020-02-19T14:35:16Z</time>
      </trkpt>
      <trkpt lat="43.33079" lon="5.53101">
        <ele>364</ele>
        <time>2020-02-19T14:35:22Z</time>
      </trkpt>
      <trkpt lat="43.33077" lon="5.53094">
        <ele>363</ele>
        <time>2020-02-19T14:35:28Z</time>
      </trkpt>
      <trkpt lat="43.33075" lon="5.53087">
        <ele>363</ele>
        <time>2020-02-19T14:35:34Z</time>
      </trkpt>
      <trkpt lat="43.33074" lon="5.53078">
        <ele>363</ele>
        <time>2020-02-19T14:35:40Z</time>
      </trkpt>
      <trkpt lat="43.33073" lon="5.53071">
        <ele>363</ele>
        <time>2020-02-19T14:35:46Z</time>
      </trkpt>
      <trkpt lat="43.33072" lon="5.53063">
        <ele>363</ele>
        <time>2020-02-19T14:35:52Z</time>
      </trkpt>
      <trkpt lat="43.33071" lon="5.53055">
        <ele>363</ele>
        <time>2020-02-19T14:35:58Z</time>
      </trkpt>
      <trkpt lat="43.33069" lon="5.53047">
        <ele>363</ele>
        <time>2020-02-19T14:36:04Z</time>
      </trkpt>
      <trkpt lat="43.33068" lon="5.53038">
        <ele>363</ele>
        <time>2020-02-19T14:36:10Z</time>
      </trkpt>
      <trkpt lat="43.33068" lon="5.53029">
        <ele>363</ele>
        <time>2020-02-19T14:36:18Z</time>
      </trkpt>
      <trkpt lat="43.33068" lon="5.53023">
        <ele>364</ele>
        <time>2020-02-19T14:36:22Z</time>
      </trkpt>
      <trkpt lat="43.33068" lon="5.53015">
        <ele>365</ele>
        <time>2020-02-19T14:36:28Z</time>
      </trkpt>
      <trkpt lat="43.33067" lon="5.53007">
        <ele>366</ele>
        <time>2020-02-19T14:36:34Z</time>
      </trkpt>
      <trkpt lat="43.33067" lon="5.52999">
        <ele>368</ele>
        <time>2020-02-19T14:36:40Z</time>
      </trkpt>
      <trkpt lat="43.33068" lon="5.5299">
        <ele>368</ele>
        <time>2020-02-19T14:36:46Z</time>
      </trkpt>
      <trkpt lat="43.33067" lon="5.52982">
        <ele>368</ele>
        <time>2020-02-19T14:36:52Z</time>
      </trkpt>
      <trkpt lat="43.33066" lon="5.52975">
        <ele>368</ele>
        <time>2020-02-19T14:36:58Z</time>
      </trkpt>
      <trkpt lat="43.33063" lon="5.52969">
        <ele>367</ele>
        <time>2020-02-19T14:37:04Z</time>
      </trkpt>
      <trkpt lat="43.3306" lon="5.52964">
        <ele>366</ele>
        <time>2020-02-19T14:37:12Z</time>
      </trkpt>
      <trkpt lat="43.33056" lon="5.52964">
        <ele>365</ele>
        <time>2020-02-19T14:38:18Z</time>
      </trkpt>
      <trkpt lat="43.33051" lon="5.52959">
        <ele>365</ele>
        <time>2020-02-19T14:38:30Z</time>
      </trkpt>
      <trkpt lat="43.33047" lon="5.52954">
        <ele>363</ele>
        <time>2020-02-19T14:38:38Z</time>
      </trkpt>
      <trkpt lat="43.33045" lon="5.52948">
        <ele>362</ele>
        <time>2020-02-19T14:38:46Z</time>
      </trkpt>
      <trkpt lat="43.33041" lon="5.52943">
        <ele>360</ele>
        <time>2020-02-19T14:38:56Z</time>
      </trkpt>
      <trkpt lat="43.33038" lon="5.52937">
        <ele>359</ele>
        <time>2020-02-19T14:39:06Z</time>
      </trkpt>
      <trkpt lat="43.33035" lon="5.52932">
        <ele>357</ele>
        <time>2020-02-19T14:39:14Z</time>
      </trkpt>
      <trkpt lat="43.33031" lon="5.52928">
        <ele>356</ele>
        <time>2020-02-19T14:39:22Z</time>
      </trkpt>
      <trkpt lat="43.33027" lon="5.52923">
        <ele>354</ele>
        <time>2020-02-19T14:39:32Z</time>
      </trkpt>
      <trkpt lat="43.33023" lon="5.52917">
        <ele>353</ele>
        <time>2020-02-19T14:39:40Z</time>
      </trkpt>
      <trkpt lat="43.33021" lon="5.52911">
        <ele>351</ele>
        <time>2020-02-19T14:39:48Z</time>
      </trkpt>
      <trkpt lat="43.33018" lon="5.52906">
        <ele>351</ele>
        <time>2020-02-19T14:39:54Z</time>
      </trkpt>
      <trkpt lat="43.33013" lon="5.52901">
        <ele>350</ele>
        <time>2020-02-19T14:40:00Z</time>
      </trkpt>
      <trkpt lat="43.33008" lon="5.52897">
        <ele>349</ele>
        <time>2020-02-19T14:40:06Z</time>
      </trkpt>
      <trkpt lat="43.33005" lon="5.52892">
        <ele>347</ele>
        <time>2020-02-19T14:40:12Z</time>
      </trkpt>
      <trkpt lat="43.33001" lon="5.52886">
        <ele>347</ele>
        <time>2020-02-19T14:40:20Z</time>
      </trkpt>
      <trkpt lat="43.32999" lon="5.5288">
        <ele>347</ele>
        <time>2020-02-19T14:40:26Z</time>
      </trkpt>
      <trkpt lat="43.32995" lon="5.52874">
        <ele>346</ele>
        <time>2020-02-19T14:40:34Z</time>
      </trkpt>
      <trkpt lat="43.32993" lon="5.52869">
        <ele>345</ele>
        <time>2020-02-19T14:40:40Z</time>
      </trkpt>
      <trkpt lat="43.3299" lon="5.52864">
        <ele>344</ele>
        <time>2020-02-19T14:40:46Z</time>
      </trkpt>
      <trkpt lat="43.32988" lon="5.52857">
        <ele>344</ele>
        <time>2020-02-19T14:40:54Z</time>
      </trkpt>
      <trkpt lat="43.32986" lon="5.52851">
        <ele>343</ele>
        <time>2020-02-19T14:41:00Z</time>
      </trkpt>
      <trkpt lat="43.32984" lon="5.52844">
        <ele>343</ele>
        <time>2020-02-19T14:41:06Z</time>
      </trkpt>
      <trkpt lat="43.3298" lon="5.52839">
        <ele>341</ele>
        <time>2020-02-19T14:41:14Z</time>
      </trkpt>
      <trkpt lat="43.32976" lon="5.52835">
        <ele>340</ele>
        <time>2020-02-19T14:41:22Z</time>
      </trkpt>
      <trkpt lat="43.32972" lon="5.5283">
        <ele>340</ele>
        <time>2020-02-19T14:41:28Z</time>
      </trkpt>
      <trkpt lat="43.32969" lon="5.52825">
        <ele>339</ele>
        <time>2020-02-19T14:41:34Z</time>
      </trkpt>
      <trkpt lat="43.32966" lon="5.5282">
        <ele>338</ele>
        <time>2020-02-19T14:41:40Z</time>
      </trkpt>
      <trkpt lat="43.32963" lon="5.52813">
        <ele>338</ele>
        <time>2020-02-19T14:41:48Z</time>
      </trkpt>
      <trkpt lat="43.3296" lon="5.52809">
        <ele>336</ele>
        <time>2020-02-19T14:41:58Z</time>
      </trkpt>
      <trkpt lat="43.32957" lon="5.52803">
        <ele>335</ele>
        <time>2020-02-19T14:42:08Z</time>
      </trkpt>
      <trkpt lat="43.32956" lon="5.52797">
        <ele>334</ele>
        <time>2020-02-19T14:42:16Z</time>
      </trkpt>
      <trkpt lat="43.32955" lon="5.52789">
        <ele>332</ele>
        <time>2020-02-19T14:42:24Z</time>
      </trkpt>
      <trkpt lat="43.32957" lon="5.52783">
        <ele>332</ele>
        <time>2020-02-19T14:42:30Z</time>
      </trkpt>
      <trkpt lat="43.32957" lon="5.52776">
        <ele>331</ele>
        <time>2020-02-19T14:42:42Z</time>
      </trkpt>
      <trkpt lat="43.32959" lon="5.5277">
        <ele>328</ele>
        <time>2020-02-19T14:42:54Z</time>
      </trkpt>
      <trkpt lat="43.32961" lon="5.52763">
        <ele>326</ele>
        <time>2020-02-19T14:43:02Z</time>
      </trkpt>
      <trkpt lat="43.32962" lon="5.52755">
        <ele>322</ele>
        <time>2020-02-19T14:43:12Z</time>
      </trkpt>
      <trkpt lat="43.3296" lon="5.52747">
        <ele>322</ele>
        <time>2020-02-19T14:43:18Z</time>
      </trkpt>
      <trkpt lat="43.32957" lon="5.5274">
        <ele>320</ele>
        <time>2020-02-19T14:43:24Z</time>
      </trkpt>
      <trkpt lat="43.32952" lon="5.52735">
        <ele>320</ele>
        <time>2020-02-19T14:43:30Z</time>
      </trkpt>
      <trkpt lat="43.32948" lon="5.52731">
        <ele>319</ele>
        <time>2020-02-19T14:43:36Z</time>
      </trkpt>
      <trkpt lat="43.32947" lon="5.52723">
        <ele>316</ele>
        <time>2020-02-19T14:43:44Z</time>
      </trkpt>
      <trkpt lat="43.32945" lon="5.52716">
        <ele>315</ele>
        <time>2020-02-19T14:43:50Z</time>
      </trkpt>
      <trkpt lat="43.32943" lon="5.52709">
        <ele>315</ele>
        <time>2020-02-19T14:43:58Z</time>
      </trkpt>
      <trkpt lat="43.32942" lon="5.52703">
        <ele>311</ele>
        <time>2020-02-19T14:44:06Z</time>
      </trkpt>
      <trkpt lat="43.32941" lon="5.52695">
        <ele>311</ele>
        <time>2020-02-19T14:44:12Z</time>
      </trkpt>
      <trkpt lat="43.32938" lon="5.5269">
        <ele>309</ele>
        <time>2020-02-19T14:44:18Z</time>
      </trkpt>
      <trkpt lat="43.32935" lon="5.52683">
        <ele>308</ele>
        <time>2020-02-19T14:44:24Z</time>
      </trkpt>
      <trkpt lat="43.32932" lon="5.52676">
        <ele>306</ele>
        <time>2020-02-19T14:44:30Z</time>
      </trkpt>
      <trkpt lat="43.32929" lon="5.5267">
        <ele>307</ele>
        <time>2020-02-19T14:44:36Z</time>
      </trkpt>
      <trkpt lat="43.32925" lon="5.52662">
        <ele>310</ele>
        <time>2020-02-19T14:44:42Z</time>
      </trkpt>
      <trkpt lat="43.32921" lon="5.52658">
        <ele>312</ele>
        <time>2020-02-19T14:44:46Z</time>
      </trkpt>
      <trkpt lat="43.32917" lon="5.52651">
        <ele>314</ele>
        <time>2020-02-19T14:44:52Z</time>
      </trkpt>
      <trkpt lat="43.32914" lon="5.52644">
        <ele>312</ele>
        <time>2020-02-19T14:45:00Z</time>
      </trkpt>
      <trkpt lat="43.32912" lon="5.52638">
        <ele>311</ele>
        <time>2020-02-19T14:45:06Z</time>
      </trkpt>
      <trkpt lat="43.32908" lon="5.52633">
        <ele>316</ele>
        <time>2020-02-19T14:45:12Z</time>
      </trkpt>
      <trkpt lat="43.32903" lon="5.52631">
        <ele>316</ele>
        <time>2020-02-19T14:45:16Z</time>
      </trkpt>
      <trkpt lat="43.32899" lon="5.52626">
        <ele>315</ele>
        <time>2020-02-19T14:45:28Z</time>
      </trkpt>
      <trkpt lat="43.32897" lon="5.52618">
        <ele>314</ele>
        <time>2020-02-19T14:45:34Z</time>
      </trkpt>
      <trkpt lat="43.32893" lon="5.52611">
        <ele>313</ele>
        <time>2020-02-19T14:45:40Z</time>
      </trkpt>
      <trkpt lat="43.32889" lon="5.52606">
        <ele>312</ele>
        <time>2020-02-19T14:45:46Z</time>
      </trkpt>
      <trkpt lat="43.32885" lon="5.52598">
        <ele>314</ele>
        <time>2020-02-19T14:45:52Z</time>
      </trkpt>
      <trkpt lat="43.32882" lon="5.52594">
        <ele>313</ele>
        <time>2020-02-19T14:45:56Z</time>
      </trkpt>
      <trkpt lat="43.3288" lon="5.52589">
        <ele>314</ele>
        <time>2020-02-19T14:46:00Z</time>
      </trkpt>
      <trkpt lat="43.32879" lon="5.5258">
        <ele>314</ele>
        <time>2020-02-19T14:46:06Z</time>
      </trkpt>
      <trkpt lat="43.32875" lon="5.52574">
        <ele>313</ele>
        <time>2020-02-19T14:46:12Z</time>
      </trkpt>
      <trkpt lat="43.32873" lon="5.52568">
        <ele>313</ele>
        <time>2020-02-19T14:46:18Z</time>
      </trkpt>
      <trkpt lat="43.32871" lon="5.52562">
        <ele>312</ele>
        <time>2020-02-19T14:46:26Z</time>
      </trkpt>
      <trkpt lat="43.32866" lon="5.52562">
        <ele>311</ele>
        <time>2020-02-19T14:48:06Z</time>
      </trkpt>
      <trkpt lat="43.32866" lon="5.52555">
        <ele>313</ele>
        <time>2020-02-19T14:48:20Z</time>
      </trkpt>
      <trkpt lat="43.32863" lon="5.52549">
        <ele>313</ele>
        <time>2020-02-19T14:48:26Z</time>
      </trkpt>
      <trkpt lat="43.32862" lon="5.52541">
        <ele>313</ele>
        <time>2020-02-19T14:48:32Z</time>
      </trkpt>
      <trkpt lat="43.32862" lon="5.52533">
        <ele>314</ele>
        <time>2020-02-19T14:48:38Z</time>
      </trkpt>
      <trkpt lat="43.32859" lon="5.52526">
        <ele>312</ele>
        <time>2020-02-19T14:48:44Z</time>
      </trkpt>
      <trkpt lat="43.32852" lon="5.52527">
        <ele>308</ele>
        <time>2020-02-19T14:48:52Z</time>
      </trkpt>
      <trkpt lat="43.32847" lon="5.52531">
        <ele>310</ele>
        <time>2020-02-19T14:48:56Z</time>
      </trkpt>
      <trkpt lat="43.32843" lon="5.52535">
        <ele>309</ele>
        <time>2020-02-19T14:49:00Z</time>
      </trkpt>
      <trkpt lat="43.32839" lon="5.52538">
        <ele>308</ele>
        <time>2020-02-19T14:49:04Z</time>
      </trkpt>
      <trkpt lat="43.32834" lon="5.52541">
        <ele>308</ele>
        <time>2020-02-19T14:49:08Z</time>
      </trkpt>
      <trkpt lat="43.32829" lon="5.52544">
        <ele>308</ele>
        <time>2020-02-19T14:49:14Z</time>
      </trkpt>
      <trkpt lat="43.32825" lon="5.52548">
        <ele>304</ele>
        <time>2020-02-19T14:49:22Z</time>
      </trkpt>
      <trkpt lat="43.32824" lon="5.52555">
        <ele>305</ele>
        <time>2020-02-19T14:49:30Z</time>
      </trkpt>
      <trkpt lat="43.32828" lon="5.52559">
        <ele>307</ele>
        <time>2020-02-19T14:49:38Z</time>
      </trkpt>
      <trkpt lat="43.32832" lon="5.52564">
        <ele>308</ele>
        <time>2020-02-19T14:49:48Z</time>
      </trkpt>
      <trkpt lat="43.32835" lon="5.5257">
        <ele>310</ele>
        <time>2020-02-19T14:49:58Z</time>
      </trkpt>
      <trkpt lat="43.32835" lon="5.52577">
        <ele>310</ele>
        <time>2020-02-19T14:50:08Z</time>
      </trkpt>
      <trkpt lat="43.32837" lon="5.52583">
        <ele>314</ele>
        <time>2020-02-19T14:50:20Z</time>
      </trkpt>
      <trkpt lat="43.3284" lon="5.52589">
        <ele>316</ele>
        <time>2020-02-19T14:50:30Z</time>
      </trkpt>
      <trkpt lat="43.32841" lon="5.52595">
        <ele>317</ele>
        <time>2020-02-19T14:50:40Z</time>
      </trkpt>
      <trkpt lat="43.3284" lon="5.52601">
        <ele>317</ele>
        <time>2020-02-19T14:50:50Z</time>
      </trkpt>
      <trkpt lat="43.32838" lon="5.52607">
        <ele>317</ele>
        <time>2020-02-19T14:51:02Z</time>
      </trkpt>
      <trkpt lat="43.32842" lon="5.52614">
        <ele>320</ele>
        <time>2020-02-19T14:51:12Z</time>
      </trkpt>
      <trkpt lat="43.32844" lon="5.5262">
        <ele>323</ele>
        <time>2020-02-19T14:51:22Z</time>
      </trkpt>
      <trkpt lat="43.32846" lon="5.52626">
        <ele>324</ele>
        <time>2020-02-19T14:51:34Z</time>
      </trkpt>
      <trkpt lat="43.32848" lon="5.52632">
        <ele>327</ele>
        <time>2020-02-19T14:51:44Z</time>
      </trkpt>
      <trkpt lat="43.32851" lon="5.52636">
        <ele>330</ele>
        <time>2020-02-19T14:51:56Z</time>
      </trkpt>
      <trkpt lat="43.32855" lon="5.52639">
        <ele>335</ele>
        <time>2020-02-19T14:52:08Z</time>
      </trkpt>
      <trkpt lat="43.32858" lon="5.52645">
        <ele>336</ele>
        <time>2020-02-19T14:52:20Z</time>
      </trkpt>
      <trkpt lat="43.3286" lon="5.52651">
        <ele>337</ele>
        <time>2020-02-19T14:52:30Z</time>
      </trkpt>
      <trkpt lat="43.32864" lon="5.52656">
        <ele>336</ele>
        <time>2020-02-19T14:52:40Z</time>
      </trkpt>
      <trkpt lat="43.32862" lon="5.52662">
        <ele>337</ele>
        <time>2020-02-19T14:53:00Z</time>
      </trkpt>
      <trkpt lat="43.32858" lon="5.52666">
        <ele>338</ele>
        <time>2020-02-19T14:53:06Z</time>
      </trkpt>
      <trkpt lat="43.32854" lon="5.52669">
        <ele>339</ele>
        <time>2020-02-19T14:53:16Z</time>
      </trkpt>
      <trkpt lat="43.32849" lon="5.5267">
        <ele>340</ele>
        <time>2020-02-19T14:53:22Z</time>
      </trkpt>
      <trkpt lat="43.32845" lon="5.52672">
        <ele>343</ele>
        <time>2020-02-19T14:53:30Z</time>
      </trkpt>
      <trkpt lat="43.32841" lon="5.52678">
        <ele>346</ele>
        <time>2020-02-19T14:53:40Z</time>
      </trkpt>
      <trkpt lat="43.32836" lon="5.52678">
        <ele>350</ele>
        <time>2020-02-19T14:53:52Z</time>
      </trkpt>
      <trkpt lat="43.32831" lon="5.52679">
        <ele>351</ele>
        <time>2020-02-19T14:54:00Z</time>
      </trkpt>
      <trkpt lat="43.32827" lon="5.52682">
        <ele>354</ele>
        <time>2020-02-19T14:54:10Z</time>
      </trkpt>
      <trkpt lat="43.32822" lon="5.52681">
        <ele>355</ele>
        <time>2020-02-19T14:54:20Z</time>
      </trkpt>
      <trkpt lat="43.32817" lon="5.52683">
        <ele>357</ele>
        <time>2020-02-19T14:54:36Z</time>
      </trkpt>
      <trkpt lat="43.32812" lon="5.52683">
        <ele>357</ele>
        <time>2020-02-19T14:54:42Z</time>
      </trkpt>
      <trkpt lat="43.32806" lon="5.52682">
        <ele>358</ele>
        <time>2020-02-19T14:54:50Z</time>
      </trkpt>
      <trkpt lat="43.328" lon="5.5268">
        <ele>358</ele>
        <time>2020-02-19T14:54:58Z</time>
      </trkpt>
      <trkpt lat="43.32795" lon="5.52678">
        <ele>360</ele>
        <time>2020-02-19T14:55:10Z</time>
      </trkpt>
      <trkpt lat="43.3279" lon="5.52675">
        <ele>360</ele>
        <time>2020-02-19T14:55:20Z</time>
      </trkpt>
      <trkpt lat="43.32785" lon="5.52673">
        <ele>360</ele>
        <time>2020-02-19T14:55:26Z</time>
      </trkpt>
      <trkpt lat="43.3278" lon="5.52669">
        <ele>359</ele>
        <time>2020-02-19T14:55:32Z</time>
      </trkpt>
      <trkpt lat="43.32774" lon="5.52669">
        <ele>359</ele>
        <time>2020-02-19T14:55:38Z</time>
      </trkpt>
      <trkpt lat="43.32769" lon="5.52668">
        <ele>359</ele>
        <time>2020-02-19T14:55:44Z</time>
      </trkpt>
      <trkpt lat="43.32764" lon="5.52669">
        <ele>360</ele>
        <time>2020-02-19T14:55:50Z</time>
      </trkpt>
      <trkpt lat="43.32758" lon="5.52672">
        <ele>361</ele>
        <time>2020-02-19T14:55:58Z</time>
      </trkpt>
      <trkpt lat="43.32753" lon="5.52675">
        <ele>364</ele>
        <time>2020-02-19T14:56:06Z</time>
      </trkpt>
      <trkpt lat="43.32748" lon="5.52677">
        <ele>367</ele>
        <time>2020-02-19T14:56:14Z</time>
      </trkpt>
      <trkpt lat="43.32743" lon="5.52679">
        <ele>366</ele>
        <time>2020-02-19T14:56:20Z</time>
      </trkpt>
      <trkpt lat="43.32738" lon="5.52681">
        <ele>366</ele>
        <time>2020-02-19T14:56:28Z</time>
      </trkpt>
      <trkpt lat="43.32734" lon="5.52683">
        <ele>365</ele>
        <time>2020-02-19T14:56:38Z</time>
      </trkpt>
      <trkpt lat="43.32729" lon="5.52681">
        <ele>372</ele>
        <time>2020-02-19T14:59:42Z</time>
      </trkpt>
      <trkpt lat="43.32724" lon="5.52683">
        <ele>370</ele>
        <time>2020-02-19T14:59:48Z</time>
      </trkpt>
      <trkpt lat="43.32717" lon="5.52685">
        <ele>377</ele>
        <time>2020-02-19T14:59:54Z</time>
      </trkpt>
      <trkpt lat="43.32713" lon="5.5269">
        <ele>374</ele>
        <time>2020-02-19T14:59:58Z</time>
      </trkpt>
      <trkpt lat="43.3271" lon="5.52694">
        <ele>372</ele>
        <time>2020-02-19T15:00:02Z</time>
      </trkpt>
      <trkpt lat="43.32705" lon="5.52695">
        <ele>370</ele>
        <time>2020-02-19T15:00:08Z</time>
      </trkpt>
      <trkpt lat="43.327" lon="5.52699">
        <ele>368</ele>
        <time>2020-02-19T15:00:16Z</time>
      </trkpt>
      <trkpt lat="43.32697" lon="5.52704">
        <ele>367</ele>
        <time>2020-02-19T15:00:22Z</time>
      </trkpt>
      <trkpt lat="43.32693" lon="5.52708">
        <ele>367</ele>
        <time>2020-02-19T15:00:28Z</time>
      </trkpt>
      <trkpt lat="43.32688" lon="5.52713">
        <ele>367</ele>
        <time>2020-02-19T15:00:34Z</time>
      </trkpt>
      <trkpt lat="43.32684" lon="5.52711">
        <ele>368</ele>
        <time>2020-02-19T15:00:40Z</time>
      </trkpt>
      <trkpt lat="43.32679" lon="5.5271">
        <ele>367</ele>
        <time>2020-02-19T15:00:48Z</time>
      </trkpt>
      <trkpt lat="43.32674" lon="5.5271">
        <ele>368</ele>
        <time>2020-02-19T15:00:56Z</time>
      </trkpt>
      <trkpt lat="43.32669" lon="5.52707">
        <ele>370</ele>
        <time>2020-02-19T15:01:02Z</time>
      </trkpt>
      <trkpt lat="43.32663" lon="5.52709">
        <ele>372</ele>
        <time>2020-02-19T15:01:10Z</time>
      </trkpt>
      <trkpt lat="43.32658" lon="5.52713">
        <ele>371</ele>
        <time>2020-02-19T15:01:16Z</time>
      </trkpt>
      <trkpt lat="43.32654" lon="5.52718">
        <ele>368</ele>
        <time>2020-02-19T15:01:24Z</time>
      </trkpt>
      <trkpt lat="43.32649" lon="5.52721">
        <ele>370</ele>
        <time>2020-02-19T15:01:32Z</time>
      </trkpt>
      <trkpt lat="43.32643" lon="5.52722">
        <ele>370</ele>
        <time>2020-02-19T15:01:42Z</time>
      </trkpt>
      <trkpt lat="43.32639" lon="5.5272">
        <ele>372</ele>
        <time>2020-02-19T15:01:48Z</time>
      </trkpt>
      <trkpt lat="43.32634" lon="5.52714">
        <ele>374</ele>
        <time>2020-02-19T15:02:00Z</time>
      </trkpt>
      <trkpt lat="43.32628" lon="5.52711">
        <ele>377</ele>
        <time>2020-02-19T15:02:04Z</time>
      </trkpt>
      <trkpt lat="43.32624" lon="5.52707">
        <ele>375</ele>
        <time>2020-02-19T15:02:12Z</time>
      </trkpt>
      <trkpt lat="43.32618" lon="5.52704">
        <ele>374</ele>
        <time>2020-02-19T15:02:22Z</time>
      </trkpt>
      <trkpt lat="43.32613" lon="5.52702">
        <ele>375</ele>
        <time>2020-02-19T15:02:26Z</time>
      </trkpt>
      <trkpt lat="43.32607" lon="5.52701">
        <ele>373</ele>
        <time>2020-02-19T15:02:32Z</time>
      </trkpt>
      <trkpt lat="43.32602" lon="5.52699">
        <ele>372</ele>
        <time>2020-02-19T15:02:38Z</time>
      </trkpt>
      <trkpt lat="43.32597" lon="5.52697">
        <ele>374</ele>
        <time>2020-02-19T15:03:00Z</time>
      </trkpt>
      <trkpt lat="43.32591" lon="5.52695">
        <ele>373</ele>
        <time>2020-02-19T15:03:06Z</time>
      </trkpt>
      <trkpt lat="43.32585" lon="5.52694">
        <ele>376</ele>
        <time>2020-02-19T15:03:12Z</time>
      </trkpt>
      <trkpt lat="43.32579" lon="5.52693">
        <ele>377</ele>
        <time>2020-02-19T15:03:18Z</time>
      </trkpt>
      <trkpt lat="43.32574" lon="5.5269">
        <ele>376</ele>
        <time>2020-02-19T15:03:26Z</time>
      </trkpt>
      <trkpt lat="43.32569" lon="5.5269">
        <ele>378</ele>
        <time>2020-02-19T15:03:32Z</time>
      </trkpt>
      <trkpt lat="43.32564" lon="5.52691">
        <ele>379</ele>
        <time>2020-02-19T15:03:40Z</time>
      </trkpt>
      <trkpt lat="43.32558" lon="5.52689">
        <ele>378</ele>
        <time>2020-02-19T15:03:50Z</time>
      </trkpt>
      <trkpt lat="43.32554" lon="5.52686">
        <ele>380</ele>
        <time>2020-02-19T15:03:54Z</time>
      </trkpt>
      <trkpt lat="43.32549" lon="5.52682">
        <ele>382</ele>
        <time>2020-02-19T15:04:00Z</time>
      </trkpt>
      <trkpt lat="43.32545" lon="5.52678">
        <ele>383</ele>
        <time>2020-02-19T15:04:04Z</time>
      </trkpt>
      <trkpt lat="43.3254" lon="5.52675">
        <ele>385</ele>
        <time>2020-02-19T15:04:10Z</time>
      </trkpt>
      <trkpt lat="43.32535" lon="5.52673">
        <ele>385</ele>
        <time>2020-02-19T15:04:14Z</time>
      </trkpt>
      <trkpt lat="43.3253" lon="5.52673">
        <ele>384</ele>
        <time>2020-02-19T15:04:22Z</time>
      </trkpt>
      <trkpt lat="43.32525" lon="5.52673">
        <ele>384</ele>
        <time>2020-02-19T15:04:30Z</time>
      </trkpt>
      <trkpt lat="43.3252" lon="5.52675">
        <ele>382</ele>
        <time>2020-02-19T15:04:36Z</time>
      </trkpt>
      <trkpt lat="43.32514" lon="5.52674">
        <ele>379</ele>
        <time>2020-02-19T15:04:44Z</time>
      </trkpt>
      <trkpt lat="43.32509" lon="5.52678">
        <ele>381</ele>
        <time>2020-02-19T15:04:50Z</time>
      </trkpt>
      <trkpt lat="43.32502" lon="5.52678">
        <ele>384</ele>
        <time>2020-02-19T15:04:58Z</time>
      </trkpt>
      <trkpt lat="43.32497" lon="5.5268">
        <ele>378</ele>
        <time>2020-02-19T15:05:08Z</time>
      </trkpt>
      <trkpt lat="43.32492" lon="5.52685">
        <ele>376</ele>
        <time>2020-02-19T15:05:16Z</time>
      </trkpt>
      <trkpt lat="43.32487" lon="5.52687">
        <ele>375</ele>
        <time>2020-02-19T15:05:22Z</time>
      </trkpt>
      <trkpt lat="43.32482" lon="5.52689">
        <ele>373</ele>
        <time>2020-02-19T15:05:28Z</time>
      </trkpt>
      <trkpt lat="43.32477" lon="5.52692">
        <ele>367</ele>
        <time>2020-02-19T15:05:38Z</time>
      </trkpt>
      <trkpt lat="43.32472" lon="5.52698">
        <ele>365</ele>
        <time>2020-02-19T15:05:46Z</time>
      </trkpt>
      <trkpt lat="43.32468" lon="5.52703">
        <ele>367</ele>
        <time>2020-02-19T15:05:52Z</time>
      </trkpt>
      <trkpt lat="43.32463" lon="5.52708">
        <ele>367</ele>
        <time>2020-02-19T15:05:58Z</time>
      </trkpt>
      <trkpt lat="43.32458" lon="5.52713">
        <ele>370</ele>
        <time>2020-02-19T15:06:02Z</time>
      </trkpt>
      <trkpt lat="43.32453" lon="5.52716">
        <ele>372</ele>
        <time>2020-02-19T15:06:06Z</time>
      </trkpt>
      <trkpt lat="43.32448" lon="5.52716">
        <ele>372</ele>
        <time>2020-02-19T15:06:12Z</time>
      </trkpt>
      <trkpt lat="43.32443" lon="5.52714">
        <ele>370</ele>
        <time>2020-02-19T15:06:20Z</time>
      </trkpt>
      <trkpt lat="43.32438" lon="5.52718">
        <ele>368</ele>
        <time>2020-02-19T15:06:28Z</time>
      </trkpt>
      <trkpt lat="43.32432" lon="5.52717">
        <ele>370</ele>
        <time>2020-02-19T15:06:34Z</time>
      </trkpt>
      <trkpt lat="43.32428" lon="5.52717">
        <ele>371</ele>
        <time>2020-02-19T15:06:38Z</time>
      </trkpt>
      <trkpt lat="43.32422" lon="5.52717">
        <ele>373</ele>
        <time>2020-02-19T15:06:44Z</time>
      </trkpt>
      <trkpt lat="43.32416" lon="5.52714">
        <ele>375</ele>
        <time>2020-02-19T15:06:50Z</time>
      </trkpt>
      <trkpt lat="43.32409" lon="5.52715">
        <ele>377</ele>
        <time>2020-02-19T15:06:56Z</time>
      </trkpt>
      <trkpt lat="43.32405" lon="5.52716">
        <ele>379</ele>
        <time>2020-02-19T15:07:00Z</time>
      </trkpt>
      <trkpt lat="43.32399" lon="5.52717">
        <ele>381</ele>
        <time>2020-02-19T15:07:06Z</time>
      </trkpt>
      <trkpt lat="43.32393" lon="5.52721">
        <ele>382</ele>
        <time>2020-02-19T15:07:12Z</time>
      </trkpt>
      <trkpt lat="43.32387" lon="5.52726">
        <ele>381</ele>
        <time>2020-02-19T15:07:18Z</time>
      </trkpt>
      <trkpt lat="43.32381" lon="5.52727">
        <ele>382</ele>
        <time>2020-02-19T15:07:24Z</time>
      </trkpt>
      <trkpt lat="43.32376" lon="5.52726">
        <ele>382</ele>
        <time>2020-02-19T15:07:30Z</time>
      </trkpt>
      <trkpt lat="43.32371" lon="5.52729">
        <ele>383</ele>
        <time>2020-02-19T15:07:36Z</time>
      </trkpt>
      <trkpt lat="43.32367" lon="5.52733">
        <ele>383</ele>
        <time>2020-02-19T15:07:40Z</time>
      </trkpt>
      <trkpt lat="43.32362" lon="5.52734">
        <ele>384</ele>
        <time>2020-02-19T15:07:48Z</time>
      </trkpt>
      <trkpt lat="43.32357" lon="5.52736">
        <ele>386</ele>
        <time>2020-02-19T15:07:54Z</time>
      </trkpt>
      <trkpt lat="43.32352" lon="5.5274">
        <ele>387</ele>
        <time>2020-02-19T15:08:00Z</time>
      </trkpt>
      <trkpt lat="43.32348" lon="5.52733">
        <ele>386</ele>
        <time>2020-02-19T15:08:06Z</time>
      </trkpt>
      <trkpt lat="43.32345" lon="5.52738">
        <ele>379</ele>
        <time>2020-02-19T15:10:50Z</time>
      </trkpt>
      <trkpt lat="43.32341" lon="5.52745">
        <ele>377</ele>
        <time>2020-02-19T15:10:56Z</time>
      </trkpt>
      <trkpt lat="43.32336" lon="5.52751">
        <ele>377</ele>
        <time>2020-02-19T15:11:02Z</time>
      </trkpt>
      <trkpt lat="43.32332" lon="5.52755">
        <ele>377</ele>
        <time>2020-02-19T15:11:08Z</time>
      </trkpt>
      <trkpt lat="43.32329" lon="5.5276">
        <ele>379</ele>
        <time>2020-02-19T15:11:12Z</time>
      </trkpt>
      <trkpt lat="43.32325" lon="5.52766">
        <ele>379</ele>
        <time>2020-02-19T15:11:18Z</time>
      </trkpt>
      <trkpt lat="43.32321" lon="5.5277">
        <ele>379</ele>
        <time>2020-02-19T15:11:24Z</time>
      </trkpt>
      <trkpt lat="43.32317" lon="5.52774">
        <ele>378</ele>
        <time>2020-02-19T15:11:30Z</time>
      </trkpt>
      <trkpt lat="43.32313" lon="5.52779">
        <ele>378</ele>
        <time>2020-02-19T15:11:36Z</time>
      </trkpt>
      <trkpt lat="43.32309" lon="5.52784">
        <ele>378</ele>
        <time>2020-02-19T15:11:42Z</time>
      </trkpt>
      <trkpt lat="43.32305" lon="5.52788">
        <ele>377</ele>
        <time>2020-02-19T15:11:48Z</time>
      </trkpt>
      <trkpt lat="43.323" lon="5.52793">
        <ele>379</ele>
        <time>2020-02-19T15:11:54Z</time>
      </trkpt>
      <trkpt lat="43.32294" lon="5.52794">
        <ele>377</ele>
        <time>2020-02-19T15:12:02Z</time>
      </trkpt>
      <trkpt lat="43.32289" lon="5.52794">
        <ele>375</ele>
        <time>2020-02-19T15:12:08Z</time>
      </trkpt>
      <trkpt lat="43.32283" lon="5.52794">
        <ele>375</ele>
        <time>2020-02-19T15:12:14Z</time>
      </trkpt>
      <trkpt lat="43.32278" lon="5.52798">
        <ele>374</ele>
        <time>2020-02-19T15:12:20Z</time>
      </trkpt>
      <trkpt lat="43.32271" lon="5.52801">
        <ele>375</ele>
        <time>2020-02-19T15:12:26Z</time>
      </trkpt>
      <trkpt lat="43.32267" lon="5.52803">
        <ele>371</ele>
        <time>2020-02-19T15:12:32Z</time>
      </trkpt>
      <trkpt lat="43.32262" lon="5.52805">
        <ele>371</ele>
        <time>2020-02-19T15:12:38Z</time>
      </trkpt>
      <trkpt lat="43.32257" lon="5.52808">
        <ele>372</ele>
        <time>2020-02-19T15:12:44Z</time>
      </trkpt>
      <trkpt lat="43.32254" lon="5.52814">
        <ele>368</ele>
        <time>2020-02-19T15:12:54Z</time>
      </trkpt>
      <trkpt lat="43.32251" lon="5.52821">
        <ele>369</ele>
        <time>2020-02-19T15:13:00Z</time>
      </trkpt>
      <trkpt lat="43.32248" lon="5.52825">
        <ele>366</ele>
        <time>2020-02-19T15:13:06Z</time>
      </trkpt>
      <trkpt lat="43.32242" lon="5.52832">
        <ele>368</ele>
        <time>2020-02-19T15:13:14Z</time>
      </trkpt>
      <trkpt lat="43.32238" lon="5.52838">
        <ele>369</ele>
        <time>2020-02-19T15:13:18Z</time>
      </trkpt>
      <trkpt lat="43.32235" lon="5.52844">
        <ele>368</ele>
        <time>2020-02-19T15:13:22Z</time>
      </trkpt>
      <trkpt lat="43.32232" lon="5.52851">
        <ele>368</ele>
        <time>2020-02-19T15:13:28Z</time>
      </trkpt>
      <trkpt lat="43.32231" lon="5.52857">
        <ele>364</ele>
        <time>2020-02-19T15:13:34Z</time>
      </trkpt>
      <trkpt lat="43.32232" lon="5.52864">
        <ele>363</ele>
        <time>2020-02-19T15:13:40Z</time>
      </trkpt>
      <trkpt lat="43.32234" lon="5.5287">
        <ele>363</ele>
        <time>2020-02-19T15:13:48Z</time>
      </trkpt>
      <trkpt lat="43.3223" lon="5.52876">
        <ele>364</ele>
        <time>2020-02-19T15:13:56Z</time>
      </trkpt>
      <trkpt lat="43.32226" lon="5.52879">
        <ele>365</ele>
        <time>2020-02-19T15:14:00Z</time>
      </trkpt>
      <trkpt lat="43.3222" lon="5.5288">
        <ele>365</ele>
        <time>2020-02-19T15:14:06Z</time>
      </trkpt>
      <trkpt lat="43.32212" lon="5.52879">
        <ele>369</ele>
        <time>2020-02-19T15:14:12Z</time>
      </trkpt>
      <trkpt lat="43.32207" lon="5.52878">
        <ele>369</ele>
        <time>2020-02-19T15:14:16Z</time>
      </trkpt>
      <trkpt lat="43.32202" lon="5.52877">
        <ele>370</ele>
        <time>2020-02-19T15:14:20Z</time>
      </trkpt>
      <trkpt lat="43.32197" lon="5.52877">
        <ele>370</ele>
        <time>2020-02-19T15:14:24Z</time>
      </trkpt>
      <trkpt lat="43.32192" lon="5.52877">
        <ele>368</ele>
        <time>2020-02-19T15:14:30Z</time>
      </trkpt>
      <trkpt lat="43.32187" lon="5.52878">
        <ele>366</ele>
        <time>2020-02-19T15:14:38Z</time>
      </trkpt>
      <trkpt lat="43.3218" lon="5.5288">
        <ele>365</ele>
        <time>2020-02-19T15:14:44Z</time>
      </trkpt>
      <trkpt lat="43.32175" lon="5.52881">
        <ele>364</ele>
        <time>2020-02-19T15:14:48Z</time>
      </trkpt>
      <trkpt lat="43.32168" lon="5.52883">
        <ele>364</ele>
        <time>2020-02-19T15:14:54Z</time>
      </trkpt>
      <trkpt lat="43.32163" lon="5.52884">
        <ele>366</ele>
        <time>2020-02-19T15:14:58Z</time>
      </trkpt>
      <trkpt lat="43.32159" lon="5.52888">
        <ele>365</ele>
        <time>2020-02-19T15:15:04Z</time>
      </trkpt>
      <trkpt lat="43.32154" lon="5.52892">
        <ele>347</ele>
        <time>2020-02-19T15:15:12Z</time>
      </trkpt>
      <trkpt lat="43.32149" lon="5.52895">
        <ele>361</ele>
        <time>2020-02-19T15:15:20Z</time>
      </trkpt>
      <trkpt lat="43.32144" lon="5.529">
        <ele>364</ele>
        <time>2020-02-19T15:15:26Z</time>
      </trkpt>
      <trkpt lat="43.32138" lon="5.52903">
        <ele>365</ele>
        <time>2020-02-19T15:15:32Z</time>
      </trkpt>
      <trkpt lat="43.32134" lon="5.52909">
        <ele>364</ele>
        <time>2020-02-19T15:15:38Z</time>
      </trkpt>
      <trkpt lat="43.3213" lon="5.52914">
        <ele>365</ele>
        <time>2020-02-19T15:15:44Z</time>
      </trkpt>
      <trkpt lat="43.32126" lon="5.52916">
        <ele>368</ele>
        <time>2020-02-19T15:15:48Z</time>
      </trkpt>
      <trkpt lat="43.32122" lon="5.52919">
        <ele>368</ele>
        <time>2020-02-19T15:15:52Z</time>
      </trkpt>
      <trkpt lat="43.32118" lon="5.52924">
        <ele>368</ele>
        <time>2020-02-19T15:15:58Z</time>
      </trkpt>
      <trkpt lat="43.32112" lon="5.52926">
        <ele>368</ele>
        <time>2020-02-19T15:16:04Z</time>
      </trkpt>
      <trkpt lat="43.32108" lon="5.52929">
        <ele>366</ele>
        <time>2020-02-19T15:16:08Z</time>
      </trkpt>
      <trkpt lat="43.32103" lon="5.52933">
        <ele>365</ele>
        <time>2020-02-19T15:16:16Z</time>
      </trkpt>
      <trkpt lat="43.32099" lon="5.52938">
        <ele>366</ele>
        <time>2020-02-19T15:16:22Z</time>
      </trkpt>
      <trkpt lat="43.32095" lon="5.52942">
        <ele>366</ele>
        <time>2020-02-19T15:16:26Z</time>
      </trkpt>
      <trkpt lat="43.32092" lon="5.52947">
        <ele>367</ele>
        <time>2020-02-19T15:16:30Z</time>
      </trkpt>
      <trkpt lat="43.32089" lon="5.52952">
        <ele>369</ele>
        <time>2020-02-19T15:16:34Z</time>
      </trkpt>
      <trkpt lat="43.32087" lon="5.52961">
        <ele>367</ele>
        <time>2020-02-19T15:16:40Z</time>
      </trkpt>
      <trkpt lat="43.32083" lon="5.52966">
        <ele>367</ele>
        <time>2020-02-19T15:16:46Z</time>
      </trkpt>
      <trkpt lat="43.3208" lon="5.52971">
        <ele>366</ele>
        <time>2020-02-19T15:16:52Z</time>
      </trkpt>
      <trkpt lat="43.32077" lon="5.52977">
        <ele>367</ele>
        <time>2020-02-19T15:16:58Z</time>
      </trkpt>
      <trkpt lat="43.32073" lon="5.52982">
        <ele>367</ele>
        <time>2020-02-19T15:17:04Z</time>
      </trkpt>
      <trkpt lat="43.3207" lon="5.52989">
        <ele>368</ele>
        <time>2020-02-19T15:17:10Z</time>
      </trkpt>
      <trkpt lat="43.32067" lon="5.52998">
        <ele>369</ele>
        <time>2020-02-19T15:17:16Z</time>
      </trkpt>
      <trkpt lat="43.32066" lon="5.53004">
        <ele>368</ele>
        <time>2020-02-19T15:17:20Z</time>
      </trkpt>
      <trkpt lat="43.32063" lon="5.53013">
        <ele>371</ele>
        <time>2020-02-19T15:17:24Z</time>
      </trkpt>
      <trkpt lat="43.32061" lon="5.53021">
        <ele>372</ele>
        <time>2020-02-19T15:17:28Z</time>
      </trkpt>
      <trkpt lat="43.32058" lon="5.53027">
        <ele>371</ele>
        <time>2020-02-19T15:17:34Z</time>
      </trkpt>
      <trkpt lat="43.32054" lon="5.53034">
        <ele>371</ele>
        <time>2020-02-19T15:17:40Z</time>
      </trkpt>
      <trkpt lat="43.3205" lon="5.53039">
        <ele>371</ele>
        <time>2020-02-19T15:17:46Z</time>
      </trkpt>
      <trkpt lat="43.32046" lon="5.53042">
        <ele>371</ele>
        <time>2020-02-19T15:17:52Z</time>
      </trkpt>
      <trkpt lat="43.3204" lon="5.53044">
        <ele>371</ele>
        <time>2020-02-19T15:17:58Z</time>
      </trkpt>
      <trkpt lat="43.32034" lon="5.53048">
        <ele>372</ele>
        <time>2020-02-19T15:18:04Z</time>
      </trkpt>
      <trkpt lat="43.3203" lon="5.5305">
        <ele>372</ele>
        <time>2020-02-19T15:18:08Z</time>
      </trkpt>
      <trkpt lat="43.32025" lon="5.53053">
        <ele>372</ele>
        <time>2020-02-19T15:18:14Z</time>
      </trkpt>
      <trkpt lat="43.32019" lon="5.53054">
        <ele>369</ele>
        <time>2020-02-19T15:18:22Z</time>
      </trkpt>
      <trkpt lat="43.32013" lon="5.53053">
        <ele>370</ele>
        <time>2020-02-19T15:18:28Z</time>
      </trkpt>
      <trkpt lat="43.32008" lon="5.53051">
        <ele>370</ele>
        <time>2020-02-19T15:18:32Z</time>
      </trkpt>
      <trkpt lat="43.32002" lon="5.5305">
        <ele>370</ele>
        <time>2020-02-19T15:18:38Z</time>
      </trkpt>
      <trkpt lat="43.31997" lon="5.53051">
        <ele>370</ele>
        <time>2020-02-19T15:18:44Z</time>
      </trkpt>
      <trkpt lat="43.31992" lon="5.53051">
        <ele>368</ele>
        <time>2020-02-19T15:18:52Z</time>
      </trkpt>
      <trkpt lat="43.31986" lon="5.53051">
        <ele>369</ele>
        <time>2020-02-19T15:18:58Z</time>
      </trkpt>
      <trkpt lat="43.31981" lon="5.5305">
        <ele>367</ele>
        <time>2020-02-19T15:19:04Z</time>
      </trkpt>
      <trkpt lat="43.31976" lon="5.53051">
        <ele>365</ele>
        <time>2020-02-19T15:19:12Z</time>
      </trkpt>
      <trkpt lat="43.31971" lon="5.53053">
        <ele>362</ele>
        <time>2020-02-19T15:19:22Z</time>
      </trkpt>
      <trkpt lat="43.31967" lon="5.53055">
        <ele>362</ele>
        <time>2020-02-19T15:19:28Z</time>
      </trkpt>
      <trkpt lat="43.31962" lon="5.53058">
        <ele>360</ele>
        <time>2020-02-19T15:19:34Z</time>
      </trkpt>
      <trkpt lat="43.31957" lon="5.53062">
        <ele>359</ele>
        <time>2020-02-19T15:19:38Z</time>
      </trkpt>
      <trkpt lat="43.31952" lon="5.53064">
        <ele>359</ele>
        <time>2020-02-19T15:19:42Z</time>
      </trkpt>
      <trkpt lat="43.31946" lon="5.53065">
        <ele>358</ele>
        <time>2020-02-19T15:19:48Z</time>
      </trkpt>
      <trkpt lat="43.31941" lon="5.53064">
        <ele>358</ele>
        <time>2020-02-19T15:19:54Z</time>
      </trkpt>
      <trkpt lat="43.31936" lon="5.53066">
        <ele>357</ele>
        <time>2020-02-19T15:20:02Z</time>
      </trkpt>
      <trkpt lat="43.31933" lon="5.5307">
        <ele>352</ele>
        <time>2020-02-19T15:20:18Z</time>
      </trkpt>
      <trkpt lat="43.31928" lon="5.53074">
        <ele>349</ele>
        <time>2020-02-19T15:20:24Z</time>
      </trkpt>
      <trkpt lat="43.31923" lon="5.53075">
        <ele>349</ele>
        <time>2020-02-19T15:20:32Z</time>
      </trkpt>
      <trkpt lat="43.31918" lon="5.53073">
        <ele>349</ele>
        <time>2020-02-19T15:20:38Z</time>
      </trkpt>
      <trkpt lat="43.31913" lon="5.53072">
        <ele>351</ele>
        <time>2020-02-19T15:20:44Z</time>
      </trkpt>
      <trkpt lat="43.31908" lon="5.53074">
        <ele>351</ele>
        <time>2020-02-19T15:20:48Z</time>
      </trkpt>
      <trkpt lat="43.31904" lon="5.53077">
        <ele>348</ele>
        <time>2020-02-19T15:20:52Z</time>
      </trkpt>
      <trkpt lat="43.319" lon="5.53081">
        <ele>348</ele>
        <time>2020-02-19T15:20:58Z</time>
      </trkpt>
      <trkpt lat="43.31895" lon="5.53084">
        <ele>347</ele>
        <time>2020-02-19T15:21:06Z</time>
      </trkpt>
      <trkpt lat="43.31889" lon="5.53086">
        <ele>347</ele>
        <time>2020-02-19T15:21:12Z</time>
      </trkpt>
      <trkpt lat="43.31884" lon="5.53089">
        <ele>347</ele>
        <time>2020-02-19T15:21:18Z</time>
      </trkpt>
      <trkpt lat="43.3188" lon="5.53094">
        <ele>343</ele>
        <time>2020-02-19T15:21:26Z</time>
      </trkpt>
      <trkpt lat="43.31875" lon="5.53096">
        <ele>340</ele>
        <time>2020-02-19T15:21:34Z</time>
      </trkpt>
      <trkpt lat="43.3187" lon="5.53096">
        <ele>341</ele>
        <time>2020-02-19T15:21:38Z</time>
      </trkpt>
      <trkpt lat="43.31865" lon="5.53096">
        <ele>339</ele>
        <time>2020-02-19T15:21:42Z</time>
      </trkpt>
      <trkpt lat="43.31859" lon="5.53099">
        <ele>337</ele>
        <time>2020-02-19T15:21:48Z</time>
      </trkpt>
      <trkpt lat="43.31855" lon="5.53107">
        <ele>337</ele>
        <time>2020-02-19T15:21:54Z</time>
      </trkpt>
      <trkpt lat="43.31857" lon="5.53116">
        <ele>336</ele>
        <time>2020-02-19T15:22:00Z</time>
      </trkpt>
      <trkpt lat="43.31854" lon="5.53122">
        <ele>335</ele>
        <time>2020-02-19T15:22:08Z</time>
      </trkpt>
      <trkpt lat="43.3185" lon="5.53128">
        <ele>336</ele>
        <time>2020-02-19T15:22:14Z</time>
      </trkpt>
      <trkpt lat="43.31844" lon="5.53131">
        <ele>333</ele>
        <time>2020-02-19T15:22:20Z</time>
      </trkpt>
      <trkpt lat="43.31839" lon="5.53133">
        <ele>331</ele>
        <time>2020-02-19T15:22:26Z</time>
      </trkpt>
      <trkpt lat="43.31833" lon="5.53132">
        <ele>327</ele>
        <time>2020-02-19T15:22:32Z</time>
      </trkpt>
      <trkpt lat="43.31829" lon="5.53136">
        <ele>329</ele>
        <time>2020-02-19T15:22:42Z</time>
      </trkpt>
      <trkpt lat="43.31824" lon="5.53141">
        <ele>327</ele>
        <time>2020-02-19T15:22:50Z</time>
      </trkpt>
      <trkpt lat="43.31818" lon="5.53143">
        <ele>326</ele>
        <time>2020-02-19T15:22:56Z</time>
      </trkpt>
      <trkpt lat="43.31818" lon="5.5315">
        <ele>329</ele>
        <time>2020-02-19T15:23:08Z</time>
      </trkpt>
      <trkpt lat="43.31823" lon="5.53151">
        <ele>329</ele>
        <time>2020-02-19T15:23:44Z</time>
      </trkpt>
      <trkpt lat="43.3182" lon="5.53155">
        <ele>331</ele>
        <time>2020-02-19T15:24:16Z</time>
      </trkpt>
      <trkpt lat="43.31819" lon="5.53163">
        <ele>329</ele>
        <time>2020-02-19T15:25:30Z</time>
      </trkpt>
      <trkpt lat="43.31817" lon="5.53169">
        <ele>327</ele>
        <time>2020-02-19T15:25:36Z</time>
      </trkpt>
      <trkpt lat="43.31814" lon="5.53175">
        <ele>325</ele>
        <time>2020-02-19T15:25:42Z</time>
      </trkpt>
      <trkpt lat="43.31811" lon="5.53181">
        <ele>323</ele>
        <time>2020-02-19T15:25:48Z</time>
      </trkpt>
      <trkpt lat="43.31808" lon="5.53188">
        <ele>321</ele>
        <time>2020-02-19T15:25:54Z</time>
      </trkpt>
      <trkpt lat="43.31805" lon="5.53194">
        <ele>319</ele>
        <time>2020-02-19T15:26:00Z</time>
      </trkpt>
      <trkpt lat="43.31802" lon="5.53199">
        <ele>317</ele>
        <time>2020-02-19T15:26:06Z</time>
      </trkpt>
      <trkpt lat="43.31799" lon="5.53206">
        <ele>317</ele>
        <time>2020-02-19T15:26:12Z</time>
      </trkpt>
      <trkpt lat="43.31797" lon="5.53213">
        <ele>315</ele>
        <time>2020-02-19T15:26:18Z</time>
      </trkpt>
      <trkpt lat="43.31796" lon="5.5322">
        <ele>315</ele>
        <time>2020-02-19T15:26:22Z</time>
      </trkpt>
      <trkpt lat="43.31794" lon="5.53228">
        <ele>315</ele>
        <time>2020-02-19T15:26:28Z</time>
      </trkpt>
      <trkpt lat="43.31793" lon="5.53234">
        <ele>315</ele>
        <time>2020-02-19T15:26:32Z</time>
      </trkpt>
      <trkpt lat="43.31791" lon="5.53242">
        <ele>316</ele>
        <time>2020-02-19T15:26:38Z</time>
      </trkpt>
      <trkpt lat="43.31789" lon="5.5325">
        <ele>315</ele>
        <time>2020-02-19T15:26:44Z</time>
      </trkpt>
      <trkpt lat="43.31786" lon="5.53258">
        <ele>314</ele>
        <time>2020-02-19T15:26:50Z</time>
      </trkpt>
      <trkpt lat="43.31784" lon="5.53265">
        <ele>313</ele>
        <time>2020-02-19T15:26:56Z</time>
      </trkpt>
      <trkpt lat="43.31783" lon="5.53271">
        <ele>312</ele>
        <time>2020-02-19T15:27:04Z</time>
      </trkpt>
      <trkpt lat="43.31783" lon="5.53279">
        <ele>311</ele>
        <time>2020-02-19T15:27:10Z</time>
      </trkpt>
      <trkpt lat="43.31784" lon="5.53288">
        <ele>311</ele>
        <time>2020-02-19T15:27:16Z</time>
      </trkpt>
      <trkpt lat="43.31785" lon="5.53295">
        <ele>312</ele>
        <time>2020-02-19T15:27:20Z</time>
      </trkpt>
      <trkpt lat="43.31785" lon="5.53301">
        <ele>312</ele>
        <time>2020-02-19T15:27:24Z</time>
      </trkpt>
      <trkpt lat="43.31785" lon="5.53308">
        <ele>312</ele>
        <time>2020-02-19T15:27:28Z</time>
      </trkpt>
      <trkpt lat="43.31783" lon="5.53315">
        <ele>312</ele>
        <time>2020-02-19T15:27:32Z</time>
      </trkpt>
      <trkpt lat="43.31782" lon="5.53321">
        <ele>313</ele>
        <time>2020-02-19T15:27:36Z</time>
      </trkpt>
      <trkpt lat="43.31781" lon="5.53327">
        <ele>314</ele>
        <time>2020-02-19T15:27:40Z</time>
      </trkpt>
      <trkpt lat="43.31779" lon="5.53335">
        <ele>313</ele>
        <time>2020-02-19T15:27:48Z</time>
      </trkpt>
      <trkpt lat="43.31779" lon="5.53344">
        <ele>315</ele>
        <time>2020-02-19T15:27:54Z</time>
      </trkpt>
      <trkpt lat="43.31781" lon="5.53351">
        <ele>318</ele>
        <time>2020-02-19T15:27:58Z</time>
      </trkpt>
      <trkpt lat="43.31782" lon="5.53357">
        <ele>316</ele>
        <time>2020-02-19T15:28:02Z</time>
      </trkpt>
      <trkpt lat="43.31783" lon="5.53365">
        <ele>317</ele>
        <time>2020-02-19T15:28:06Z</time>
      </trkpt>
      <trkpt lat="43.31785" lon="5.53371">
        <ele>319</ele>
        <time>2020-02-19T15:28:10Z</time>
      </trkpt>
      <trkpt lat="43.31785" lon="5.53377">
        <ele>318</ele>
        <time>2020-02-19T15:28:14Z</time>
      </trkpt>
      <trkpt lat="43.31784" lon="5.53385">
        <ele>317</ele>
        <time>2020-02-19T15:28:20Z</time>
      </trkpt>
      <trkpt lat="43.31784" lon="5.53393">
        <ele>316</ele>
        <time>2020-02-19T15:28:26Z</time>
      </trkpt>
      <trkpt lat="43.31785" lon="5.53402">
        <ele>317</ele>
        <time>2020-02-19T15:28:32Z</time>
      </trkpt>
      <trkpt lat="43.31787" lon="5.53407">
        <ele>316</ele>
        <time>2020-02-19T15:28:36Z</time>
      </trkpt>
      <trkpt lat="43.31791" lon="5.53413">
        <ele>317</ele>
        <time>2020-02-19T15:28:40Z</time>
      </trkpt>
      <trkpt lat="43.31793" lon="5.53418">
        <ele>317</ele>
        <time>2020-02-19T15:28:44Z</time>
      </trkpt>
      <trkpt lat="43.31794" lon="5.53427">
        <ele>316</ele>
        <time>2020-02-19T15:28:50Z</time>
      </trkpt>
      <trkpt lat="43.31791" lon="5.53433">
        <ele>316</ele>
        <time>2020-02-19T15:28:54Z</time>
      </trkpt>
      <trkpt lat="43.31788" lon="5.5344">
        <ele>316</ele>
        <time>2020-02-19T15:29:00Z</time>
      </trkpt>
      <trkpt lat="43.31785" lon="5.53447">
        <ele>317</ele>
        <time>2020-02-19T15:29:06Z</time>
      </trkpt>
      <trkpt lat="43.31782" lon="5.53455">
        <ele>316</ele>
        <time>2020-02-19T15:29:12Z</time>
      </trkpt>
      <trkpt lat="43.3178" lon="5.53462">
        <ele>314</ele>
        <time>2020-02-19T15:29:18Z</time>
      </trkpt>
      <trkpt lat="43.31779" lon="5.53471">
        <ele>314</ele>
        <time>2020-02-19T15:29:24Z</time>
      </trkpt>
      <trkpt lat="43.31779" lon="5.5348">
        <ele>315</ele>
        <time>2020-02-19T15:29:30Z</time>
      </trkpt>
      <trkpt lat="43.31779" lon="5.53488">
        <ele>315</ele>
        <time>2020-02-19T15:29:36Z</time>
      </trkpt>
      <trkpt lat="43.3178" lon="5.53494">
        <ele>316</ele>
        <time>2020-02-19T15:29:40Z</time>
      </trkpt>
      <trkpt lat="43.3178" lon="5.53503">
        <ele>316</ele>
        <time>2020-02-19T15:29:46Z</time>
      </trkpt>
      <trkpt lat="43.31779" lon="5.53512">
        <ele>317</ele>
        <time>2020-02-19T15:29:52Z</time>
      </trkpt>
      <trkpt lat="43.31778" lon="5.5352">
        <ele>316</ele>
        <time>2020-02-19T15:29:58Z</time>
      </trkpt>
      <trkpt lat="43.31778" lon="5.53529">
        <ele>316</ele>
        <time>2020-02-19T15:30:04Z</time>
      </trkpt>
      <trkpt lat="43.31779" lon="5.53536">
        <ele>315</ele>
        <time>2020-02-19T15:30:10Z</time>
      </trkpt>
      <trkpt lat="43.3178" lon="5.53545">
        <ele>315</ele>
        <time>2020-02-19T15:30:16Z</time>
      </trkpt>
      <trkpt lat="43.31781" lon="5.53551">
        <ele>315</ele>
        <time>2020-02-19T15:30:20Z</time>
      </trkpt>
      <trkpt lat="43.31781" lon="5.53558">
        <ele>315</ele>
        <time>2020-02-19T15:30:24Z</time>
      </trkpt>
      <trkpt lat="43.31782" lon="5.53564">
        <ele>315</ele>
        <time>2020-02-19T15:30:28Z</time>
      </trkpt>
      <trkpt lat="43.31782" lon="5.53573">
        <ele>316</ele>
        <time>2020-02-19T15:30:34Z</time>
      </trkpt>
      <trkpt lat="43.31783" lon="5.53579">
        <ele>316</ele>
        <time>2020-02-19T15:30:38Z</time>
      </trkpt>
      <trkpt lat="43.31784" lon="5.53588">
        <ele>315</ele>
        <time>2020-02-19T15:30:44Z</time>
      </trkpt>
      <trkpt lat="43.31785" lon="5.53594">
        <ele>315</ele>
        <time>2020-02-19T15:30:48Z</time>
      </trkpt>
      <trkpt lat="43.31787" lon="5.53601">
        <ele>316</ele>
        <time>2020-02-19T15:30:52Z</time>
      </trkpt>
      <trkpt lat="43.31788" lon="5.53607">
        <ele>315</ele>
        <time>2020-02-19T15:30:56Z</time>
      </trkpt>
      <trkpt lat="43.31789" lon="5.53613">
        <ele>315</ele>
        <time>2020-02-19T15:31:00Z</time>
      </trkpt>
      <trkpt lat="43.31792" lon="5.53618">
        <ele>316</ele>
        <time>2020-02-19T15:31:04Z</time>
      </trkpt>
      <trkpt lat="43.31795" lon="5.53625">
        <ele>315</ele>
        <time>2020-02-19T15:31:10Z</time>
      </trkpt>
      <trkpt lat="43.31798" lon="5.53632">
        <ele>315</ele>
        <time>2020-02-19T15:31:16Z</time>
      </trkpt>
      <trkpt lat="43.31801" lon="5.53639">
        <ele>315</ele>
        <time>2020-02-19T15:31:22Z</time>
      </trkpt>
      <trkpt lat="43.31804" lon="5.53646">
        <ele>316</ele>
        <time>2020-02-19T15:31:28Z</time>
      </trkpt>
      <trkpt lat="43.31807" lon="5.53651">
        <ele>316</ele>
        <time>2020-02-19T15:31:32Z</time>
      </trkpt>
      <trkpt lat="43.3181" lon="5.53657">
        <ele>315</ele>
        <time>2020-02-19T15:31:36Z</time>
      </trkpt>
      <trkpt lat="43.31813" lon="5.53664">
        <ele>315</ele>
        <time>2020-02-19T15:31:42Z</time>
      </trkpt>
      <trkpt lat="43.31815" lon="5.53673">
        <ele>314</ele>
        <time>2020-02-19T15:31:48Z</time>
      </trkpt>
      <trkpt lat="43.31816" lon="5.53681">
        <ele>312</ele>
        <time>2020-02-19T15:31:54Z</time>
      </trkpt>
      <trkpt lat="43.31818" lon="5.53686">
        <ele>312</ele>
        <time>2020-02-19T15:31:58Z</time>
      </trkpt>
      <trkpt lat="43.31819" lon="5.53693">
        <ele>313</ele>
        <time>2020-02-19T15:32:02Z</time>
      </trkpt>
      <trkpt lat="43.31821" lon="5.53699">
        <ele>313</ele>
        <time>2020-02-19T15:32:06Z</time>
      </trkpt>
      <trkpt lat="43.31822" lon="5.53705">
        <ele>313</ele>
        <time>2020-02-19T15:32:10Z</time>
      </trkpt>
      <trkpt lat="43.31823" lon="5.53713">
        <ele>313</ele>
        <time>2020-02-19T15:32:16Z</time>
      </trkpt>
      <trkpt lat="43.31824" lon="5.5372">
        <ele>315</ele>
        <time>2020-02-19T15:32:20Z</time>
      </trkpt>
      <trkpt lat="43.31826" lon="5.53727">
        <ele>315</ele>
        <time>2020-02-19T15:32:24Z</time>
      </trkpt>
      <trkpt lat="43.31825" lon="5.53733">
        <ele>314</ele>
        <time>2020-02-19T15:32:28Z</time>
      </trkpt>
      <trkpt lat="43.31821" lon="5.53738">
        <ele>315</ele>
        <time>2020-02-19T15:32:32Z</time>
      </trkpt>
      <trkpt lat="43.31817" lon="5.53741">
        <ele>316</ele>
        <time>2020-02-19T15:32:38Z</time>
      </trkpt>
      <trkpt lat="43.31812" lon="5.53745">
        <ele>316</ele>
        <time>2020-02-19T15:32:44Z</time>
      </trkpt>
      <trkpt lat="43.31808" lon="5.53746">
        <ele>315</ele>
        <time>2020-02-19T15:32:50Z</time>
      </trkpt>
      <trkpt lat="43.31804" lon="5.53741">
        <ele>314</ele>
        <time>2020-02-19T15:32:54Z</time>
      </trkpt>
      <trkpt lat="43.318" lon="5.53737">
        <ele>314</ele>
        <time>2020-02-19T15:32:58Z</time>
      </trkpt>
      <trkpt lat="43.31795" lon="5.53731">
        <ele>315</ele>
        <time>2020-02-19T15:33:04Z</time>
      </trkpt>
      <trkpt lat="43.31791" lon="5.53725">
        <ele>313</ele>
        <time>2020-02-19T15:33:10Z</time>
      </trkpt>
      <trkpt lat="43.31788" lon="5.53721">
        <ele>313</ele>
        <time>2020-02-19T15:33:14Z</time>
      </trkpt>
      <trkpt lat="43.31782" lon="5.53716">
        <ele>313</ele>
        <time>2020-02-19T15:33:20Z</time>
      </trkpt>
      <trkpt lat="43.31778" lon="5.53712">
        <ele>313</ele>
        <time>2020-02-19T15:33:24Z</time>
      </trkpt>
      <trkpt lat="43.31774" lon="5.53707">
        <ele>311</ele>
        <time>2020-02-19T15:33:32Z</time>
      </trkpt>
      <trkpt lat="43.31769" lon="5.53704">
        <ele>312</ele>
        <time>2020-02-19T15:33:36Z</time>
      </trkpt>
      <trkpt lat="43.31763" lon="5.53702">
        <ele>310</ele>
        <time>2020-02-19T15:33:42Z</time>
      </trkpt>
      <trkpt lat="43.31757" lon="5.53701">
        <ele>312</ele>
        <time>2020-02-19T15:33:48Z</time>
      </trkpt>
      <trkpt lat="43.31752" lon="5.537">
        <ele>311</ele>
        <time>2020-02-19T15:33:52Z</time>
      </trkpt>
      <trkpt lat="43.31746" lon="5.53698">
        <ele>312</ele>
        <time>2020-02-19T15:33:58Z</time>
      </trkpt>
      <trkpt lat="43.3174" lon="5.53696">
        <ele>316</ele>
        <time>2020-02-19T15:34:04Z</time>
      </trkpt>
      <trkpt lat="43.31735" lon="5.53697">
        <ele>315</ele>
        <time>2020-02-19T15:34:08Z</time>
      </trkpt>
      <trkpt lat="43.31731" lon="5.53703">
        <ele>312</ele>
        <time>2020-02-19T15:34:12Z</time>
      </trkpt>
      <trkpt lat="43.31728" lon="5.53708">
        <ele>311</ele>
        <time>2020-02-19T15:34:16Z</time>
      </trkpt>
      <trkpt lat="43.31725" lon="5.53716">
        <ele>306</ele>
        <time>2020-02-19T15:34:22Z</time>
      </trkpt>
      <trkpt lat="43.31722" lon="5.53721">
        <ele>307</ele>
        <time>2020-02-19T15:34:26Z</time>
      </trkpt>
      <trkpt lat="43.31718" lon="5.53726">
        <ele>307</ele>
        <time>2020-02-19T15:34:32Z</time>
      </trkpt>
      <trkpt lat="43.31714" lon="5.53732">
        <ele>306</ele>
        <time>2020-02-19T15:34:38Z</time>
      </trkpt>
      <trkpt lat="43.31712" lon="5.53737">
        <ele>305</ele>
        <time>2020-02-19T15:34:44Z</time>
      </trkpt>
      <trkpt lat="43.31709" lon="5.53745">
        <ele>302</ele>
        <time>2020-02-19T15:34:52Z</time>
      </trkpt>
      <trkpt lat="43.31711" lon="5.53753">
        <ele>301</ele>
        <time>2020-02-19T15:34:58Z</time>
      </trkpt>
      <trkpt lat="43.31709" lon="5.5376">
        <ele>300</ele>
        <time>2020-02-19T15:35:04Z</time>
      </trkpt>
      <trkpt lat="43.31706" lon="5.53768">
        <ele>301</ele>
        <time>2020-02-19T15:35:10Z</time>
      </trkpt>
      <trkpt lat="43.31704" lon="5.53774">
        <ele>303</ele>
        <time>2020-02-19T15:35:14Z</time>
      </trkpt>
      <trkpt lat="43.31702" lon="5.53782">
        <ele>302</ele>
        <time>2020-02-19T15:35:20Z</time>
      </trkpt>
      <trkpt lat="43.31699" lon="5.53789">
        <ele>302</ele>
        <time>2020-02-19T15:35:26Z</time>
      </trkpt>
      <trkpt lat="43.31696" lon="5.53796">
        <ele>302</ele>
        <time>2020-02-19T15:35:32Z</time>
      </trkpt>
      <trkpt lat="43.31693" lon="5.53803">
        <ele>300</ele>
        <time>2020-02-19T15:35:38Z</time>
      </trkpt>
      <trkpt lat="43.31691" lon="5.53811">
        <ele>298</ele>
        <time>2020-02-19T15:35:46Z</time>
      </trkpt>
      <trkpt lat="43.31689" lon="5.5382">
        <ele>298</ele>
        <time>2020-02-19T15:35:52Z</time>
      </trkpt>
      <trkpt lat="43.31686" lon="5.53828">
        <ele>299</ele>
        <time>2020-02-19T15:35:58Z</time>
      </trkpt>
      <trkpt lat="43.31684" lon="5.53836">
        <ele>299</ele>
        <time>2020-02-19T15:36:04Z</time>
      </trkpt>
      <trkpt lat="43.31683" lon="5.53844">
        <ele>298</ele>
        <time>2020-02-19T15:36:10Z</time>
      </trkpt>
      <trkpt lat="43.3168" lon="5.53851">
        <ele>297</ele>
        <time>2020-02-19T15:36:16Z</time>
      </trkpt>
      <trkpt lat="43.31676" lon="5.53858">
        <ele>298</ele>
        <time>2020-02-19T15:36:22Z</time>
      </trkpt>
      <trkpt lat="43.31672" lon="5.53866">
        <ele>298</ele>
        <time>2020-02-19T15:36:28Z</time>
      </trkpt>
      <trkpt lat="43.31669" lon="5.53873">
        <ele>298</ele>
        <time>2020-02-19T15:36:34Z</time>
      </trkpt>
      <trkpt lat="43.31667" lon="5.53881">
        <ele>297</ele>
        <time>2020-02-19T15:36:40Z</time>
      </trkpt>
      <trkpt lat="43.31665" lon="5.53888">
        <ele>297</ele>
        <time>2020-02-19T15:36:46Z</time>
      </trkpt>
      <trkpt lat="43.31663" lon="5.53896">
        <ele>297</ele>
        <time>2020-02-19T15:36:52Z</time>
      </trkpt>
      <trkpt lat="43.31661" lon="5.53904">
        <ele>298</ele>
        <time>2020-02-19T15:36:58Z</time>
      </trkpt>
      <trkpt lat="43.31658" lon="5.53911">
        <ele>298</ele>
        <time>2020-02-19T15:37:04Z</time>
      </trkpt>
      <trkpt lat="43.31655" lon="5.53918">
        <ele>297</ele>
        <time>2020-02-19T15:37:10Z</time>
      </trkpt>
      <trkpt lat="43.31654" lon="5.53927">
        <ele>297</ele>
        <time>2020-02-19T15:37:16Z</time>
      </trkpt>
      <trkpt lat="43.31653" lon="5.53933">
        <ele>297</ele>
        <time>2020-02-19T15:37:20Z</time>
      </trkpt>
      <trkpt lat="43.31652" lon="5.53941">
        <ele>297</ele>
        <time>2020-02-19T15:37:26Z</time>
      </trkpt>
      <trkpt lat="43.31651" lon="5.53949">
        <ele>297</ele>
        <time>2020-02-19T15:37:32Z</time>
      </trkpt>
      <trkpt lat="43.31652" lon="5.53957">
        <ele>297</ele>
        <time>2020-02-19T15:37:38Z</time>
      </trkpt>
      <trkpt lat="43.31653" lon="5.53966">
        <ele>297</ele>
        <time>2020-02-19T15:37:44Z</time>
      </trkpt>
      <trkpt lat="43.31655" lon="5.53974">
        <ele>300</ele>
        <time>2020-02-19T15:37:50Z</time>
      </trkpt>
      <trkpt lat="43.31657" lon="5.53982">
        <ele>300</ele>
        <time>2020-02-19T15:37:56Z</time>
      </trkpt>
      <trkpt lat="43.31658" lon="5.5399">
        <ele>300</ele>
        <time>2020-02-19T15:38:02Z</time>
      </trkpt>
      <trkpt lat="43.3166" lon="5.53999">
        <ele>300</ele>
        <time>2020-02-19T15:38:08Z</time>
      </trkpt>
      <trkpt lat="43.3166" lon="5.54008">
        <ele>301</ele>
        <time>2020-02-19T15:38:14Z</time>
      </trkpt>
      <trkpt lat="43.31659" lon="5.54016">
        <ele>301</ele>
        <time>2020-02-19T15:38:20Z</time>
      </trkpt>
      <trkpt lat="43.31659" lon="5.54024">
        <ele>301</ele>
        <time>2020-02-19T15:38:26Z</time>
      </trkpt>
      <trkpt lat="43.31658" lon="5.54032">
        <ele>301</ele>
        <time>2020-02-19T15:38:32Z</time>
      </trkpt>
      <trkpt lat="43.31658" lon="5.5404">
        <ele>302</ele>
        <time>2020-02-19T15:38:38Z</time>
      </trkpt>
      <trkpt lat="43.31658" lon="5.54049">
        <ele>302</ele>
        <time>2020-02-19T15:38:44Z</time>
      </trkpt>
      <trkpt lat="43.31658" lon="5.54058">
        <ele>301</ele>
        <time>2020-02-19T15:38:50Z</time>
      </trkpt>
      <trkpt lat="43.31658" lon="5.54066">
        <ele>301</ele>
        <time>2020-02-19T15:38:56Z</time>
      </trkpt>
      <trkpt lat="43.31657" lon="5.54073">
        <ele>301</ele>
        <time>2020-02-19T15:39:02Z</time>
      </trkpt>
      <trkpt lat="43.31655" lon="5.54079">
        <ele>300</ele>
        <time>2020-02-19T15:39:08Z</time>
      </trkpt>
      <trkpt lat="43.31652" lon="5.54085">
        <ele>300</ele>
        <time>2020-02-19T15:39:14Z</time>
      </trkpt>
      <trkpt lat="43.31649" lon="5.54091">
        <ele>301</ele>
        <time>2020-02-19T15:39:20Z</time>
      </trkpt>
      <trkpt lat="43.31645" lon="5.54095">
        <ele>302</ele>
        <time>2020-02-19T15:39:26Z</time>
      </trkpt>
      <trkpt lat="43.31642" lon="5.541">
        <ele>301</ele>
        <time>2020-02-19T15:39:32Z</time>
      </trkpt>
      <trkpt lat="43.31639" lon="5.54107">
        <ele>302</ele>
        <time>2020-02-19T15:39:38Z</time>
      </trkpt>
      <trkpt lat="43.31636" lon="5.54115">
        <ele>302</ele>
        <time>2020-02-19T15:39:44Z</time>
      </trkpt>
      <trkpt lat="43.31634" lon="5.54121">
        <ele>302</ele>
        <time>2020-02-19T15:39:48Z</time>
      </trkpt>
      <trkpt lat="43.31633" lon="5.54126">
        <ele>303</ele>
        <time>2020-02-19T15:39:52Z</time>
      </trkpt>
      <trkpt lat="43.31631" lon="5.54133">
        <ele>302</ele>
        <time>2020-02-19T15:39:56Z</time>
      </trkpt>
      <trkpt lat="43.31629" lon="5.5414">
        <ele>301</ele>
        <time>2020-02-19T15:40:02Z</time>
      </trkpt>
      <trkpt lat="43.31626" lon="5.54148">
        <ele>302</ele>
        <time>2020-02-19T15:40:08Z</time>
      </trkpt>
      <trkpt lat="43.31624" lon="5.54156">
        <ele>303</ele>
        <time>2020-02-19T15:40:14Z</time>
      </trkpt>
      <trkpt lat="43.3162" lon="5.54162">
        <ele>303</ele>
        <time>2020-02-19T15:40:20Z</time>
      </trkpt>
      <trkpt lat="43.31615" lon="5.54169">
        <ele>304</ele>
        <time>2020-02-19T15:40:26Z</time>
      </trkpt>
      <trkpt lat="43.31611" lon="5.54173">
        <ele>304</ele>
        <time>2020-02-19T15:40:32Z</time>
      </trkpt>
      <trkpt lat="43.31607" lon="5.54177">
        <ele>303</ele>
        <time>2020-02-19T15:40:38Z</time>
      </trkpt>
      <trkpt lat="43.31602" lon="5.54182">
        <ele>303</ele>
        <time>2020-02-19T15:40:44Z</time>
      </trkpt>
      <trkpt lat="43.31598" lon="5.54188">
        <ele>303</ele>
        <time>2020-02-19T15:40:50Z</time>
      </trkpt>
      <trkpt lat="43.31594" lon="5.54193">
        <ele>303</ele>
        <time>2020-02-19T15:40:56Z</time>
      </trkpt>
      <trkpt lat="43.31592" lon="5.542">
        <ele>303</ele>
        <time>2020-02-19T15:41:02Z</time>
      </trkpt>
      <trkpt lat="43.3159" lon="5.54208">
        <ele>302</ele>
        <time>2020-02-19T15:41:08Z</time>
      </trkpt>
      <trkpt lat="43.31588" lon="5.54215">
        <ele>302</ele>
        <time>2020-02-19T15:41:14Z</time>
      </trkpt>
      <trkpt lat="43.31588" lon="5.54222">
        <ele>303</ele>
        <time>2020-02-19T15:41:18Z</time>
      </trkpt>
      <trkpt lat="43.31587" lon="5.54228">
        <ele>303</ele>
        <time>2020-02-19T15:41:22Z</time>
      </trkpt>
      <trkpt lat="43.31587" lon="5.54237">
        <ele>303</ele>
        <time>2020-02-19T15:41:28Z</time>
      </trkpt>
      <trkpt lat="43.31587" lon="5.54245">
        <ele>303</ele>
        <time>2020-02-19T15:41:34Z</time>
      </trkpt>
      <trkpt lat="43.31587" lon="5.54254">
        <ele>303</ele>
        <time>2020-02-19T15:41:40Z</time>
      </trkpt>
      <trkpt lat="43.31583" lon="5.54261">
        <ele>302</ele>
        <time>2020-02-19T15:41:46Z</time>
      </trkpt>
      <trkpt lat="43.31579" lon="5.54266">
        <ele>303</ele>
        <time>2020-02-19T15:41:52Z</time>
      </trkpt>
      <trkpt lat="43.31573" lon="5.5427">
        <ele>303</ele>
        <time>2020-02-19T15:41:58Z</time>
      </trkpt>
      <trkpt lat="43.31568" lon="5.54274">
        <ele>303</ele>
        <time>2020-02-19T15:42:04Z</time>
      </trkpt>
      <trkpt lat="43.31563" lon="5.54277">
        <ele>302</ele>
        <time>2020-02-19T15:42:10Z</time>
      </trkpt>
      <trkpt lat="43.31558" lon="5.54282">
        <ele>302</ele>
        <time>2020-02-19T15:42:16Z</time>
      </trkpt>
      <trkpt lat="43.31552" lon="5.54285">
        <ele>301</ele>
        <time>2020-02-19T15:42:22Z</time>
      </trkpt>
      <trkpt lat="43.31547" lon="5.54289">
        <ele>301</ele>
        <time>2020-02-19T15:42:28Z</time>
      </trkpt>
      <trkpt lat="43.31542" lon="5.54292">
        <ele>300</ele>
        <time>2020-02-19T15:42:34Z</time>
      </trkpt>
      <trkpt lat="43.31537" lon="5.54295">
        <ele>300</ele>
        <time>2020-02-19T15:42:40Z</time>
      </trkpt>
      <trkpt lat="43.31531" lon="5.54299">
        <ele>299</ele>
        <time>2020-02-19T15:42:46Z</time>
      </trkpt>
      <trkpt lat="43.31528" lon="5.54305">
        <ele>299</ele>
        <time>2020-02-19T15:42:52Z</time>
      </trkpt>
      <trkpt lat="43.31525" lon="5.54312">
        <ele>299</ele>
        <time>2020-02-19T15:42:58Z</time>
      </trkpt>
      <trkpt lat="43.31525" lon="5.54321">
        <ele>298</ele>
        <time>2020-02-19T15:43:04Z</time>
      </trkpt>
      <trkpt lat="43.31526" lon="5.54329">
        <ele>297</ele>
        <time>2020-02-19T15:43:10Z</time>
      </trkpt>
      <trkpt lat="43.31528" lon="5.54336">
        <ele>297</ele>
        <time>2020-02-19T15:43:15Z</time>
      </trkpt>
      <trkpt lat="43.31532" lon="5.54341">
        <ele>296</ele>
        <time>2020-02-19T15:43:20Z</time>
      </trkpt>
      <trkpt lat="43.31536" lon="5.54347">
        <ele>297</ele>
        <time>2020-02-19T15:43:25Z</time>
      </trkpt>
      <trkpt lat="43.31538" lon="5.54352">
        <ele>298</ele>
        <time>2020-02-19T15:43:29Z</time>
      </trkpt>
      <trkpt lat="43.31537" lon="5.5436">
        <ele>297</ele>
        <time>2020-02-19T15:43:35Z</time>
      </trkpt>
      <trkpt lat="43.31533" lon="5.54366">
        <ele>298</ele>
        <time>2020-02-19T15:43:41Z</time>
      </trkpt>
      <trkpt lat="43.31527" lon="5.54369">
        <ele>298</ele>
        <time>2020-02-19T15:43:47Z</time>
      </trkpt>
      <trkpt lat="43.31521" lon="5.5437">
        <ele>297</ele>
        <time>2020-02-19T15:43:53Z</time>
      </trkpt>
      <trkpt lat="43.31516" lon="5.54371">
        <ele>297</ele>
        <time>2020-02-19T15:43:57Z</time>
      </trkpt>
      <trkpt lat="43.31511" lon="5.54371">
        <ele>296</ele>
        <time>2020-02-19T15:44:03Z</time>
      </trkpt>
      <trkpt lat="43.31507" lon="5.54373">
        <ele>296</ele>
        <time>2020-02-19T15:44:07Z</time>
      </trkpt>
      <trkpt lat="43.31501" lon="5.54375">
        <ele>295</ele>
        <time>2020-02-19T15:44:13Z</time>
      </trkpt>
      <trkpt lat="43.31494" lon="5.54377">
        <ele>295</ele>
        <time>2020-02-19T15:44:19Z</time>
      </trkpt>
      <trkpt lat="43.3149" lon="5.54378">
        <ele>296</ele>
        <time>2020-02-19T15:44:23Z</time>
      </trkpt>
      <trkpt lat="43.31484" lon="5.5438">
        <ele>296</ele>
        <time>2020-02-19T15:44:27Z</time>
      </trkpt>
      <trkpt lat="43.3148" lon="5.54382">
        <ele>295</ele>
        <time>2020-02-19T15:44:31Z</time>
      </trkpt>
      <trkpt lat="43.31474" lon="5.54385">
        <ele>295</ele>
        <time>2020-02-19T15:44:37Z</time>
      </trkpt>
      <trkpt lat="43.31469" lon="5.54387">
        <ele>294</ele>
        <time>2020-02-19T15:44:43Z</time>
      </trkpt>
      <trkpt lat="43.31463" lon="5.54388">
        <ele>294</ele>
        <time>2020-02-19T15:44:49Z</time>
      </trkpt>
      <trkpt lat="43.31458" lon="5.5439">
        <ele>293</ele>
        <time>2020-02-19T15:44:55Z</time>
      </trkpt>
      <trkpt lat="43.31454" lon="5.54392">
        <ele>291</ele>
        <time>2020-02-19T15:45:01Z</time>
      </trkpt>
      <trkpt lat="43.31449" lon="5.54397">
        <ele>292</ele>
        <time>2020-02-19T15:45:09Z</time>
      </trkpt>
      <trkpt lat="43.31445" lon="5.54399">
        <ele>292</ele>
        <time>2020-02-19T15:45:15Z</time>
      </trkpt>
      <trkpt lat="43.3144" lon="5.54402">
        <ele>292</ele>
        <time>2020-02-19T15:45:21Z</time>
      </trkpt>
      <trkpt lat="43.31435" lon="5.54404">
        <ele>292</ele>
        <time>2020-02-19T15:45:27Z</time>
      </trkpt>
      <trkpt lat="43.31431" lon="5.54408">
        <ele>290</ele>
        <time>2020-02-19T15:45:33Z</time>
      </trkpt>
      <trkpt lat="43.31426" lon="5.54411">
        <ele>289</ele>
        <time>2020-02-19T15:45:39Z</time>
      </trkpt>
      <trkpt lat="43.31422" lon="5.54414">
        <ele>287</ele>
        <time>2020-02-19T15:45:45Z</time>
      </trkpt>
      <trkpt lat="43.31418" lon="5.54418">
        <ele>285</ele>
        <time>2020-02-19T15:45:51Z</time>
      </trkpt>
      <trkpt lat="43.31414" lon="5.54424">
        <ele>283</ele>
        <time>2020-02-19T15:45:57Z</time>
      </trkpt>
      <trkpt lat="43.31411" lon="5.54431">
        <ele>283</ele>
        <time>2020-02-19T15:46:03Z</time>
      </trkpt>
      <trkpt lat="43.3141" lon="5.54437">
        <ele>282</ele>
        <time>2020-02-19T15:46:09Z</time>
      </trkpt>
      <trkpt lat="43.3141" lon="5.54445">
        <ele>283</ele>
        <time>2020-02-19T15:46:15Z</time>
      </trkpt>
      <trkpt lat="43.31411" lon="5.54454">
        <ele>283</ele>
        <time>2020-02-19T15:46:23Z</time>
      </trkpt>
      <trkpt lat="43.31411" lon="5.5446">
        <ele>284</ele>
        <time>2020-02-19T15:46:29Z</time>
      </trkpt>
      <trkpt lat="43.31412" lon="5.54467">
        <ele>284</ele>
        <time>2020-02-19T15:46:35Z</time>
      </trkpt>
      <trkpt lat="43.31412" lon="5.54474">
        <ele>284</ele>
        <time>2020-02-19T15:46:41Z</time>
      </trkpt>
      <trkpt lat="43.31411" lon="5.5448">
        <ele>281</ele>
        <time>2020-02-19T15:46:47Z</time>
      </trkpt>
      <trkpt lat="43.31413" lon="5.54487">
        <ele>278</ele>
        <time>2020-02-19T15:46:55Z</time>
      </trkpt>
      <trkpt lat="43.31414" lon="5.54496">
        <ele>275</ele>
        <time>2020-02-19T15:47:03Z</time>
      </trkpt>
      <trkpt lat="43.31415" lon="5.54502">
        <ele>274</ele>
        <time>2020-02-19T15:47:09Z</time>
      </trkpt>
      <trkpt lat="43.31417" lon="5.54509">
        <ele>274</ele>
        <time>2020-02-19T15:47:15Z</time>
      </trkpt>
      <trkpt lat="43.31417" lon="5.54518">
        <ele>275</ele>
        <time>2020-02-19T15:47:21Z</time>
      </trkpt>
      <trkpt lat="43.31417" lon="5.54524">
        <ele>278</ele>
        <time>2020-02-19T15:47:25Z</time>
      </trkpt>
      <trkpt lat="43.31417" lon="5.54533">
        <ele>279</ele>
        <time>2020-02-19T15:47:31Z</time>
      </trkpt>
      <trkpt lat="43.31418" lon="5.5454">
        <ele>277</ele>
        <time>2020-02-19T15:47:37Z</time>
      </trkpt>
      <trkpt lat="43.31419" lon="5.54549">
        <ele>279</ele>
        <time>2020-02-19T15:47:43Z</time>
      </trkpt>
      <trkpt lat="43.3142" lon="5.54555">
        <ele>280</ele>
        <time>2020-02-19T15:47:49Z</time>
      </trkpt>
      <trkpt lat="43.31424" lon="5.54558">
        <ele>278</ele>
        <time>2020-02-19T15:58:33Z</time>
      </trkpt>
      <trkpt lat="43.31429" lon="5.54562">
        <ele>273</ele>
        <time>2020-02-19T15:59:11Z</time>
      </trkpt>
      <trkpt lat="43.31432" lon="5.54568">
        <ele>271</ele>
        <time>2020-02-19T15:59:19Z</time>
      </trkpt>
      <trkpt lat="43.31434" lon="5.54575">
        <ele>271</ele>
        <time>2020-02-19T15:59:27Z</time>
      </trkpt>
      <trkpt lat="43.31433" lon="5.54583">
        <ele>276</ele>
        <time>2020-02-19T15:59:33Z</time>
      </trkpt>
      <trkpt lat="43.31433" lon="5.5459">
        <ele>276</ele>
        <time>2020-02-19T15:59:37Z</time>
      </trkpt>
      <trkpt lat="43.31432" lon="5.54597">
        <ele>277</ele>
        <time>2020-02-19T15:59:41Z</time>
      </trkpt>
      <trkpt lat="43.31431" lon="5.54603">
        <ele>276</ele>
        <time>2020-02-19T15:59:45Z</time>
      </trkpt>
      <trkpt lat="43.31429" lon="5.54611">
        <ele>275</ele>
        <time>2020-02-19T15:59:51Z</time>
      </trkpt>
      <trkpt lat="43.31423" lon="5.54616">
        <ele>275</ele>
        <time>2020-02-19T15:59:57Z</time>
      </trkpt>
      <trkpt lat="43.31417" lon="5.54613">
        <ele>274</ele>
        <time>2020-02-19T16:00:03Z</time>
      </trkpt>
      <trkpt lat="43.31411" lon="5.54611">
        <ele>272</ele>
        <time>2020-02-19T16:00:09Z</time>
      </trkpt>
      <trkpt lat="43.31407" lon="5.54609">
        <ele>271</ele>
        <time>2020-02-19T16:00:13Z</time>
      </trkpt>
      <trkpt lat="43.31402" lon="5.54607">
        <ele>272</ele>
        <time>2020-02-19T16:00:17Z</time>
      </trkpt>
      <trkpt lat="43.31398" lon="5.54605">
        <ele>272</ele>
        <time>2020-02-19T16:00:21Z</time>
      </trkpt>
      <trkpt lat="43.31392" lon="5.54604">
        <ele>270</ele>
        <time>2020-02-19T16:00:27Z</time>
      </trkpt>
      <trkpt lat="43.31387" lon="5.54603">
        <ele>271</ele>
        <time>2020-02-19T16:00:33Z</time>
      </trkpt>
      <trkpt lat="43.31382" lon="5.54602">
        <ele>267</ele>
        <time>2020-02-19T16:00:39Z</time>
      </trkpt>
      <trkpt lat="43.31377" lon="5.54598">
        <ele>265</ele>
        <time>2020-02-19T16:00:45Z</time>
      </trkpt>
      <trkpt lat="43.31372" lon="5.54596">
        <ele>264</ele>
        <time>2020-02-19T16:00:51Z</time>
      </trkpt>
      <trkpt lat="43.31365" lon="5.54595">
        <ele>262</ele>
        <time>2020-02-19T16:00:57Z</time>
      </trkpt>
      <trkpt lat="43.3136" lon="5.54592">
        <ele>261</ele>
        <time>2020-02-19T16:01:03Z</time>
      </trkpt>
      <trkpt lat="43.31354" lon="5.5459">
        <ele>260</ele>
        <time>2020-02-19T16:01:09Z</time>
      </trkpt>
      <trkpt lat="43.31349" lon="5.54589">
        <ele>262</ele>
        <time>2020-02-19T16:01:13Z</time>
      </trkpt>
      <trkpt lat="43.31345" lon="5.54587">
        <ele>261</ele>
        <time>2020-02-19T16:01:17Z</time>
      </trkpt>
      <trkpt lat="43.3134" lon="5.54585">
        <ele>259</ele>
        <time>2020-02-19T16:01:21Z</time>
      </trkpt>
      <trkpt lat="43.31334" lon="5.54583">
        <ele>260</ele>
        <time>2020-02-19T16:01:25Z</time>
      </trkpt>
      <trkpt lat="43.31328" lon="5.54583">
        <ele>296</ele>
        <time>2020-02-19T16:01:29Z</time>
      </trkpt>
      <trkpt lat="43.31323" lon="5.5458">
        <ele>274</ele>
        <time>2020-02-19T16:01:33Z</time>
      </trkpt>
      <trkpt lat="43.31319" lon="5.54579">
        <ele>263</ele>
        <time>2020-02-19T16:01:37Z</time>
      </trkpt>
      <trkpt lat="43.31314" lon="5.54578">
        <ele>262</ele>
        <time>2020-02-19T16:01:41Z</time>
      </trkpt>
      <trkpt lat="43.31309" lon="5.54579">
        <ele>260</ele>
        <time>2020-02-19T16:01:45Z</time>
      </trkpt>
      <trkpt lat="43.31304" lon="5.54578">
        <ele>261</ele>
        <time>2020-02-19T16:01:49Z</time>
      </trkpt>
      <trkpt lat="43.31298" lon="5.54575">
        <ele>258</ele>
        <time>2020-02-19T16:01:55Z</time>
      </trkpt>
      <trkpt lat="43.31291" lon="5.54577">
        <ele>257</ele>
        <time>2020-02-19T16:02:01Z</time>
      </trkpt>
      <trkpt lat="43.31287" lon="5.54578">
        <ele>255</ele>
        <time>2020-02-19T16:02:05Z</time>
      </trkpt>
      <trkpt lat="43.31282" lon="5.54579">
        <ele>256</ele>
        <time>2020-02-19T16:02:09Z</time>
      </trkpt>
      <trkpt lat="43.31278" lon="5.54582">
        <ele>255</ele>
        <time>2020-02-19T16:02:13Z</time>
      </trkpt>
      <trkpt lat="43.31273" lon="5.54585">
        <ele>256</ele>
        <time>2020-02-19T16:02:17Z</time>
      </trkpt>
      <trkpt lat="43.31269" lon="5.54591">
        <ele>255</ele>
        <time>2020-02-19T16:02:23Z</time>
      </trkpt>
      <trkpt lat="43.31265" lon="5.54597">
        <ele>253</ele>
        <time>2020-02-19T16:02:29Z</time>
      </trkpt>
      <trkpt lat="43.31263" lon="5.54603">
        <ele>250</ele>
        <time>2020-02-19T16:02:33Z</time>
      </trkpt>
      <trkpt lat="43.31262" lon="5.54612">
        <ele>251</ele>
        <time>2020-02-19T16:02:37Z</time>
      </trkpt>
      <trkpt lat="43.31262" lon="5.54621">
        <ele>251</ele>
        <time>2020-02-19T16:02:41Z</time>
      </trkpt>
      <trkpt lat="43.31261" lon="5.54628">
        <ele>250</ele>
        <time>2020-02-19T16:02:45Z</time>
      </trkpt>
      <trkpt lat="43.3126" lon="5.54635">
        <ele>253</ele>
        <time>2020-02-19T16:02:49Z</time>
      </trkpt>
      <trkpt lat="43.31259" lon="5.54642">
        <ele>255</ele>
        <time>2020-02-19T16:02:53Z</time>
      </trkpt>
      <trkpt lat="43.31257" lon="5.5465">
        <ele>255</ele>
        <time>2020-02-19T16:03:01Z</time>
      </trkpt>
      <trkpt lat="43.31253" lon="5.54654">
        <ele>254</ele>
        <time>2020-02-19T16:03:05Z</time>
      </trkpt>
      <trkpt lat="43.3125" lon="5.5466">
        <ele>256</ele>
        <time>2020-02-19T16:03:09Z</time>
      </trkpt>
      <trkpt lat="43.31247" lon="5.54668">
        <ele>253</ele>
        <time>2020-02-19T16:03:13Z</time>
      </trkpt>
      <trkpt lat="43.31244" lon="5.54674">
        <ele>254</ele>
        <time>2020-02-19T16:03:17Z</time>
      </trkpt>
      <trkpt lat="43.31239" lon="5.54678">
        <ele>255</ele>
        <time>2020-02-19T16:03:21Z</time>
      </trkpt>
      <trkpt lat="43.31233" lon="5.5468">
        <ele>253</ele>
        <time>2020-02-19T16:03:27Z</time>
      </trkpt>
      <trkpt lat="43.31227" lon="5.54681">
        <ele>257</ele>
        <time>2020-02-19T16:03:35Z</time>
      </trkpt>
      <trkpt lat="43.31222" lon="5.54683">
        <ele>250</ele>
        <time>2020-02-19T16:04:01Z</time>
      </trkpt>
      <trkpt lat="43.31217" lon="5.54687">
        <ele>249</ele>
        <time>2020-02-19T16:04:07Z</time>
      </trkpt>
      <trkpt lat="43.31213" lon="5.5469">
        <ele>250</ele>
        <time>2020-02-19T16:04:11Z</time>
      </trkpt>
      <trkpt lat="43.31209" lon="5.54694">
        <ele>250</ele>
        <time>2020-02-19T16:04:17Z</time>
      </trkpt>
      <trkpt lat="43.31205" lon="5.54697">
        <ele>252</ele>
        <time>2020-02-19T16:04:21Z</time>
      </trkpt>
      <trkpt lat="43.312" lon="5.547">
        <ele>252</ele>
        <time>2020-02-19T16:04:25Z</time>
      </trkpt>
      <trkpt lat="43.31196" lon="5.54704">
        <ele>254</ele>
        <time>2020-02-19T16:04:29Z</time>
      </trkpt>
      <trkpt lat="43.31192" lon="5.54708">
        <ele>254</ele>
        <time>2020-02-19T16:04:35Z</time>
      </trkpt>
      <trkpt lat="43.31186" lon="5.5471">
        <ele>256</ele>
        <time>2020-02-19T16:04:43Z</time>
      </trkpt>
      <trkpt lat="43.3118" lon="5.54714">
        <ele>257</ele>
        <time>2020-02-19T16:04:49Z</time>
      </trkpt>
      <trkpt lat="43.31174" lon="5.54718">
        <ele>258</ele>
        <time>2020-02-19T16:04:53Z</time>
      </trkpt>
      <trkpt lat="43.31169" lon="5.5472">
        <ele>257</ele>
        <time>2020-02-19T16:04:57Z</time>
      </trkpt>
      <trkpt lat="43.31163" lon="5.54724">
        <ele>259</ele>
        <time>2020-02-19T16:05:03Z</time>
      </trkpt>
      <trkpt lat="43.31159" lon="5.54728">
        <ele>257</ele>
        <time>2020-02-19T16:05:07Z</time>
      </trkpt>
      <trkpt lat="43.31154" lon="5.54732">
        <ele>256</ele>
        <time>2020-02-19T16:05:11Z</time>
      </trkpt>
      <trkpt lat="43.3115" lon="5.54736">
        <ele>257</ele>
        <time>2020-02-19T16:05:15Z</time>
      </trkpt>
      <trkpt lat="43.31146" lon="5.54739">
        <ele>257</ele>
        <time>2020-02-19T16:05:19Z</time>
      </trkpt>
      <trkpt lat="43.31141" lon="5.54743">
        <ele>256</ele>
        <time>2020-02-19T16:05:23Z</time>
      </trkpt>
      <trkpt lat="43.31137" lon="5.54745">
        <ele>255</ele>
        <time>2020-02-19T16:05:27Z</time>
      </trkpt>
      <trkpt lat="43.31132" lon="5.54746">
        <ele>255</ele>
        <time>2020-02-19T16:05:31Z</time>
      </trkpt>
      <trkpt lat="43.31127" lon="5.5475">
        <ele>256</ele>
        <time>2020-02-19T16:05:37Z</time>
      </trkpt>
      <trkpt lat="43.31121" lon="5.54754">
        <ele>254</ele>
        <time>2020-02-19T16:05:43Z</time>
      </trkpt>
      <trkpt lat="43.31117" lon="5.54757">
        <ele>254</ele>
        <time>2020-02-19T16:05:47Z</time>
      </trkpt>
      <trkpt lat="43.31111" lon="5.54758">
        <ele>253</ele>
        <time>2020-02-19T16:05:53Z</time>
      </trkpt>
      <trkpt lat="43.31105" lon="5.54761">
        <ele>254</ele>
        <time>2020-02-19T16:05:59Z</time>
      </trkpt>
      <trkpt lat="43.311" lon="5.54762">
        <ele>253</ele>
        <time>2020-02-19T16:06:03Z</time>
      </trkpt>
      <trkpt lat="43.31095" lon="5.54762">
        <ele>253</ele>
        <time>2020-02-19T16:06:07Z</time>
      </trkpt>
      <trkpt lat="43.31091" lon="5.54762">
        <ele>250</ele>
        <time>2020-02-19T16:06:11Z</time>
      </trkpt>
      <trkpt lat="43.31085" lon="5.54759">
        <ele>250</ele>
        <time>2020-02-19T16:06:17Z</time>
      </trkpt>
      <trkpt lat="43.31079" lon="5.54761">
        <ele>249</ele>
        <time>2020-02-19T16:06:21Z</time>
      </trkpt>
      <trkpt lat="43.31074" lon="5.5476">
        <ele>249</ele>
        <time>2020-02-19T16:06:27Z</time>
      </trkpt>
      <trkpt lat="43.31068" lon="5.54757">
        <ele>250</ele>
        <time>2020-02-19T16:06:33Z</time>
      </trkpt>
      <trkpt lat="43.31063" lon="5.54755">
        <ele>251</ele>
        <time>2020-02-19T16:06:37Z</time>
      </trkpt>
      <trkpt lat="43.31058" lon="5.54753">
        <ele>251</ele>
        <time>2020-02-19T16:06:41Z</time>
      </trkpt>
      <trkpt lat="43.31054" lon="5.5475">
        <ele>248</ele>
        <time>2020-02-19T16:06:45Z</time>
      </trkpt>
      <trkpt lat="43.3105" lon="5.54746">
        <ele>248</ele>
        <time>2020-02-19T16:06:51Z</time>
      </trkpt>
      <trkpt lat="43.31046" lon="5.54742">
        <ele>249</ele>
        <time>2020-02-19T16:06:57Z</time>
      </trkpt>
      <trkpt lat="43.31042" lon="5.54739">
        <ele>250</ele>
        <time>2020-02-19T16:07:03Z</time>
      </trkpt>
      <trkpt lat="43.31036" lon="5.54735">
        <ele>251</ele>
        <time>2020-02-19T16:07:09Z</time>
      </trkpt>
      <trkpt lat="43.31031" lon="5.54732">
        <ele>252</ele>
        <time>2020-02-19T16:07:15Z</time>
      </trkpt>
      <trkpt lat="43.31025" lon="5.54728">
        <ele>253</ele>
        <time>2020-02-19T16:07:21Z</time>
      </trkpt>
      <trkpt lat="43.31019" lon="5.54728">
        <ele>256</ele>
        <time>2020-02-19T16:07:27Z</time>
      </trkpt>
      <trkpt lat="43.31014" lon="5.54727">
        <ele>257</ele>
        <time>2020-02-19T16:07:33Z</time>
      </trkpt>
      <trkpt lat="43.31009" lon="5.54727">
        <ele>256</ele>
        <time>2020-02-19T16:07:39Z</time>
      </trkpt>
      <trkpt lat="43.31004" lon="5.54728">
        <ele>259</ele>
        <time>2020-02-19T16:07:45Z</time>
      </trkpt>
      <trkpt lat="43.30998" lon="5.54729">
        <ele>259</ele>
        <time>2020-02-19T16:07:51Z</time>
      </trkpt>
      <trkpt lat="43.30993" lon="5.54729">
        <ele>260</ele>
        <time>2020-02-19T16:07:57Z</time>
      </trkpt>
      <trkpt lat="43.30987" lon="5.54726">
        <ele>262</ele>
        <time>2020-02-19T16:08:03Z</time>
      </trkpt>
      <trkpt lat="43.30982" lon="5.54724">
        <ele>262</ele>
        <time>2020-02-19T16:08:09Z</time>
      </trkpt>
      <trkpt lat="43.30977" lon="5.5472">
        <ele>260</ele>
        <time>2020-02-19T16:08:15Z</time>
      </trkpt>
      <trkpt lat="43.30973" lon="5.54715">
        <ele>259</ele>
        <time>2020-02-19T16:08:21Z</time>
      </trkpt>
      <trkpt lat="43.3097" lon="5.54707">
        <ele>257</ele>
        <time>2020-02-19T16:08:29Z</time>
      </trkpt>
      <trkpt lat="43.30968" lon="5.54702">
        <ele>255</ele>
        <time>2020-02-19T16:08:35Z</time>
      </trkpt>
      <trkpt lat="43.30965" lon="5.54696">
        <ele>255</ele>
        <time>2020-02-19T16:08:41Z</time>
      </trkpt>
      <trkpt lat="43.30962" lon="5.54691">
        <ele>255</ele>
        <time>2020-02-19T16:08:47Z</time>
      </trkpt>
      <trkpt lat="43.30957" lon="5.54685">
        <ele>255</ele>
        <time>2020-02-19T16:08:53Z</time>
      </trkpt>
      <trkpt lat="43.30953" lon="5.54678">
        <ele>256</ele>
        <time>2020-02-19T16:08:59Z</time>
      </trkpt>
      <trkpt lat="43.30949" lon="5.54672">
        <ele>257</ele>
        <time>2020-02-19T16:09:05Z</time>
      </trkpt>
      <trkpt lat="43.30946" lon="5.54668">
        <ele>257</ele>
        <time>2020-02-19T16:09:09Z</time>
      </trkpt>
      <trkpt lat="43.30942" lon="5.54662">
        <ele>262</ele>
        <time>2020-02-19T16:09:15Z</time>
      </trkpt>
      <trkpt lat="43.30938" lon="5.54655">
        <ele>263</ele>
        <time>2020-02-19T16:09:21Z</time>
      </trkpt>
      <trkpt lat="43.30935" lon="5.54648">
        <ele>263</ele>
        <time>2020-02-19T16:09:27Z</time>
      </trkpt>
      <trkpt lat="43.30932" lon="5.54643">
        <ele>261</ele>
        <time>2020-02-19T16:09:33Z</time>
      </trkpt>
      <trkpt lat="43.30928" lon="5.54637">
        <ele>261</ele>
        <time>2020-02-19T16:09:39Z</time>
      </trkpt>
      <trkpt lat="43.30923" lon="5.54633">
        <ele>262</ele>
        <time>2020-02-19T16:09:45Z</time>
      </trkpt>
      <trkpt lat="43.30918" lon="5.54632">
        <ele>261</ele>
        <time>2020-02-19T16:09:51Z</time>
      </trkpt>
      <trkpt lat="43.30913" lon="5.54628">
        <ele>262</ele>
        <time>2020-02-19T16:09:57Z</time>
      </trkpt>
      <trkpt lat="43.30908" lon="5.54627">
        <ele>264</ele>
        <time>2020-02-19T16:10:03Z</time>
      </trkpt>
      <trkpt lat="43.30903" lon="5.54624">
        <ele>265</ele>
        <time>2020-02-19T16:10:11Z</time>
      </trkpt>
      <trkpt lat="43.30897" lon="5.54622">
        <ele>266</ele>
        <time>2020-02-19T16:10:17Z</time>
      </trkpt>
      <trkpt lat="43.30893" lon="5.54616">
        <ele>270</ele>
        <time>2020-02-19T16:10:23Z</time>
      </trkpt>
      <trkpt lat="43.30891" lon="5.54609">
        <ele>265</ele>
        <time>2020-02-19T16:10:29Z</time>
      </trkpt>
      <trkpt lat="43.30892" lon="5.54603">
        <ele>265</ele>
        <time>2020-02-19T16:10:33Z</time>
      </trkpt>
      <trkpt lat="43.30891" lon="5.54595">
        <ele>265</ele>
        <time>2020-02-19T16:10:39Z</time>
      </trkpt>
      <trkpt lat="43.30889" lon="5.54589">
        <ele>266</ele>
        <time>2020-02-19T16:10:43Z</time>
      </trkpt>
      <trkpt lat="43.30889" lon="5.54582">
        <ele>267</ele>
        <time>2020-02-19T16:10:47Z</time>
      </trkpt>
      <trkpt lat="43.30889" lon="5.54576">
        <ele>265</ele>
        <time>2020-02-19T16:10:53Z</time>
      </trkpt>
      <trkpt lat="43.3089" lon="5.54567">
        <ele>261</ele>
        <time>2020-02-19T16:11:01Z</time>
      </trkpt>
      <trkpt lat="43.30891" lon="5.54561">
        <ele>259</ele>
        <time>2020-02-19T16:11:07Z</time>
      </trkpt>
      <trkpt lat="43.30891" lon="5.54554">
        <ele>259</ele>
        <time>2020-02-19T16:11:13Z</time>
      </trkpt>
      <trkpt lat="43.30892" lon="5.54546">
        <ele>259</ele>
        <time>2020-02-19T16:11:19Z</time>
      </trkpt>
    </trkseg>
  </trk>
</gpx>